<?xml version="1.0" encoding="UTF-8" standalone="no" ?>
<gpx xmlns="http://www.topografix.com/GPX/1/1" xmlns:xsi="http://www.w3.org/2001/XMLSchema-instance" xsi:schemaLocation="http://www.topografix.com/GPX/1/1 http://www.topografix.com/GPX/1/1/gpx.xsd" version="1.1" creator="VisuGPX - https://www.visugpx.com">
  <metadata>
    <name>St Paterne Racan Château du Loir</name>
    <desc><![CDATA[3ème étape du circuit Tours Mont St Michel]]></desc>
  </metadata>
  <trk>
    <name><![CDATA[2016-06-16-01]]></name>
    <trkseg>
      <trkpt lat="47.60286" lon="0.48459">
        <ele>65.9</ele>
        <time>2016-06-16T06:15:14Z</time>
      </trkpt>
      <trkpt lat="47.60283" lon="0.48452">
        <ele>66.2</ele>
        <time>2016-06-16T06:15:15Z</time>
      </trkpt>
      <trkpt lat="47.60286" lon="0.48466">
        <ele>68.2</ele>
        <time>2016-06-16T06:15:29Z</time>
      </trkpt>
      <trkpt lat="47.60287" lon="0.4848">
        <ele>67.3</ele>
        <time>2016-06-16T06:15:35Z</time>
      </trkpt>
      <trkpt lat="47.6029" lon="0.48494">
        <ele>67.1</ele>
        <time>2016-06-16T06:15:43Z</time>
      </trkpt>
      <trkpt lat="47.60291" lon="0.48507">
        <ele>66.8</ele>
        <time>2016-06-16T06:15:50Z</time>
      </trkpt>
      <trkpt lat="47.60292" lon="0.48521">
        <ele>66.6</ele>
        <time>2016-06-16T06:15:58Z</time>
      </trkpt>
      <trkpt lat="47.60291" lon="0.48535">
        <ele>66.5</ele>
        <time>2016-06-16T06:16:07Z</time>
      </trkpt>
      <trkpt lat="47.60296" lon="0.48547">
        <ele>67</ele>
        <time>2016-06-16T06:16:14Z</time>
      </trkpt>
      <trkpt lat="47.60299" lon="0.4856">
        <ele>66.9</ele>
        <time>2016-06-16T06:16:23Z</time>
      </trkpt>
      <trkpt lat="47.60302" lon="0.48574">
        <ele>66.6</ele>
        <time>2016-06-16T06:16:33Z</time>
      </trkpt>
      <trkpt lat="47.60305" lon="0.48587">
        <ele>67.5</ele>
        <time>2016-06-16T06:16:44Z</time>
      </trkpt>
      <trkpt lat="47.60315" lon="0.48589">
        <ele>67.3</ele>
        <time>2016-06-16T06:16:50Z</time>
      </trkpt>
      <trkpt lat="47.60323" lon="0.48596">
        <ele>67.9</ele>
        <time>2016-06-16T06:16:58Z</time>
      </trkpt>
      <trkpt lat="47.60333" lon="0.48594">
        <ele>67.8</ele>
        <time>2016-06-16T06:17:15Z</time>
      </trkpt>
      <trkpt lat="47.60342" lon="0.48593">
        <ele>68.5</ele>
        <time>2016-06-16T06:17:23Z</time>
      </trkpt>
      <trkpt lat="47.60352" lon="0.48589">
        <ele>69.1</ele>
        <time>2016-06-16T06:17:36Z</time>
      </trkpt>
      <trkpt lat="47.60362" lon="0.48587">
        <ele>69.3</ele>
        <time>2016-06-16T06:17:45Z</time>
      </trkpt>
      <trkpt lat="47.60372" lon="0.48583">
        <ele>69.3</ele>
        <time>2016-06-16T06:17:56Z</time>
      </trkpt>
      <trkpt lat="47.60381" lon="0.48576">
        <ele>69.4</ele>
        <time>2016-06-16T06:18:02Z</time>
      </trkpt>
      <trkpt lat="47.6039" lon="0.4857">
        <ele>69.1</ele>
        <time>2016-06-16T06:18:09Z</time>
      </trkpt>
      <trkpt lat="47.60398" lon="0.48562">
        <ele>68.9</ele>
        <time>2016-06-16T06:18:17Z</time>
      </trkpt>
      <trkpt lat="47.60406" lon="0.48556">
        <ele>68.1</ele>
        <time>2016-06-16T06:18:37Z</time>
      </trkpt>
      <trkpt lat="47.60414" lon="0.48552">
        <ele>69.3</ele>
        <time>2016-06-16T06:18:48Z</time>
      </trkpt>
      <trkpt lat="47.60424" lon="0.48551">
        <ele>68.4</ele>
        <time>2016-06-16T06:19:02Z</time>
      </trkpt>
      <trkpt lat="47.60434" lon="0.48553">
        <ele>67.8</ele>
        <time>2016-06-16T06:19:23Z</time>
      </trkpt>
      <trkpt lat="47.60439" lon="0.48565">
        <ele>68.8</ele>
        <time>2016-06-16T06:19:32Z</time>
      </trkpt>
      <trkpt lat="47.60446" lon="0.48574">
        <ele>68.6</ele>
        <time>2016-06-16T06:19:41Z</time>
      </trkpt>
      <trkpt lat="47.60455" lon="0.48579">
        <ele>68.9</ele>
        <time>2016-06-16T06:19:49Z</time>
      </trkpt>
      <trkpt lat="47.60462" lon="0.48588">
        <ele>69.5</ele>
        <time>2016-06-16T06:19:57Z</time>
      </trkpt>
      <trkpt lat="47.60471" lon="0.48592">
        <ele>69.3</ele>
        <time>2016-06-16T06:20:05Z</time>
      </trkpt>
      <trkpt lat="47.60479" lon="0.48599">
        <ele>69.3</ele>
        <time>2016-06-16T06:20:12Z</time>
      </trkpt>
      <trkpt lat="47.60489" lon="0.48603">
        <ele>70</ele>
        <time>2016-06-16T06:20:20Z</time>
      </trkpt>
      <trkpt lat="47.60498" lon="0.48608">
        <ele>70.3</ele>
        <time>2016-06-16T06:20:29Z</time>
      </trkpt>
      <trkpt lat="47.60505" lon="0.48616">
        <ele>70.8</ele>
        <time>2016-06-16T06:20:38Z</time>
      </trkpt>
      <trkpt lat="47.60515" lon="0.48621">
        <ele>71</ele>
        <time>2016-06-16T06:20:48Z</time>
      </trkpt>
      <trkpt lat="47.60522" lon="0.48631">
        <ele>71.6</ele>
        <time>2016-06-16T06:20:58Z</time>
      </trkpt>
      <trkpt lat="47.60527" lon="0.48642">
        <ele>71.3</ele>
        <time>2016-06-16T06:21:06Z</time>
      </trkpt>
      <trkpt lat="47.60533" lon="0.48653">
        <ele>71.9</ele>
        <time>2016-06-16T06:21:15Z</time>
      </trkpt>
      <trkpt lat="47.60541" lon="0.48661">
        <ele>72.4</ele>
        <time>2016-06-16T06:21:29Z</time>
      </trkpt>
      <trkpt lat="47.60546" lon="0.48672">
        <ele>72.5</ele>
        <time>2016-06-16T06:21:38Z</time>
      </trkpt>
      <trkpt lat="47.60551" lon="0.48685">
        <ele>73.1</ele>
        <time>2016-06-16T06:21:47Z</time>
      </trkpt>
      <trkpt lat="47.60558" lon="0.48697">
        <ele>73.7</ele>
        <time>2016-06-16T06:21:56Z</time>
      </trkpt>
      <trkpt lat="47.60563" lon="0.48708">
        <ele>73.8</ele>
        <time>2016-06-16T06:22:05Z</time>
      </trkpt>
      <trkpt lat="47.60572" lon="0.48712">
        <ele>74.5</ele>
        <time>2016-06-16T06:22:15Z</time>
      </trkpt>
      <trkpt lat="47.60582" lon="0.48713">
        <ele>75.5</ele>
        <time>2016-06-16T06:22:27Z</time>
      </trkpt>
      <trkpt lat="47.60591" lon="0.48712">
        <ele>76.1</ele>
        <time>2016-06-16T06:22:34Z</time>
      </trkpt>
      <trkpt lat="47.60601" lon="0.4871">
        <ele>75.9</ele>
        <time>2016-06-16T06:22:42Z</time>
      </trkpt>
      <trkpt lat="47.6061" lon="0.48707">
        <ele>76.3</ele>
        <time>2016-06-16T06:22:49Z</time>
      </trkpt>
      <trkpt lat="47.60619" lon="0.48702">
        <ele>77.3</ele>
        <time>2016-06-16T06:22:56Z</time>
      </trkpt>
      <trkpt lat="47.60628" lon="0.48696">
        <ele>78.5</ele>
        <time>2016-06-16T06:23:06Z</time>
      </trkpt>
      <trkpt lat="47.60636" lon="0.48689">
        <ele>79.4</ele>
        <time>2016-06-16T06:23:16Z</time>
      </trkpt>
      <trkpt lat="47.60643" lon="0.4868">
        <ele>80.4</ele>
        <time>2016-06-16T06:23:31Z</time>
      </trkpt>
      <trkpt lat="47.60652" lon="0.48674">
        <ele>82.2</ele>
        <time>2016-06-16T06:23:44Z</time>
      </trkpt>
      <trkpt lat="47.60661" lon="0.4867">
        <ele>83.7</ele>
        <time>2016-06-16T06:23:53Z</time>
      </trkpt>
      <trkpt lat="47.6067" lon="0.48667">
        <ele>84.1</ele>
        <time>2016-06-16T06:24:05Z</time>
      </trkpt>
      <trkpt lat="47.60679" lon="0.48665">
        <ele>85.1</ele>
        <time>2016-06-16T06:24:15Z</time>
      </trkpt>
      <trkpt lat="47.60688" lon="0.4866">
        <ele>85.9</ele>
        <time>2016-06-16T06:24:27Z</time>
      </trkpt>
      <trkpt lat="47.60698" lon="0.48655">
        <ele>87.3</ele>
        <time>2016-06-16T06:24:47Z</time>
      </trkpt>
      <trkpt lat="47.60708" lon="0.48653">
        <ele>87.9</ele>
        <time>2016-06-16T06:24:57Z</time>
      </trkpt>
      <trkpt lat="47.60717" lon="0.48652">
        <ele>89</ele>
        <time>2016-06-16T06:25:08Z</time>
      </trkpt>
      <trkpt lat="47.60727" lon="0.48653">
        <ele>89</ele>
        <time>2016-06-16T06:25:18Z</time>
      </trkpt>
      <trkpt lat="47.60736" lon="0.48652">
        <ele>90.7</ele>
        <time>2016-06-16T06:25:30Z</time>
      </trkpt>
      <trkpt lat="47.60745" lon="0.48652">
        <ele>92</ele>
        <time>2016-06-16T06:25:41Z</time>
      </trkpt>
      <trkpt lat="47.60754" lon="0.48652">
        <ele>92.5</ele>
        <time>2016-06-16T06:25:53Z</time>
      </trkpt>
      <trkpt lat="47.60764" lon="0.48653">
        <ele>93.5</ele>
        <time>2016-06-16T06:26:04Z</time>
      </trkpt>
      <trkpt lat="47.60774" lon="0.48654">
        <ele>94.3</ele>
        <time>2016-06-16T06:26:14Z</time>
      </trkpt>
      <trkpt lat="47.60783" lon="0.48651">
        <ele>95.4</ele>
        <time>2016-06-16T06:26:48Z</time>
      </trkpt>
      <trkpt lat="47.60793" lon="0.48653">
        <ele>96.2</ele>
        <time>2016-06-16T06:26:58Z</time>
      </trkpt>
      <trkpt lat="47.60802" lon="0.48655">
        <ele>97</ele>
        <time>2016-06-16T06:27:09Z</time>
      </trkpt>
      <trkpt lat="47.60813" lon="0.48654">
        <ele>98.4</ele>
        <time>2016-06-16T06:27:20Z</time>
      </trkpt>
      <trkpt lat="47.60822" lon="0.48655">
        <ele>98.7</ele>
        <time>2016-06-16T06:27:30Z</time>
      </trkpt>
      <trkpt lat="47.60832" lon="0.48654">
        <ele>99.6</ele>
        <time>2016-06-16T06:27:39Z</time>
      </trkpt>
      <trkpt lat="47.60841" lon="0.48653">
        <ele>100.1</ele>
        <time>2016-06-16T06:27:48Z</time>
      </trkpt>
      <trkpt lat="47.60849" lon="0.48649">
        <ele>101.7</ele>
        <time>2016-06-16T06:28:02Z</time>
      </trkpt>
      <trkpt lat="47.60859" lon="0.48648">
        <ele>101.5</ele>
        <time>2016-06-16T06:28:24Z</time>
      </trkpt>
      <trkpt lat="47.60868" lon="0.48643">
        <ele>103.5</ele>
        <time>2016-06-16T06:30:16Z</time>
      </trkpt>
      <trkpt lat="47.60876" lon="0.48638">
        <ele>103.9</ele>
        <time>2016-06-16T06:30:28Z</time>
      </trkpt>
      <trkpt lat="47.60884" lon="0.4863">
        <ele>104.4</ele>
        <time>2016-06-16T06:30:53Z</time>
      </trkpt>
      <trkpt lat="47.60893" lon="0.48623">
        <ele>105.3</ele>
        <time>2016-06-16T06:31:03Z</time>
      </trkpt>
      <trkpt lat="47.60901" lon="0.48617">
        <ele>106.1</ele>
        <time>2016-06-16T06:31:13Z</time>
      </trkpt>
      <trkpt lat="47.60909" lon="0.48609">
        <ele>106</ele>
        <time>2016-06-16T06:31:22Z</time>
      </trkpt>
      <trkpt lat="47.60916" lon="0.48601">
        <ele>106.3</ele>
        <time>2016-06-16T06:31:31Z</time>
      </trkpt>
      <trkpt lat="47.60925" lon="0.48595">
        <ele>107</ele>
        <time>2016-06-16T06:31:48Z</time>
      </trkpt>
      <trkpt lat="47.60933" lon="0.48588">
        <ele>107.2</ele>
        <time>2016-06-16T06:31:57Z</time>
      </trkpt>
      <trkpt lat="47.60942" lon="0.48581">
        <ele>106.7</ele>
        <time>2016-06-16T06:32:06Z</time>
      </trkpt>
      <trkpt lat="47.6095" lon="0.48576">
        <ele>107.2</ele>
        <time>2016-06-16T06:32:34Z</time>
      </trkpt>
      <trkpt lat="47.60958" lon="0.48567">
        <ele>107.3</ele>
        <time>2016-06-16T06:32:48Z</time>
      </trkpt>
      <trkpt lat="47.60967" lon="0.48563">
        <ele>107.2</ele>
        <time>2016-06-16T06:32:54Z</time>
      </trkpt>
      <trkpt lat="47.60975" lon="0.48557">
        <ele>107.2</ele>
        <time>2016-06-16T06:33:00Z</time>
      </trkpt>
      <trkpt lat="47.60984" lon="0.48554">
        <ele>106.8</ele>
        <time>2016-06-16T06:33:08Z</time>
      </trkpt>
      <trkpt lat="47.60993" lon="0.4855">
        <ele>107.2</ele>
        <time>2016-06-16T06:33:17Z</time>
      </trkpt>
      <trkpt lat="47.61002" lon="0.48545">
        <ele>107.2</ele>
        <time>2016-06-16T06:33:30Z</time>
      </trkpt>
      <trkpt lat="47.61012" lon="0.48543">
        <ele>106.4</ele>
        <time>2016-06-16T06:33:40Z</time>
      </trkpt>
      <trkpt lat="47.61021" lon="0.48541">
        <ele>107.4</ele>
        <time>2016-06-16T06:33:48Z</time>
      </trkpt>
      <trkpt lat="47.61031" lon="0.48539">
        <ele>107</ele>
        <time>2016-06-16T06:33:57Z</time>
      </trkpt>
      <trkpt lat="47.61041" lon="0.48538">
        <ele>106.2</ele>
        <time>2016-06-16T06:34:06Z</time>
      </trkpt>
      <trkpt lat="47.6105" lon="0.48536">
        <ele>106.9</ele>
        <time>2016-06-16T06:34:16Z</time>
      </trkpt>
      <trkpt lat="47.61059" lon="0.48535">
        <ele>106.9</ele>
        <time>2016-06-16T06:34:24Z</time>
      </trkpt>
      <trkpt lat="47.61069" lon="0.48535">
        <ele>106.3</ele>
        <time>2016-06-16T06:34:32Z</time>
      </trkpt>
      <trkpt lat="47.61079" lon="0.48536">
        <ele>105.7</ele>
        <time>2016-06-16T06:34:41Z</time>
      </trkpt>
      <trkpt lat="47.61088" lon="0.48535">
        <ele>106.1</ele>
        <time>2016-06-16T06:34:49Z</time>
      </trkpt>
      <trkpt lat="47.61098" lon="0.48535">
        <ele>106.1</ele>
        <time>2016-06-16T06:34:57Z</time>
      </trkpt>
      <trkpt lat="47.61108" lon="0.48535">
        <ele>105.7</ele>
        <time>2016-06-16T06:35:06Z</time>
      </trkpt>
      <trkpt lat="47.61118" lon="0.48535">
        <ele>105.8</ele>
        <time>2016-06-16T06:35:15Z</time>
      </trkpt>
      <trkpt lat="47.61128" lon="0.48537">
        <ele>105.8</ele>
        <time>2016-06-16T06:35:24Z</time>
      </trkpt>
      <trkpt lat="47.61137" lon="0.48538">
        <ele>105.8</ele>
        <time>2016-06-16T06:35:32Z</time>
      </trkpt>
      <trkpt lat="47.61146" lon="0.48538">
        <ele>106.1</ele>
        <time>2016-06-16T06:35:39Z</time>
      </trkpt>
      <trkpt lat="47.61155" lon="0.48535">
        <ele>106.5</ele>
        <time>2016-06-16T06:35:47Z</time>
      </trkpt>
      <trkpt lat="47.61165" lon="0.48536">
        <ele>106.6</ele>
        <time>2016-06-16T06:35:55Z</time>
      </trkpt>
      <trkpt lat="47.61173" lon="0.48542">
        <ele>106.8</ele>
        <time>2016-06-16T06:36:06Z</time>
      </trkpt>
      <trkpt lat="47.61183" lon="0.48545">
        <ele>106.5</ele>
        <time>2016-06-16T06:36:13Z</time>
      </trkpt>
      <trkpt lat="47.61193" lon="0.48543">
        <ele>107.3</ele>
        <time>2016-06-16T06:36:53Z</time>
      </trkpt>
      <trkpt lat="47.61203" lon="0.48546">
        <ele>107.7</ele>
        <time>2016-06-16T06:37:02Z</time>
      </trkpt>
      <trkpt lat="47.61212" lon="0.48551">
        <ele>107.7</ele>
        <time>2016-06-16T06:37:10Z</time>
      </trkpt>
      <trkpt lat="47.61215" lon="0.48564">
        <ele>107.8</ele>
        <time>2016-06-16T06:37:20Z</time>
      </trkpt>
      <trkpt lat="47.61208" lon="0.48574">
        <ele>107.7</ele>
        <time>2016-06-16T06:37:32Z</time>
      </trkpt>
      <trkpt lat="47.61202" lon="0.48584">
        <ele>107.8</ele>
        <time>2016-06-16T06:37:40Z</time>
      </trkpt>
      <trkpt lat="47.61194" lon="0.48592">
        <ele>107.6</ele>
        <time>2016-06-16T06:37:47Z</time>
      </trkpt>
      <trkpt lat="47.61193" lon="0.48605">
        <ele>107.4</ele>
        <time>2016-06-16T06:38:19Z</time>
      </trkpt>
      <trkpt lat="47.61194" lon="0.48619">
        <ele>107.5</ele>
        <time>2016-06-16T06:39:18Z</time>
      </trkpt>
      <trkpt lat="47.61193" lon="0.48634">
        <ele>107.5</ele>
        <time>2016-06-16T06:39:32Z</time>
      </trkpt>
      <trkpt lat="47.61188" lon="0.48622">
        <ele>107.3</ele>
        <time>2016-06-16T06:39:54Z</time>
      </trkpt>
      <trkpt lat="47.61179" lon="0.48616">
        <ele>107.5</ele>
        <time>2016-06-16T06:40:02Z</time>
      </trkpt>
      <trkpt lat="47.61185" lon="0.48605">
        <ele>107.1</ele>
        <time>2016-06-16T06:40:34Z</time>
      </trkpt>
      <trkpt lat="47.61194" lon="0.48598">
        <ele>107.6</ele>
        <time>2016-06-16T06:40:57Z</time>
      </trkpt>
      <trkpt lat="47.61202" lon="0.48588">
        <ele>107.4</ele>
        <time>2016-06-16T06:41:06Z</time>
      </trkpt>
      <trkpt lat="47.6121" lon="0.48578">
        <ele>108.3</ele>
        <time>2016-06-16T06:41:16Z</time>
      </trkpt>
      <trkpt lat="47.61213" lon="0.48566">
        <ele>107.5</ele>
        <time>2016-06-16T06:41:57Z</time>
      </trkpt>
      <trkpt lat="47.61221" lon="0.48558">
        <ele>107.5</ele>
        <time>2016-06-16T06:42:11Z</time>
      </trkpt>
      <trkpt lat="47.61228" lon="0.48551">
        <ele>107.1</ele>
        <time>2016-06-16T06:42:28Z</time>
      </trkpt>
      <trkpt lat="47.61237" lon="0.48544">
        <ele>106.8</ele>
        <time>2016-06-16T06:43:12Z</time>
      </trkpt>
      <trkpt lat="47.61244" lon="0.48534">
        <ele>106.9</ele>
        <time>2016-06-16T06:43:20Z</time>
      </trkpt>
      <trkpt lat="47.61252" lon="0.48526">
        <ele>106.2</ele>
        <time>2016-06-16T06:43:32Z</time>
      </trkpt>
      <trkpt lat="47.6126" lon="0.48518">
        <ele>106.5</ele>
        <time>2016-06-16T06:43:41Z</time>
      </trkpt>
      <trkpt lat="47.61267" lon="0.48509">
        <ele>107.2</ele>
        <time>2016-06-16T06:43:50Z</time>
      </trkpt>
      <trkpt lat="47.61276" lon="0.48501">
        <ele>106.2</ele>
        <time>2016-06-16T06:43:58Z</time>
      </trkpt>
      <trkpt lat="47.61284" lon="0.48493">
        <ele>106.1</ele>
        <time>2016-06-16T06:44:08Z</time>
      </trkpt>
      <trkpt lat="47.61292" lon="0.48484">
        <ele>105.8</ele>
        <time>2016-06-16T06:44:16Z</time>
      </trkpt>
      <trkpt lat="47.61299" lon="0.48476">
        <ele>104.7</ele>
        <time>2016-06-16T06:44:23Z</time>
      </trkpt>
      <trkpt lat="47.61307" lon="0.48469">
        <ele>104.3</ele>
        <time>2016-06-16T06:44:31Z</time>
      </trkpt>
      <trkpt lat="47.61315" lon="0.4846">
        <ele>103.5</ele>
        <time>2016-06-16T06:44:40Z</time>
      </trkpt>
      <trkpt lat="47.61325" lon="0.48455">
        <ele>103</ele>
        <time>2016-06-16T06:44:50Z</time>
      </trkpt>
      <trkpt lat="47.61333" lon="0.48448">
        <ele>102.7</ele>
        <time>2016-06-16T06:44:57Z</time>
      </trkpt>
      <trkpt lat="47.61341" lon="0.48439">
        <ele>101.3</ele>
        <time>2016-06-16T06:45:04Z</time>
      </trkpt>
      <trkpt lat="47.61349" lon="0.48434">
        <ele>100.1</ele>
        <time>2016-06-16T06:45:11Z</time>
      </trkpt>
      <trkpt lat="47.61356" lon="0.48425">
        <ele>99.1</ele>
        <time>2016-06-16T06:45:18Z</time>
      </trkpt>
      <trkpt lat="47.61365" lon="0.48419">
        <ele>98.3</ele>
        <time>2016-06-16T06:45:26Z</time>
      </trkpt>
      <trkpt lat="47.61373" lon="0.48412">
        <ele>97.8</ele>
        <time>2016-06-16T06:45:36Z</time>
      </trkpt>
      <trkpt lat="47.61382" lon="0.48405">
        <ele>96.9</ele>
        <time>2016-06-16T06:45:44Z</time>
      </trkpt>
      <trkpt lat="47.61391" lon="0.48398">
        <ele>96.1</ele>
        <time>2016-06-16T06:45:53Z</time>
      </trkpt>
      <trkpt lat="47.614" lon="0.48394">
        <ele>95.4</ele>
        <time>2016-06-16T06:46:01Z</time>
      </trkpt>
      <trkpt lat="47.61409" lon="0.4839">
        <ele>94.3</ele>
        <time>2016-06-16T06:46:07Z</time>
      </trkpt>
      <trkpt lat="47.61419" lon="0.48392">
        <ele>93.1</ele>
        <time>2016-06-16T06:46:16Z</time>
      </trkpt>
      <trkpt lat="47.61428" lon="0.48385">
        <ele>91.5</ele>
        <time>2016-06-16T06:46:26Z</time>
      </trkpt>
      <trkpt lat="47.61438" lon="0.48377">
        <ele>89.8</ele>
        <time>2016-06-16T06:46:39Z</time>
      </trkpt>
      <trkpt lat="47.61448" lon="0.4838">
        <ele>88.7</ele>
        <time>2016-06-16T06:46:52Z</time>
      </trkpt>
      <trkpt lat="47.61459" lon="0.48381">
        <ele>88</ele>
        <time>2016-06-16T06:47:01Z</time>
      </trkpt>
      <trkpt lat="47.6147" lon="0.48381">
        <ele>86.6</ele>
        <time>2016-06-16T06:47:09Z</time>
      </trkpt>
      <trkpt lat="47.6148" lon="0.48384">
        <ele>85.8</ele>
        <time>2016-06-16T06:47:18Z</time>
      </trkpt>
      <trkpt lat="47.61489" lon="0.48388">
        <ele>84.8</ele>
        <time>2016-06-16T06:47:25Z</time>
      </trkpt>
      <trkpt lat="47.61499" lon="0.4839">
        <ele>84</ele>
        <time>2016-06-16T06:47:32Z</time>
      </trkpt>
      <trkpt lat="47.61508" lon="0.48394">
        <ele>83</ele>
        <time>2016-06-16T06:47:40Z</time>
      </trkpt>
      <trkpt lat="47.61517" lon="0.48395">
        <ele>82.4</ele>
        <time>2016-06-16T06:47:48Z</time>
      </trkpt>
      <trkpt lat="47.61526" lon="0.48393">
        <ele>81.4</ele>
        <time>2016-06-16T06:47:56Z</time>
      </trkpt>
      <trkpt lat="47.61536" lon="0.48396">
        <ele>80.8</ele>
        <time>2016-06-16T06:48:04Z</time>
      </trkpt>
      <trkpt lat="47.61546" lon="0.48399">
        <ele>80</ele>
        <time>2016-06-16T06:48:12Z</time>
      </trkpt>
      <trkpt lat="47.61556" lon="0.48405">
        <ele>78.9</ele>
        <time>2016-06-16T06:48:21Z</time>
      </trkpt>
      <trkpt lat="47.61566" lon="0.4841">
        <ele>77.8</ele>
        <time>2016-06-16T06:48:28Z</time>
      </trkpt>
      <trkpt lat="47.61574" lon="0.48416">
        <ele>76.6</ele>
        <time>2016-06-16T06:48:36Z</time>
      </trkpt>
      <trkpt lat="47.61584" lon="0.48418">
        <ele>74</ele>
        <time>2016-06-16T06:48:44Z</time>
      </trkpt>
      <trkpt lat="47.61593" lon="0.4842">
        <ele>74.1</ele>
        <time>2016-06-16T06:48:52Z</time>
      </trkpt>
      <trkpt lat="47.61602" lon="0.48418">
        <ele>73</ele>
        <time>2016-06-16T06:48:59Z</time>
      </trkpt>
      <trkpt lat="47.61611" lon="0.48416">
        <ele>71.6</ele>
        <time>2016-06-16T06:49:10Z</time>
      </trkpt>
      <trkpt lat="47.61619" lon="0.48406">
        <ele>70.4</ele>
        <time>2016-06-16T06:49:21Z</time>
      </trkpt>
      <trkpt lat="47.61625" lon="0.48396">
        <ele>69.5</ele>
        <time>2016-06-16T06:49:30Z</time>
      </trkpt>
      <trkpt lat="47.61627" lon="0.48382">
        <ele>68.4</ele>
        <time>2016-06-16T06:49:38Z</time>
      </trkpt>
      <trkpt lat="47.61629" lon="0.48369">
        <ele>67.2</ele>
        <time>2016-06-16T06:49:45Z</time>
      </trkpt>
      <trkpt lat="47.61635" lon="0.48357">
        <ele>66.8</ele>
        <time>2016-06-16T06:49:53Z</time>
      </trkpt>
      <trkpt lat="47.61639" lon="0.48344">
        <ele>66.3</ele>
        <time>2016-06-16T06:49:59Z</time>
      </trkpt>
      <trkpt lat="47.61645" lon="0.48332">
        <ele>65.4</ele>
        <time>2016-06-16T06:50:08Z</time>
      </trkpt>
      <trkpt lat="47.61648" lon="0.48317">
        <ele>64.9</ele>
        <time>2016-06-16T06:50:15Z</time>
      </trkpt>
      <trkpt lat="47.61653" lon="0.48306">
        <ele>64</ele>
        <time>2016-06-16T06:50:24Z</time>
      </trkpt>
      <trkpt lat="47.61655" lon="0.48292">
        <ele>63.3</ele>
        <time>2016-06-16T06:50:37Z</time>
      </trkpt>
      <trkpt lat="47.61652" lon="0.48279">
        <ele>62.7</ele>
        <time>2016-06-16T06:50:44Z</time>
      </trkpt>
      <trkpt lat="47.61649" lon="0.48266">
        <ele>62.8</ele>
        <time>2016-06-16T06:50:53Z</time>
      </trkpt>
      <trkpt lat="47.61646" lon="0.48253">
        <ele>62.5</ele>
        <time>2016-06-16T06:51:01Z</time>
      </trkpt>
      <trkpt lat="47.61644" lon="0.48239">
        <ele>62.6</ele>
        <time>2016-06-16T06:51:11Z</time>
      </trkpt>
      <trkpt lat="47.61648" lon="0.48227">
        <ele>62.2</ele>
        <time>2016-06-16T06:51:19Z</time>
      </trkpt>
      <trkpt lat="47.61652" lon="0.48213">
        <ele>62</ele>
        <time>2016-06-16T06:51:27Z</time>
      </trkpt>
      <trkpt lat="47.61656" lon="0.482">
        <ele>61.8</ele>
        <time>2016-06-16T06:51:35Z</time>
      </trkpt>
      <trkpt lat="47.61659" lon="0.48186">
        <ele>62.1</ele>
        <time>2016-06-16T06:51:44Z</time>
      </trkpt>
      <trkpt lat="47.61663" lon="0.48173">
        <ele>61</ele>
        <time>2016-06-16T06:51:52Z</time>
      </trkpt>
      <trkpt lat="47.61666" lon="0.4816">
        <ele>61.9</ele>
        <time>2016-06-16T06:52:00Z</time>
      </trkpt>
      <trkpt lat="47.61669" lon="0.48145">
        <ele>60.9</ele>
        <time>2016-06-16T06:52:10Z</time>
      </trkpt>
      <trkpt lat="47.61672" lon="0.48132">
        <ele>60.7</ele>
        <time>2016-06-16T06:52:19Z</time>
      </trkpt>
      <trkpt lat="47.61674" lon="0.48118">
        <ele>60.7</ele>
        <time>2016-06-16T06:52:26Z</time>
      </trkpt>
      <trkpt lat="47.61677" lon="0.48105">
        <ele>60.4</ele>
        <time>2016-06-16T06:52:32Z</time>
      </trkpt>
      <trkpt lat="47.6168" lon="0.48092">
        <ele>60.1</ele>
        <time>2016-06-16T06:52:40Z</time>
      </trkpt>
      <trkpt lat="47.61683" lon="0.48079">
        <ele>59.7</ele>
        <time>2016-06-16T06:52:49Z</time>
      </trkpt>
      <trkpt lat="47.61686" lon="0.48067">
        <ele>59.5</ele>
        <time>2016-06-16T06:53:01Z</time>
      </trkpt>
      <trkpt lat="47.61691" lon="0.48055">
        <ele>59.4</ele>
        <time>2016-06-16T06:53:10Z</time>
      </trkpt>
      <trkpt lat="47.61697" lon="0.48044">
        <ele>59.4</ele>
        <time>2016-06-16T06:53:18Z</time>
      </trkpt>
      <trkpt lat="47.61702" lon="0.48031">
        <ele>58.9</ele>
        <time>2016-06-16T06:53:26Z</time>
      </trkpt>
      <trkpt lat="47.61699" lon="0.48019">
        <ele>59.2</ele>
        <time>2016-06-16T06:53:33Z</time>
      </trkpt>
      <trkpt lat="47.61695" lon="0.48005">
        <ele>59.4</ele>
        <time>2016-06-16T06:53:41Z</time>
      </trkpt>
      <trkpt lat="47.61691" lon="0.47993">
        <ele>60.4</ele>
        <time>2016-06-16T06:53:49Z</time>
      </trkpt>
      <trkpt lat="47.61685" lon="0.47983">
        <ele>59.9</ele>
        <time>2016-06-16T06:53:56Z</time>
      </trkpt>
      <trkpt lat="47.61677" lon="0.47976">
        <ele>59.9</ele>
        <time>2016-06-16T06:54:03Z</time>
      </trkpt>
      <trkpt lat="47.61669" lon="0.47967">
        <ele>59.7</ele>
        <time>2016-06-16T06:54:10Z</time>
      </trkpt>
      <trkpt lat="47.61663" lon="0.47956">
        <ele>60</ele>
        <time>2016-06-16T06:54:20Z</time>
      </trkpt>
      <trkpt lat="47.61655" lon="0.47949">
        <ele>59.9</ele>
        <time>2016-06-16T06:54:28Z</time>
      </trkpt>
      <trkpt lat="47.61656" lon="0.47934">
        <ele>60</ele>
        <time>2016-06-16T06:54:38Z</time>
      </trkpt>
      <trkpt lat="47.61656" lon="0.4792">
        <ele>60.2</ele>
        <time>2016-06-16T06:54:46Z</time>
      </trkpt>
      <trkpt lat="47.61662" lon="0.47908">
        <ele>60.7</ele>
        <time>2016-06-16T06:54:53Z</time>
      </trkpt>
      <trkpt lat="47.61665" lon="0.47895">
        <ele>60.8</ele>
        <time>2016-06-16T06:55:03Z</time>
      </trkpt>
      <trkpt lat="47.61671" lon="0.47884">
        <ele>61.5</ele>
        <time>2016-06-16T06:55:13Z</time>
      </trkpt>
      <trkpt lat="47.61672" lon="0.47869">
        <ele>63.3</ele>
        <time>2016-06-16T06:55:24Z</time>
      </trkpt>
      <trkpt lat="47.61678" lon="0.47858">
        <ele>64.3</ele>
        <time>2016-06-16T06:55:35Z</time>
      </trkpt>
      <trkpt lat="47.61682" lon="0.47845">
        <ele>65.3</ele>
        <time>2016-06-16T06:55:44Z</time>
      </trkpt>
      <trkpt lat="47.61687" lon="0.47834">
        <ele>67.2</ele>
        <time>2016-06-16T06:55:58Z</time>
      </trkpt>
      <trkpt lat="47.61689" lon="0.4782">
        <ele>68.6</ele>
        <time>2016-06-16T06:56:09Z</time>
      </trkpt>
      <trkpt lat="47.61689" lon="0.47804">
        <ele>70.1</ele>
        <time>2016-06-16T06:56:18Z</time>
      </trkpt>
      <trkpt lat="47.6169" lon="0.47791">
        <ele>71.4</ele>
        <time>2016-06-16T06:56:28Z</time>
      </trkpt>
      <trkpt lat="47.61696" lon="0.4778">
        <ele>73.3</ele>
        <time>2016-06-16T06:56:44Z</time>
      </trkpt>
      <trkpt lat="47.61704" lon="0.47775">
        <ele>74.9</ele>
        <time>2016-06-16T06:56:55Z</time>
      </trkpt>
      <trkpt lat="47.61709" lon="0.47762">
        <ele>75.3</ele>
        <time>2016-06-16T06:57:16Z</time>
      </trkpt>
      <trkpt lat="47.61715" lon="0.47751">
        <ele>76.5</ele>
        <time>2016-06-16T06:57:25Z</time>
      </trkpt>
      <trkpt lat="47.61719" lon="0.47739">
        <ele>78</ele>
        <time>2016-06-16T06:57:59Z</time>
      </trkpt>
      <trkpt lat="47.61721" lon="0.47725">
        <ele>78.7</ele>
        <time>2016-06-16T06:59:05Z</time>
      </trkpt>
      <trkpt lat="47.61725" lon="0.47712">
        <ele>79.5</ele>
        <time>2016-06-16T06:59:12Z</time>
      </trkpt>
      <trkpt lat="47.6173" lon="0.47701">
        <ele>80.1</ele>
        <time>2016-06-16T06:59:20Z</time>
      </trkpt>
      <trkpt lat="47.61736" lon="0.47688">
        <ele>80.8</ele>
        <time>2016-06-16T06:59:29Z</time>
      </trkpt>
      <trkpt lat="47.6174" lon="0.47676">
        <ele>81</ele>
        <time>2016-06-16T06:59:37Z</time>
      </trkpt>
      <trkpt lat="47.61747" lon="0.47663">
        <ele>81.8</ele>
        <time>2016-06-16T06:59:47Z</time>
      </trkpt>
      <trkpt lat="47.61752" lon="0.47652">
        <ele>82.5</ele>
        <time>2016-06-16T06:59:56Z</time>
      </trkpt>
      <trkpt lat="47.61758" lon="0.47641">
        <ele>83.1</ele>
        <time>2016-06-16T07:00:06Z</time>
      </trkpt>
      <trkpt lat="47.61764" lon="0.4763">
        <ele>84.8</ele>
        <time>2016-06-16T07:00:16Z</time>
      </trkpt>
      <trkpt lat="47.6177" lon="0.4762">
        <ele>85</ele>
        <time>2016-06-16T07:00:24Z</time>
      </trkpt>
      <trkpt lat="47.61778" lon="0.4761">
        <ele>86.2</ele>
        <time>2016-06-16T07:00:33Z</time>
      </trkpt>
      <trkpt lat="47.61784" lon="0.476">
        <ele>87</ele>
        <time>2016-06-16T07:00:44Z</time>
      </trkpt>
      <trkpt lat="47.61789" lon="0.47588">
        <ele>87.9</ele>
        <time>2016-06-16T07:00:52Z</time>
      </trkpt>
      <trkpt lat="47.61796" lon="0.4758">
        <ele>88.9</ele>
        <time>2016-06-16T07:01:02Z</time>
      </trkpt>
      <trkpt lat="47.61802" lon="0.47569">
        <ele>89.3</ele>
        <time>2016-06-16T07:01:11Z</time>
      </trkpt>
      <trkpt lat="47.61813" lon="0.47567">
        <ele>90.2</ele>
        <time>2016-06-16T07:01:20Z</time>
      </trkpt>
      <trkpt lat="47.61822" lon="0.4757">
        <ele>91</ele>
        <time>2016-06-16T07:01:29Z</time>
      </trkpt>
      <trkpt lat="47.6183" lon="0.47576">
        <ele>92</ele>
        <time>2016-06-16T07:01:39Z</time>
      </trkpt>
      <trkpt lat="47.61838" lon="0.47585">
        <ele>92.7</ele>
        <time>2016-06-16T07:01:50Z</time>
      </trkpt>
      <trkpt lat="47.61847" lon="0.4759">
        <ele>93</ele>
        <time>2016-06-16T07:01:58Z</time>
      </trkpt>
      <trkpt lat="47.61854" lon="0.47598">
        <ele>94.1</ele>
        <time>2016-06-16T07:02:08Z</time>
      </trkpt>
      <trkpt lat="47.61864" lon="0.47601">
        <ele>94.6</ele>
        <time>2016-06-16T07:02:17Z</time>
      </trkpt>
      <trkpt lat="47.61873" lon="0.47607">
        <ele>95.1</ele>
        <time>2016-06-16T07:02:25Z</time>
      </trkpt>
      <trkpt lat="47.61879" lon="0.47619">
        <ele>96.2</ele>
        <time>2016-06-16T07:02:34Z</time>
      </trkpt>
      <trkpt lat="47.61889" lon="0.47619">
        <ele>96.8</ele>
        <time>2016-06-16T07:05:59Z</time>
      </trkpt>
      <trkpt lat="47.61898" lon="0.47622">
        <ele>97.2</ele>
        <time>2016-06-16T07:06:08Z</time>
      </trkpt>
      <trkpt lat="47.61909" lon="0.47621">
        <ele>98.5</ele>
        <time>2016-06-16T07:06:16Z</time>
      </trkpt>
      <trkpt lat="47.61918" lon="0.47623">
        <ele>98.7</ele>
        <time>2016-06-16T07:06:24Z</time>
      </trkpt>
      <trkpt lat="47.61927" lon="0.47623">
        <ele>99.8</ele>
        <time>2016-06-16T07:06:32Z</time>
      </trkpt>
      <trkpt lat="47.61936" lon="0.47625">
        <ele>100.7</ele>
        <time>2016-06-16T07:06:40Z</time>
      </trkpt>
      <trkpt lat="47.61945" lon="0.47625">
        <ele>101</ele>
        <time>2016-06-16T07:06:48Z</time>
      </trkpt>
      <trkpt lat="47.61955" lon="0.47624">
        <ele>100.2</ele>
        <time>2016-06-16T07:06:57Z</time>
      </trkpt>
      <trkpt lat="47.61964" lon="0.47624">
        <ele>99.2</ele>
        <time>2016-06-16T07:07:05Z</time>
      </trkpt>
      <trkpt lat="47.61974" lon="0.4762">
        <ele>98.9</ele>
        <time>2016-06-16T07:07:14Z</time>
      </trkpt>
      <trkpt lat="47.61984" lon="0.47619">
        <ele>98.8</ele>
        <time>2016-06-16T07:07:23Z</time>
      </trkpt>
      <trkpt lat="47.61994" lon="0.47617">
        <ele>98.3</ele>
        <time>2016-06-16T07:07:31Z</time>
      </trkpt>
      <trkpt lat="47.62003" lon="0.47619">
        <ele>97.8</ele>
        <time>2016-06-16T07:07:39Z</time>
      </trkpt>
      <trkpt lat="47.62012" lon="0.47619">
        <ele>98.1</ele>
        <time>2016-06-16T07:07:50Z</time>
      </trkpt>
      <trkpt lat="47.62022" lon="0.4762">
        <ele>97.7</ele>
        <time>2016-06-16T07:07:59Z</time>
      </trkpt>
      <trkpt lat="47.62031" lon="0.47621">
        <ele>97.4</ele>
        <time>2016-06-16T07:08:07Z</time>
      </trkpt>
      <trkpt lat="47.6204" lon="0.47624">
        <ele>97.8</ele>
        <time>2016-06-16T07:08:15Z</time>
      </trkpt>
      <trkpt lat="47.6205" lon="0.47627">
        <ele>97.2</ele>
        <time>2016-06-16T07:08:23Z</time>
      </trkpt>
      <trkpt lat="47.62057" lon="0.47619">
        <ele>97.5</ele>
        <time>2016-06-16T07:10:11Z</time>
      </trkpt>
      <trkpt lat="47.62061" lon="0.47606">
        <ele>98.5</ele>
        <time>2016-06-16T07:10:20Z</time>
      </trkpt>
      <trkpt lat="47.62065" lon="0.47592">
        <ele>99.2</ele>
        <time>2016-06-16T07:10:30Z</time>
      </trkpt>
      <trkpt lat="47.62068" lon="0.47579">
        <ele>99.7</ele>
        <time>2016-06-16T07:10:39Z</time>
      </trkpt>
      <trkpt lat="47.62072" lon="0.47567">
        <ele>100.3</ele>
        <time>2016-06-16T07:10:48Z</time>
      </trkpt>
      <trkpt lat="47.62077" lon="0.47555">
        <ele>101.2</ele>
        <time>2016-06-16T07:10:59Z</time>
      </trkpt>
      <trkpt lat="47.62084" lon="0.47545">
        <ele>101.2</ele>
        <time>2016-06-16T07:11:09Z</time>
      </trkpt>
      <trkpt lat="47.62092" lon="0.47539">
        <ele>101.4</ele>
        <time>2016-06-16T07:11:19Z</time>
      </trkpt>
      <trkpt lat="47.62099" lon="0.47528">
        <ele>100.9</ele>
        <time>2016-06-16T07:11:28Z</time>
      </trkpt>
      <trkpt lat="47.62106" lon="0.47519">
        <ele>100.9</ele>
        <time>2016-06-16T07:11:38Z</time>
      </trkpt>
      <trkpt lat="47.62113" lon="0.47508">
        <ele>100.3</ele>
        <time>2016-06-16T07:11:48Z</time>
      </trkpt>
      <trkpt lat="47.6212" lon="0.47498">
        <ele>99.5</ele>
        <time>2016-06-16T07:11:57Z</time>
      </trkpt>
      <trkpt lat="47.62128" lon="0.4749">
        <ele>98.3</ele>
        <time>2016-06-16T07:12:06Z</time>
      </trkpt>
      <trkpt lat="47.62136" lon="0.47482">
        <ele>97.6</ele>
        <time>2016-06-16T07:12:14Z</time>
      </trkpt>
      <trkpt lat="47.62143" lon="0.47473">
        <ele>96.1</ele>
        <time>2016-06-16T07:12:22Z</time>
      </trkpt>
      <trkpt lat="47.6215" lon="0.47465">
        <ele>95.9</ele>
        <time>2016-06-16T07:12:30Z</time>
      </trkpt>
      <trkpt lat="47.62157" lon="0.47456">
        <ele>95.5</ele>
        <time>2016-06-16T07:12:38Z</time>
      </trkpt>
      <trkpt lat="47.62165" lon="0.47448">
        <ele>94.6</ele>
        <time>2016-06-16T07:12:46Z</time>
      </trkpt>
      <trkpt lat="47.62173" lon="0.47439">
        <ele>94.1</ele>
        <time>2016-06-16T07:12:55Z</time>
      </trkpt>
      <trkpt lat="47.62181" lon="0.47432">
        <ele>93</ele>
        <time>2016-06-16T07:13:05Z</time>
      </trkpt>
      <trkpt lat="47.62189" lon="0.47426">
        <ele>92.1</ele>
        <time>2016-06-16T07:13:12Z</time>
      </trkpt>
      <trkpt lat="47.62199" lon="0.47422">
        <ele>91.9</ele>
        <time>2016-06-16T07:13:20Z</time>
      </trkpt>
      <trkpt lat="47.62207" lon="0.47415">
        <ele>91</ele>
        <time>2016-06-16T07:13:28Z</time>
      </trkpt>
      <trkpt lat="47.62216" lon="0.47407">
        <ele>90.2</ele>
        <time>2016-06-16T07:13:37Z</time>
      </trkpt>
      <trkpt lat="47.62222" lon="0.47396">
        <ele>89.5</ele>
        <time>2016-06-16T07:13:45Z</time>
      </trkpt>
      <trkpt lat="47.62227" lon="0.47384">
        <ele>89</ele>
        <time>2016-06-16T07:13:53Z</time>
      </trkpt>
      <trkpt lat="47.62232" lon="0.47371">
        <ele>86.7</ele>
        <time>2016-06-16T07:14:01Z</time>
      </trkpt>
      <trkpt lat="47.62236" lon="0.47359">
        <ele>84.9</ele>
        <time>2016-06-16T07:14:10Z</time>
      </trkpt>
      <trkpt lat="47.62242" lon="0.47347">
        <ele>83.5</ele>
        <time>2016-06-16T07:14:19Z</time>
      </trkpt>
      <trkpt lat="47.62249" lon="0.47338">
        <ele>82.2</ele>
        <time>2016-06-16T07:14:27Z</time>
      </trkpt>
      <trkpt lat="47.62256" lon="0.47328">
        <ele>81</ele>
        <time>2016-06-16T07:14:35Z</time>
      </trkpt>
      <trkpt lat="47.62263" lon="0.47317">
        <ele>79.5</ele>
        <time>2016-06-16T07:14:43Z</time>
      </trkpt>
      <trkpt lat="47.62269" lon="0.47307">
        <ele>78.1</ele>
        <time>2016-06-16T07:14:51Z</time>
      </trkpt>
      <trkpt lat="47.62275" lon="0.47296">
        <ele>77.7</ele>
        <time>2016-06-16T07:15:01Z</time>
      </trkpt>
      <trkpt lat="47.62282" lon="0.47287">
        <ele>76.5</ele>
        <time>2016-06-16T07:15:27Z</time>
      </trkpt>
      <trkpt lat="47.62292" lon="0.47283">
        <ele>75.8</ele>
        <time>2016-06-16T07:15:35Z</time>
      </trkpt>
      <trkpt lat="47.62302" lon="0.47279">
        <ele>75.8</ele>
        <time>2016-06-16T07:15:43Z</time>
      </trkpt>
      <trkpt lat="47.62311" lon="0.47277">
        <ele>76</ele>
        <time>2016-06-16T07:15:50Z</time>
      </trkpt>
      <trkpt lat="47.62321" lon="0.47275">
        <ele>74.9</ele>
        <time>2016-06-16T07:15:58Z</time>
      </trkpt>
      <trkpt lat="47.62329" lon="0.47269">
        <ele>75.5</ele>
        <time>2016-06-16T07:16:07Z</time>
      </trkpt>
      <trkpt lat="47.62338" lon="0.47268">
        <ele>75.9</ele>
        <time>2016-06-16T07:16:15Z</time>
      </trkpt>
      <trkpt lat="47.62348" lon="0.47267">
        <ele>76.2</ele>
        <time>2016-06-16T07:16:24Z</time>
      </trkpt>
      <trkpt lat="47.62358" lon="0.47265">
        <ele>77.8</ele>
        <time>2016-06-16T07:16:33Z</time>
      </trkpt>
      <trkpt lat="47.62367" lon="0.47262">
        <ele>78.1</ele>
        <time>2016-06-16T07:16:41Z</time>
      </trkpt>
      <trkpt lat="47.62377" lon="0.4726">
        <ele>79.3</ele>
        <time>2016-06-16T07:16:49Z</time>
      </trkpt>
      <trkpt lat="47.62387" lon="0.47257">
        <ele>79.1</ele>
        <time>2016-06-16T07:16:57Z</time>
      </trkpt>
      <trkpt lat="47.62397" lon="0.47255">
        <ele>80.8</ele>
        <time>2016-06-16T07:17:06Z</time>
      </trkpt>
      <trkpt lat="47.62407" lon="0.47251">
        <ele>80.9</ele>
        <time>2016-06-16T07:17:14Z</time>
      </trkpt>
      <trkpt lat="47.62417" lon="0.4725">
        <ele>82.8</ele>
        <time>2016-06-16T07:17:22Z</time>
      </trkpt>
      <trkpt lat="47.62427" lon="0.47247">
        <ele>82.9</ele>
        <time>2016-06-16T07:17:31Z</time>
      </trkpt>
      <trkpt lat="47.62436" lon="0.47245">
        <ele>83.5</ele>
        <time>2016-06-16T07:17:40Z</time>
      </trkpt>
      <trkpt lat="47.62445" lon="0.47245">
        <ele>83.8</ele>
        <time>2016-06-16T07:17:51Z</time>
      </trkpt>
      <trkpt lat="47.62455" lon="0.47242">
        <ele>84</ele>
        <time>2016-06-16T07:17:59Z</time>
      </trkpt>
      <trkpt lat="47.62464" lon="0.47237">
        <ele>82.9</ele>
        <time>2016-06-16T07:18:07Z</time>
      </trkpt>
      <trkpt lat="47.62472" lon="0.47232">
        <ele>82.9</ele>
        <time>2016-06-16T07:18:15Z</time>
      </trkpt>
      <trkpt lat="47.62482" lon="0.4723">
        <ele>82.4</ele>
        <time>2016-06-16T07:18:23Z</time>
      </trkpt>
      <trkpt lat="47.62491" lon="0.47224">
        <ele>82.3</ele>
        <time>2016-06-16T07:18:32Z</time>
      </trkpt>
      <trkpt lat="47.62499" lon="0.47218">
        <ele>81.9</ele>
        <time>2016-06-16T07:18:41Z</time>
      </trkpt>
      <trkpt lat="47.62509" lon="0.47214">
        <ele>82.8</ele>
        <time>2016-06-16T07:18:49Z</time>
      </trkpt>
      <trkpt lat="47.62518" lon="0.4721">
        <ele>81.9</ele>
        <time>2016-06-16T07:18:57Z</time>
      </trkpt>
      <trkpt lat="47.62527" lon="0.47205">
        <ele>82.3</ele>
        <time>2016-06-16T07:19:06Z</time>
      </trkpt>
      <trkpt lat="47.62535" lon="0.47199">
        <ele>83</ele>
        <time>2016-06-16T07:21:13Z</time>
      </trkpt>
      <trkpt lat="47.62543" lon="0.47189">
        <ele>83.8</ele>
        <time>2016-06-16T07:21:23Z</time>
      </trkpt>
      <trkpt lat="47.62548" lon="0.47179">
        <ele>85</ele>
        <time>2016-06-16T07:21:39Z</time>
      </trkpt>
      <trkpt lat="47.62555" lon="0.47169">
        <ele>86</ele>
        <time>2016-06-16T07:21:49Z</time>
      </trkpt>
      <trkpt lat="47.62561" lon="0.47157">
        <ele>86.3</ele>
        <time>2016-06-16T07:21:58Z</time>
      </trkpt>
      <trkpt lat="47.62568" lon="0.47147">
        <ele>87.8</ele>
        <time>2016-06-16T07:22:07Z</time>
      </trkpt>
      <trkpt lat="47.62577" lon="0.47141">
        <ele>88.9</ele>
        <time>2016-06-16T07:22:17Z</time>
      </trkpt>
      <trkpt lat="47.62587" lon="0.47138">
        <ele>90.3</ele>
        <time>2016-06-16T07:22:28Z</time>
      </trkpt>
      <trkpt lat="47.62596" lon="0.47135">
        <ele>91.1</ele>
        <time>2016-06-16T07:22:36Z</time>
      </trkpt>
      <trkpt lat="47.62605" lon="0.47134">
        <ele>92.9</ele>
        <time>2016-06-16T07:22:45Z</time>
      </trkpt>
      <trkpt lat="47.62614" lon="0.47131">
        <ele>93.7</ele>
        <time>2016-06-16T07:22:54Z</time>
      </trkpt>
      <trkpt lat="47.62623" lon="0.47129">
        <ele>95.2</ele>
        <time>2016-06-16T07:23:04Z</time>
      </trkpt>
      <trkpt lat="47.62633" lon="0.47128">
        <ele>96.6</ele>
        <time>2016-06-16T07:23:14Z</time>
      </trkpt>
      <trkpt lat="47.62643" lon="0.47128">
        <ele>97.8</ele>
        <time>2016-06-16T07:23:24Z</time>
      </trkpt>
      <trkpt lat="47.62652" lon="0.47131">
        <ele>98.1</ele>
        <time>2016-06-16T07:23:42Z</time>
      </trkpt>
      <trkpt lat="47.62662" lon="0.47132">
        <ele>99.4</ele>
        <time>2016-06-16T07:23:50Z</time>
      </trkpt>
      <trkpt lat="47.62672" lon="0.47132">
        <ele>99.2</ele>
        <time>2016-06-16T07:23:59Z</time>
      </trkpt>
      <trkpt lat="47.62682" lon="0.47135">
        <ele>98.9</ele>
        <time>2016-06-16T07:24:08Z</time>
      </trkpt>
      <trkpt lat="47.62688" lon="0.47124">
        <ele>97.7</ele>
        <time>2016-06-16T07:25:13Z</time>
      </trkpt>
      <trkpt lat="47.62688" lon="0.4711">
        <ele>98</ele>
        <time>2016-06-16T07:25:23Z</time>
      </trkpt>
      <trkpt lat="47.62687" lon="0.47097">
        <ele>97.9</ele>
        <time>2016-06-16T07:25:31Z</time>
      </trkpt>
      <trkpt lat="47.62686" lon="0.47082">
        <ele>98.5</ele>
        <time>2016-06-16T07:25:39Z</time>
      </trkpt>
      <trkpt lat="47.62686" lon="0.47067">
        <ele>98.5</ele>
        <time>2016-06-16T07:25:48Z</time>
      </trkpt>
      <trkpt lat="47.62686" lon="0.47054">
        <ele>98.1</ele>
        <time>2016-06-16T07:25:56Z</time>
      </trkpt>
      <trkpt lat="47.62687" lon="0.47039">
        <ele>98.3</ele>
        <time>2016-06-16T07:26:05Z</time>
      </trkpt>
      <trkpt lat="47.62685" lon="0.47025">
        <ele>98.1</ele>
        <time>2016-06-16T07:26:16Z</time>
      </trkpt>
      <trkpt lat="47.62684" lon="0.47011">
        <ele>99.3</ele>
        <time>2016-06-16T07:27:11Z</time>
      </trkpt>
      <trkpt lat="47.62681" lon="0.46997">
        <ele>100.2</ele>
        <time>2016-06-16T07:27:48Z</time>
      </trkpt>
      <trkpt lat="47.62677" lon="0.46985">
        <ele>99.9</ele>
        <time>2016-06-16T07:27:56Z</time>
      </trkpt>
      <trkpt lat="47.62676" lon="0.46971">
        <ele>99.4</ele>
        <time>2016-06-16T07:28:04Z</time>
      </trkpt>
      <trkpt lat="47.62674" lon="0.46956">
        <ele>100.1</ele>
        <time>2016-06-16T07:28:13Z</time>
      </trkpt>
      <trkpt lat="47.62672" lon="0.46942">
        <ele>99.7</ele>
        <time>2016-06-16T07:28:21Z</time>
      </trkpt>
      <trkpt lat="47.62672" lon="0.46929">
        <ele>99.9</ele>
        <time>2016-06-16T07:28:29Z</time>
      </trkpt>
      <trkpt lat="47.62671" lon="0.46915">
        <ele>99.8</ele>
        <time>2016-06-16T07:28:38Z</time>
      </trkpt>
      <trkpt lat="47.6267" lon="0.46901">
        <ele>100.4</ele>
        <time>2016-06-16T07:28:47Z</time>
      </trkpt>
      <trkpt lat="47.62669" lon="0.46887">
        <ele>100.5</ele>
        <time>2016-06-16T07:28:56Z</time>
      </trkpt>
      <trkpt lat="47.62666" lon="0.46874">
        <ele>99.9</ele>
        <time>2016-06-16T07:29:04Z</time>
      </trkpt>
      <trkpt lat="47.62665" lon="0.4686">
        <ele>99.4</ele>
        <time>2016-06-16T07:29:12Z</time>
      </trkpt>
      <trkpt lat="47.62663" lon="0.46845">
        <ele>99.5</ele>
        <time>2016-06-16T07:29:21Z</time>
      </trkpt>
      <trkpt lat="47.6266" lon="0.46833">
        <ele>100.7</ele>
        <time>2016-06-16T07:29:29Z</time>
      </trkpt>
      <trkpt lat="47.62656" lon="0.4682">
        <ele>100.7</ele>
        <time>2016-06-16T07:29:37Z</time>
      </trkpt>
      <trkpt lat="47.62651" lon="0.46807">
        <ele>100.4</ele>
        <time>2016-06-16T07:29:45Z</time>
      </trkpt>
      <trkpt lat="47.62646" lon="0.46795">
        <ele>101</ele>
        <time>2016-06-16T07:29:53Z</time>
      </trkpt>
      <trkpt lat="47.62643" lon="0.46783">
        <ele>100.7</ele>
        <time>2016-06-16T07:30:01Z</time>
      </trkpt>
      <trkpt lat="47.62637" lon="0.4677">
        <ele>100.8</ele>
        <time>2016-06-16T07:30:10Z</time>
      </trkpt>
      <trkpt lat="47.62632" lon="0.46758">
        <ele>100.7</ele>
        <time>2016-06-16T07:30:18Z</time>
      </trkpt>
      <trkpt lat="47.62628" lon="0.46745">
        <ele>100.9</ele>
        <time>2016-06-16T07:30:26Z</time>
      </trkpt>
      <trkpt lat="47.62625" lon="0.46733">
        <ele>101.1</ele>
        <time>2016-06-16T07:30:34Z</time>
      </trkpt>
      <trkpt lat="47.62622" lon="0.4672">
        <ele>101.1</ele>
        <time>2016-06-16T07:30:42Z</time>
      </trkpt>
      <trkpt lat="47.62618" lon="0.46708">
        <ele>101.6</ele>
        <time>2016-06-16T07:30:50Z</time>
      </trkpt>
      <trkpt lat="47.62614" lon="0.46695">
        <ele>101.6</ele>
        <time>2016-06-16T07:30:58Z</time>
      </trkpt>
      <trkpt lat="47.6261" lon="0.46682">
        <ele>101.9</ele>
        <time>2016-06-16T07:31:07Z</time>
      </trkpt>
      <trkpt lat="47.6262" lon="0.4668">
        <ele>100.1</ele>
        <time>2016-06-16T07:31:40Z</time>
      </trkpt>
      <trkpt lat="47.62629" lon="0.46676">
        <ele>99.3</ele>
        <time>2016-06-16T07:31:48Z</time>
      </trkpt>
      <trkpt lat="47.62639" lon="0.46674">
        <ele>98.4</ele>
        <time>2016-06-16T07:31:57Z</time>
      </trkpt>
      <trkpt lat="47.62648" lon="0.4667">
        <ele>98.2</ele>
        <time>2016-06-16T07:32:04Z</time>
      </trkpt>
      <trkpt lat="47.62657" lon="0.46667">
        <ele>96.6</ele>
        <time>2016-06-16T07:32:12Z</time>
      </trkpt>
      <trkpt lat="47.62666" lon="0.46661">
        <ele>96.5</ele>
        <time>2016-06-16T07:32:20Z</time>
      </trkpt>
      <trkpt lat="47.62674" lon="0.46654">
        <ele>95.5</ele>
        <time>2016-06-16T07:32:28Z</time>
      </trkpt>
      <trkpt lat="47.62681" lon="0.46644">
        <ele>95.7</ele>
        <time>2016-06-16T07:32:35Z</time>
      </trkpt>
      <trkpt lat="47.62688" lon="0.46634">
        <ele>95.5</ele>
        <time>2016-06-16T07:33:21Z</time>
      </trkpt>
      <trkpt lat="47.62696" lon="0.46627">
        <ele>95.1</ele>
        <time>2016-06-16T07:33:30Z</time>
      </trkpt>
      <trkpt lat="47.62704" lon="0.46621">
        <ele>95.1</ele>
        <time>2016-06-16T07:33:40Z</time>
      </trkpt>
      <trkpt lat="47.62712" lon="0.46615">
        <ele>93.3</ele>
        <time>2016-06-16T07:33:53Z</time>
      </trkpt>
      <trkpt lat="47.62722" lon="0.46609">
        <ele>92.4</ele>
        <time>2016-06-16T07:34:08Z</time>
      </trkpt>
      <trkpt lat="47.62731" lon="0.46607">
        <ele>91.2</ele>
        <time>2016-06-16T07:34:16Z</time>
      </trkpt>
      <trkpt lat="47.6274" lon="0.46602">
        <ele>89.4</ele>
        <time>2016-06-16T07:35:04Z</time>
      </trkpt>
      <trkpt lat="47.62749" lon="0.46599">
        <ele>88.5</ele>
        <time>2016-06-16T07:35:13Z</time>
      </trkpt>
      <trkpt lat="47.62759" lon="0.46597">
        <ele>87.4</ele>
        <time>2016-06-16T07:35:21Z</time>
      </trkpt>
      <trkpt lat="47.62768" lon="0.46593">
        <ele>86.6</ele>
        <time>2016-06-16T07:35:29Z</time>
      </trkpt>
      <trkpt lat="47.62778" lon="0.4659">
        <ele>85.5</ele>
        <time>2016-06-16T07:35:37Z</time>
      </trkpt>
      <trkpt lat="47.62787" lon="0.46586">
        <ele>85</ele>
        <time>2016-06-16T07:35:45Z</time>
      </trkpt>
      <trkpt lat="47.62797" lon="0.46585">
        <ele>84.6</ele>
        <time>2016-06-16T07:36:02Z</time>
      </trkpt>
      <trkpt lat="47.62806" lon="0.46582">
        <ele>83.9</ele>
        <time>2016-06-16T07:36:11Z</time>
      </trkpt>
      <trkpt lat="47.62816" lon="0.46582">
        <ele>83.8</ele>
        <time>2016-06-16T07:36:20Z</time>
      </trkpt>
      <trkpt lat="47.62826" lon="0.4658">
        <ele>83.4</ele>
        <time>2016-06-16T07:36:29Z</time>
      </trkpt>
      <trkpt lat="47.62835" lon="0.46585">
        <ele>83.3</ele>
        <time>2016-06-16T07:36:42Z</time>
      </trkpt>
      <trkpt lat="47.62836" lon="0.46598">
        <ele>82.9</ele>
        <time>2016-06-16T07:36:51Z</time>
      </trkpt>
      <trkpt lat="47.62839" lon="0.46612">
        <ele>82.9</ele>
        <time>2016-06-16T07:36:59Z</time>
      </trkpt>
      <trkpt lat="47.62841" lon="0.46626">
        <ele>82.8</ele>
        <time>2016-06-16T07:37:08Z</time>
      </trkpt>
      <trkpt lat="47.62843" lon="0.46641">
        <ele>82.9</ele>
        <time>2016-06-16T07:37:16Z</time>
      </trkpt>
      <trkpt lat="47.62844" lon="0.46654">
        <ele>82.8</ele>
        <time>2016-06-16T07:37:23Z</time>
      </trkpt>
      <trkpt lat="47.62846" lon="0.46669">
        <ele>82.7</ele>
        <time>2016-06-16T07:37:31Z</time>
      </trkpt>
      <trkpt lat="47.62847" lon="0.46683">
        <ele>82.2</ele>
        <time>2016-06-16T07:37:39Z</time>
      </trkpt>
      <trkpt lat="47.62849" lon="0.46698">
        <ele>82.3</ele>
        <time>2016-06-16T07:37:47Z</time>
      </trkpt>
      <trkpt lat="47.62851" lon="0.46712">
        <ele>82.1</ele>
        <time>2016-06-16T07:37:55Z</time>
      </trkpt>
      <trkpt lat="47.62854" lon="0.46725">
        <ele>81.7</ele>
        <time>2016-06-16T07:38:03Z</time>
      </trkpt>
      <trkpt lat="47.62856" lon="0.46739">
        <ele>81.9</ele>
        <time>2016-06-16T07:38:11Z</time>
      </trkpt>
      <trkpt lat="47.62859" lon="0.46753">
        <ele>81.6</ele>
        <time>2016-06-16T07:38:19Z</time>
      </trkpt>
      <trkpt lat="47.62861" lon="0.46768">
        <ele>81.7</ele>
        <time>2016-06-16T07:38:27Z</time>
      </trkpt>
      <trkpt lat="47.62865" lon="0.46781">
        <ele>80.9</ele>
        <time>2016-06-16T07:38:35Z</time>
      </trkpt>
      <trkpt lat="47.62869" lon="0.46793">
        <ele>81</ele>
        <time>2016-06-16T07:38:43Z</time>
      </trkpt>
      <trkpt lat="47.62873" lon="0.46806">
        <ele>81.2</ele>
        <time>2016-06-16T07:38:50Z</time>
      </trkpt>
      <trkpt lat="47.62877" lon="0.46818">
        <ele>80.7</ele>
        <time>2016-06-16T07:38:57Z</time>
      </trkpt>
      <trkpt lat="47.62882" lon="0.4683">
        <ele>79.5</ele>
        <time>2016-06-16T07:39:04Z</time>
      </trkpt>
      <trkpt lat="47.62887" lon="0.46844">
        <ele>79.2</ele>
        <time>2016-06-16T07:39:12Z</time>
      </trkpt>
      <trkpt lat="47.62891" lon="0.46857">
        <ele>79.6</ele>
        <time>2016-06-16T07:39:20Z</time>
      </trkpt>
      <trkpt lat="47.62895" lon="0.4687">
        <ele>79.9</ele>
        <time>2016-06-16T07:39:28Z</time>
      </trkpt>
      <trkpt lat="47.62899" lon="0.46884">
        <ele>80.1</ele>
        <time>2016-06-16T07:39:36Z</time>
      </trkpt>
      <trkpt lat="47.62904" lon="0.46898">
        <ele>79.3</ele>
        <time>2016-06-16T07:39:44Z</time>
      </trkpt>
      <trkpt lat="47.62906" lon="0.46911">
        <ele>79.3</ele>
        <time>2016-06-16T07:39:52Z</time>
      </trkpt>
      <trkpt lat="47.62909" lon="0.46925">
        <ele>79.9</ele>
        <time>2016-06-16T07:40:00Z</time>
      </trkpt>
      <trkpt lat="47.62913" lon="0.46938">
        <ele>80</ele>
        <time>2016-06-16T07:40:07Z</time>
      </trkpt>
      <trkpt lat="47.62916" lon="0.46951">
        <ele>80.1</ele>
        <time>2016-06-16T07:40:15Z</time>
      </trkpt>
      <trkpt lat="47.6292" lon="0.46964">
        <ele>79.7</ele>
        <time>2016-06-16T07:40:23Z</time>
      </trkpt>
      <trkpt lat="47.62925" lon="0.46976">
        <ele>81</ele>
        <time>2016-06-16T07:40:31Z</time>
      </trkpt>
      <trkpt lat="47.6293" lon="0.46988">
        <ele>81.6</ele>
        <time>2016-06-16T07:40:39Z</time>
      </trkpt>
      <trkpt lat="47.62935" lon="0.46999">
        <ele>80.8</ele>
        <time>2016-06-16T07:41:13Z</time>
      </trkpt>
      <trkpt lat="47.62939" lon="0.47012">
        <ele>79.8</ele>
        <time>2016-06-16T07:41:22Z</time>
      </trkpt>
      <trkpt lat="47.62944" lon="0.47026">
        <ele>78.7</ele>
        <time>2016-06-16T07:41:30Z</time>
      </trkpt>
      <trkpt lat="47.62946" lon="0.4704">
        <ele>77.9</ele>
        <time>2016-06-16T07:41:37Z</time>
      </trkpt>
      <trkpt lat="47.62947" lon="0.47054">
        <ele>77.7</ele>
        <time>2016-06-16T07:41:45Z</time>
      </trkpt>
      <trkpt lat="47.62949" lon="0.47068">
        <ele>77.3</ele>
        <time>2016-06-16T07:41:52Z</time>
      </trkpt>
      <trkpt lat="47.62953" lon="0.47081">
        <ele>76.8</ele>
        <time>2016-06-16T07:42:00Z</time>
      </trkpt>
      <trkpt lat="47.62957" lon="0.47095">
        <ele>76.1</ele>
        <time>2016-06-16T07:42:08Z</time>
      </trkpt>
      <trkpt lat="47.62962" lon="0.47106">
        <ele>75.7</ele>
        <time>2016-06-16T07:42:15Z</time>
      </trkpt>
      <trkpt lat="47.62967" lon="0.47119">
        <ele>74.6</ele>
        <time>2016-06-16T07:42:23Z</time>
      </trkpt>
      <trkpt lat="47.62972" lon="0.4713">
        <ele>73.9</ele>
        <time>2016-06-16T07:42:30Z</time>
      </trkpt>
      <trkpt lat="47.62976" lon="0.47142">
        <ele>74.3</ele>
        <time>2016-06-16T07:42:38Z</time>
      </trkpt>
      <trkpt lat="47.62981" lon="0.47154">
        <ele>73.8</ele>
        <time>2016-06-16T07:42:47Z</time>
      </trkpt>
      <trkpt lat="47.62987" lon="0.47165">
        <ele>73.2</ele>
        <time>2016-06-16T07:43:14Z</time>
      </trkpt>
      <trkpt lat="47.62991" lon="0.47178">
        <ele>73.4</ele>
        <time>2016-06-16T07:43:34Z</time>
      </trkpt>
      <trkpt lat="47.62995" lon="0.4719">
        <ele>73.4</ele>
        <time>2016-06-16T07:43:44Z</time>
      </trkpt>
      <trkpt lat="47.62999" lon="0.47203">
        <ele>73.5</ele>
        <time>2016-06-16T07:43:57Z</time>
      </trkpt>
      <trkpt lat="47.63003" lon="0.47215">
        <ele>73</ele>
        <time>2016-06-16T07:44:17Z</time>
      </trkpt>
      <trkpt lat="47.63004" lon="0.47229">
        <ele>73.1</ele>
        <time>2016-06-16T07:44:57Z</time>
      </trkpt>
      <trkpt lat="47.63005" lon="0.47242">
        <ele>73.1</ele>
        <time>2016-06-16T07:45:13Z</time>
      </trkpt>
      <trkpt lat="47.63005" lon="0.47257">
        <ele>72.9</ele>
        <time>2016-06-16T07:45:30Z</time>
      </trkpt>
      <trkpt lat="47.63006" lon="0.47271">
        <ele>73.2</ele>
        <time>2016-06-16T07:45:40Z</time>
      </trkpt>
      <trkpt lat="47.63007" lon="0.47285">
        <ele>73</ele>
        <time>2016-06-16T07:45:49Z</time>
      </trkpt>
      <trkpt lat="47.63012" lon="0.47297">
        <ele>72.8</ele>
        <time>2016-06-16T07:45:58Z</time>
      </trkpt>
      <trkpt lat="47.63014" lon="0.47311">
        <ele>73.2</ele>
        <time>2016-06-16T07:46:06Z</time>
      </trkpt>
      <trkpt lat="47.6302" lon="0.47322">
        <ele>73.9</ele>
        <time>2016-06-16T07:46:14Z</time>
      </trkpt>
      <trkpt lat="47.63023" lon="0.47335">
        <ele>75</ele>
        <time>2016-06-16T07:46:23Z</time>
      </trkpt>
      <trkpt lat="47.63028" lon="0.47348">
        <ele>75.8</ele>
        <time>2016-06-16T07:46:32Z</time>
      </trkpt>
      <trkpt lat="47.63034" lon="0.47358">
        <ele>75.7</ele>
        <time>2016-06-16T07:46:40Z</time>
      </trkpt>
      <trkpt lat="47.63039" lon="0.4737">
        <ele>76.1</ele>
        <time>2016-06-16T07:46:48Z</time>
      </trkpt>
      <trkpt lat="47.63044" lon="0.47382">
        <ele>76.7</ele>
        <time>2016-06-16T07:46:57Z</time>
      </trkpt>
      <trkpt lat="47.63049" lon="0.47394">
        <ele>77.4</ele>
        <time>2016-06-16T07:47:06Z</time>
      </trkpt>
      <trkpt lat="47.63052" lon="0.47407">
        <ele>77.5</ele>
        <time>2016-06-16T07:47:14Z</time>
      </trkpt>
      <trkpt lat="47.63057" lon="0.4742">
        <ele>77.9</ele>
        <time>2016-06-16T07:47:22Z</time>
      </trkpt>
      <trkpt lat="47.63061" lon="0.47432">
        <ele>78.6</ele>
        <time>2016-06-16T07:47:31Z</time>
      </trkpt>
      <trkpt lat="47.63067" lon="0.47443">
        <ele>78.4</ele>
        <time>2016-06-16T07:47:40Z</time>
      </trkpt>
      <trkpt lat="47.63071" lon="0.47456">
        <ele>78.6</ele>
        <time>2016-06-16T07:47:48Z</time>
      </trkpt>
      <trkpt lat="47.63076" lon="0.4747">
        <ele>78.2</ele>
        <time>2016-06-16T07:47:57Z</time>
      </trkpt>
      <trkpt lat="47.63081" lon="0.47481">
        <ele>78.5</ele>
        <time>2016-06-16T07:48:06Z</time>
      </trkpt>
      <trkpt lat="47.63087" lon="0.47491">
        <ele>80.4</ele>
        <time>2016-06-16T07:48:17Z</time>
      </trkpt>
      <trkpt lat="47.63088" lon="0.47506">
        <ele>81.8</ele>
        <time>2016-06-16T07:48:28Z</time>
      </trkpt>
      <trkpt lat="47.63094" lon="0.47516">
        <ele>83.4</ele>
        <time>2016-06-16T07:48:38Z</time>
      </trkpt>
      <trkpt lat="47.63099" lon="0.47529">
        <ele>85.4</ele>
        <time>2016-06-16T07:48:48Z</time>
      </trkpt>
      <trkpt lat="47.631" lon="0.47543">
        <ele>85.5</ele>
        <time>2016-06-16T07:48:57Z</time>
      </trkpt>
      <trkpt lat="47.63102" lon="0.47556">
        <ele>86.2</ele>
        <time>2016-06-16T07:49:05Z</time>
      </trkpt>
      <trkpt lat="47.63106" lon="0.4757">
        <ele>87.5</ele>
        <time>2016-06-16T07:49:15Z</time>
      </trkpt>
      <trkpt lat="47.63115" lon="0.47571">
        <ele>88.4</ele>
        <time>2016-06-16T07:49:37Z</time>
      </trkpt>
      <trkpt lat="47.6312" lon="0.47559">
        <ele>88.2</ele>
        <time>2016-06-16T07:49:46Z</time>
      </trkpt>
      <trkpt lat="47.63125" lon="0.47547">
        <ele>89</ele>
        <time>2016-06-16T07:49:55Z</time>
      </trkpt>
      <trkpt lat="47.63129" lon="0.47534">
        <ele>89.8</ele>
        <time>2016-06-16T07:50:04Z</time>
      </trkpt>
      <trkpt lat="47.63134" lon="0.4752">
        <ele>90.8</ele>
        <time>2016-06-16T07:50:13Z</time>
      </trkpt>
      <trkpt lat="47.63136" lon="0.47508">
        <ele>91.2</ele>
        <time>2016-06-16T07:50:22Z</time>
      </trkpt>
      <trkpt lat="47.63137" lon="0.47493">
        <ele>91.6</ele>
        <time>2016-06-16T07:50:31Z</time>
      </trkpt>
      <trkpt lat="47.63136" lon="0.47479">
        <ele>92.5</ele>
        <time>2016-06-16T07:50:41Z</time>
      </trkpt>
      <trkpt lat="47.63135" lon="0.47465">
        <ele>93.1</ele>
        <time>2016-06-16T07:50:50Z</time>
      </trkpt>
      <trkpt lat="47.63135" lon="0.4745">
        <ele>93.5</ele>
        <time>2016-06-16T07:50:58Z</time>
      </trkpt>
      <trkpt lat="47.63133" lon="0.47436">
        <ele>93.6</ele>
        <time>2016-06-16T07:51:06Z</time>
      </trkpt>
      <trkpt lat="47.63132" lon="0.47422">
        <ele>94</ele>
        <time>2016-06-16T07:51:15Z</time>
      </trkpt>
      <trkpt lat="47.63132" lon="0.47408">
        <ele>94.7</ele>
        <time>2016-06-16T07:51:24Z</time>
      </trkpt>
      <trkpt lat="47.63131" lon="0.47395">
        <ele>95.3</ele>
        <time>2016-06-16T07:51:36Z</time>
      </trkpt>
      <trkpt lat="47.63134" lon="0.47381">
        <ele>95.7</ele>
        <time>2016-06-16T07:52:01Z</time>
      </trkpt>
      <trkpt lat="47.63135" lon="0.47366">
        <ele>96.1</ele>
        <time>2016-06-16T07:52:10Z</time>
      </trkpt>
      <trkpt lat="47.63135" lon="0.47352">
        <ele>97.1</ele>
        <time>2016-06-16T07:52:18Z</time>
      </trkpt>
      <trkpt lat="47.63137" lon="0.47337">
        <ele>97.5</ele>
        <time>2016-06-16T07:52:27Z</time>
      </trkpt>
      <trkpt lat="47.63138" lon="0.47323">
        <ele>97.3</ele>
        <time>2016-06-16T07:52:35Z</time>
      </trkpt>
      <trkpt lat="47.6314" lon="0.47309">
        <ele>97.4</ele>
        <time>2016-06-16T07:52:43Z</time>
      </trkpt>
      <trkpt lat="47.63141" lon="0.47295">
        <ele>98</ele>
        <time>2016-06-16T07:52:51Z</time>
      </trkpt>
      <trkpt lat="47.63143" lon="0.47282">
        <ele>98.1</ele>
        <time>2016-06-16T07:52:59Z</time>
      </trkpt>
      <trkpt lat="47.63144" lon="0.47268">
        <ele>97.8</ele>
        <time>2016-06-16T07:53:07Z</time>
      </trkpt>
      <trkpt lat="47.63147" lon="0.47254">
        <ele>98.2</ele>
        <time>2016-06-16T07:53:16Z</time>
      </trkpt>
      <trkpt lat="47.6315" lon="0.47241">
        <ele>98.1</ele>
        <time>2016-06-16T07:53:24Z</time>
      </trkpt>
      <trkpt lat="47.63154" lon="0.47228">
        <ele>99.6</ele>
        <time>2016-06-16T07:53:54Z</time>
      </trkpt>
      <trkpt lat="47.63155" lon="0.47215">
        <ele>99.5</ele>
        <time>2016-06-16T07:54:22Z</time>
      </trkpt>
      <trkpt lat="47.63157" lon="0.47201">
        <ele>99.6</ele>
        <time>2016-06-16T07:54:30Z</time>
      </trkpt>
      <trkpt lat="47.63157" lon="0.47187">
        <ele>100</ele>
        <time>2016-06-16T07:54:38Z</time>
      </trkpt>
      <trkpt lat="47.63156" lon="0.47173">
        <ele>100</ele>
        <time>2016-06-16T07:54:45Z</time>
      </trkpt>
      <trkpt lat="47.63154" lon="0.47159">
        <ele>99.9</ele>
        <time>2016-06-16T07:54:53Z</time>
      </trkpt>
      <trkpt lat="47.63151" lon="0.47146">
        <ele>99.8</ele>
        <time>2016-06-16T07:55:01Z</time>
      </trkpt>
      <trkpt lat="47.63149" lon="0.47132">
        <ele>100.3</ele>
        <time>2016-06-16T07:55:14Z</time>
      </trkpt>
      <trkpt lat="47.63148" lon="0.47117">
        <ele>100.4</ele>
        <time>2016-06-16T07:55:22Z</time>
      </trkpt>
      <trkpt lat="47.63151" lon="0.47103">
        <ele>100.6</ele>
        <time>2016-06-16T07:55:30Z</time>
      </trkpt>
      <trkpt lat="47.63153" lon="0.4709">
        <ele>100.8</ele>
        <time>2016-06-16T07:55:37Z</time>
      </trkpt>
      <trkpt lat="47.63158" lon="0.47077">
        <ele>100.8</ele>
        <time>2016-06-16T07:55:44Z</time>
      </trkpt>
      <trkpt lat="47.63162" lon="0.47065">
        <ele>101.2</ele>
        <time>2016-06-16T07:55:52Z</time>
      </trkpt>
      <trkpt lat="47.63168" lon="0.47054">
        <ele>101.4</ele>
        <time>2016-06-16T07:55:59Z</time>
      </trkpt>
      <trkpt lat="47.63173" lon="0.47043">
        <ele>100.9</ele>
        <time>2016-06-16T07:56:08Z</time>
      </trkpt>
      <trkpt lat="47.63181" lon="0.47034">
        <ele>101.1</ele>
        <time>2016-06-16T07:56:17Z</time>
      </trkpt>
      <trkpt lat="47.63189" lon="0.47026">
        <ele>101.2</ele>
        <time>2016-06-16T07:56:24Z</time>
      </trkpt>
      <trkpt lat="47.63197" lon="0.47018">
        <ele>101.3</ele>
        <time>2016-06-16T07:56:32Z</time>
      </trkpt>
      <trkpt lat="47.63205" lon="0.4701">
        <ele>101.3</ele>
        <time>2016-06-16T07:56:39Z</time>
      </trkpt>
      <trkpt lat="47.63213" lon="0.47002">
        <ele>100.9</ele>
        <time>2016-06-16T07:56:47Z</time>
      </trkpt>
      <trkpt lat="47.63221" lon="0.46995">
        <ele>101.3</ele>
        <time>2016-06-16T07:56:54Z</time>
      </trkpt>
      <trkpt lat="47.63229" lon="0.46988">
        <ele>102</ele>
        <time>2016-06-16T07:57:02Z</time>
      </trkpt>
      <trkpt lat="47.63238" lon="0.4698">
        <ele>102</ele>
        <time>2016-06-16T07:57:10Z</time>
      </trkpt>
      <trkpt lat="47.63246" lon="0.46971">
        <ele>102.1</ele>
        <time>2016-06-16T07:57:18Z</time>
      </trkpt>
      <trkpt lat="47.63254" lon="0.46964">
        <ele>101.6</ele>
        <time>2016-06-16T07:57:25Z</time>
      </trkpt>
      <trkpt lat="47.63262" lon="0.46955">
        <ele>101.8</ele>
        <time>2016-06-16T07:57:34Z</time>
      </trkpt>
      <trkpt lat="47.63269" lon="0.46946">
        <ele>101.6</ele>
        <time>2016-06-16T07:57:42Z</time>
      </trkpt>
      <trkpt lat="47.63277" lon="0.46938">
        <ele>101.5</ele>
        <time>2016-06-16T07:58:56Z</time>
      </trkpt>
      <trkpt lat="47.63285" lon="0.46929">
        <ele>101.9</ele>
        <time>2016-06-16T07:59:04Z</time>
      </trkpt>
      <trkpt lat="47.63293" lon="0.46919">
        <ele>102</ele>
        <time>2016-06-16T07:59:12Z</time>
      </trkpt>
      <trkpt lat="47.633" lon="0.4691">
        <ele>101.9</ele>
        <time>2016-06-16T07:59:20Z</time>
      </trkpt>
      <trkpt lat="47.63309" lon="0.469">
        <ele>101.1</ele>
        <time>2016-06-16T07:59:28Z</time>
      </trkpt>
      <trkpt lat="47.63316" lon="0.46891">
        <ele>101.9</ele>
        <time>2016-06-16T07:59:36Z</time>
      </trkpt>
      <trkpt lat="47.63324" lon="0.46883">
        <ele>101.9</ele>
        <time>2016-06-16T07:59:43Z</time>
      </trkpt>
      <trkpt lat="47.63331" lon="0.46873">
        <ele>101.4</ele>
        <time>2016-06-16T07:59:51Z</time>
      </trkpt>
      <trkpt lat="47.63338" lon="0.46865">
        <ele>101.6</ele>
        <time>2016-06-16T07:59:58Z</time>
      </trkpt>
      <trkpt lat="47.63346" lon="0.46858">
        <ele>101.7</ele>
        <time>2016-06-16T08:00:06Z</time>
      </trkpt>
      <trkpt lat="47.63354" lon="0.46849">
        <ele>101.9</ele>
        <time>2016-06-16T08:00:14Z</time>
      </trkpt>
      <trkpt lat="47.63363" lon="0.46843">
        <ele>101.6</ele>
        <time>2016-06-16T08:00:21Z</time>
      </trkpt>
      <trkpt lat="47.63371" lon="0.46836">
        <ele>100.7</ele>
        <time>2016-06-16T08:00:29Z</time>
      </trkpt>
      <trkpt lat="47.6338" lon="0.4683">
        <ele>101.5</ele>
        <time>2016-06-16T08:00:38Z</time>
      </trkpt>
      <trkpt lat="47.63389" lon="0.46827">
        <ele>101.1</ele>
        <time>2016-06-16T08:00:47Z</time>
      </trkpt>
      <trkpt lat="47.63398" lon="0.46823">
        <ele>100.9</ele>
        <time>2016-06-16T08:00:55Z</time>
      </trkpt>
      <trkpt lat="47.63408" lon="0.4682">
        <ele>101.4</ele>
        <time>2016-06-16T08:01:03Z</time>
      </trkpt>
      <trkpt lat="47.63417" lon="0.46818">
        <ele>100.8</ele>
        <time>2016-06-16T08:01:11Z</time>
      </trkpt>
      <trkpt lat="47.63427" lon="0.46815">
        <ele>101.7</ele>
        <time>2016-06-16T08:01:19Z</time>
      </trkpt>
      <trkpt lat="47.63436" lon="0.46812">
        <ele>101</ele>
        <time>2016-06-16T08:01:26Z</time>
      </trkpt>
      <trkpt lat="47.63445" lon="0.46811">
        <ele>99.7</ele>
        <time>2016-06-16T08:01:34Z</time>
      </trkpt>
      <trkpt lat="47.63454" lon="0.4681">
        <ele>98.6</ele>
        <time>2016-06-16T08:01:42Z</time>
      </trkpt>
      <trkpt lat="47.63464" lon="0.46809">
        <ele>98.7</ele>
        <time>2016-06-16T08:01:50Z</time>
      </trkpt>
      <trkpt lat="47.63473" lon="0.46806">
        <ele>98.6</ele>
        <time>2016-06-16T08:01:58Z</time>
      </trkpt>
      <trkpt lat="47.63483" lon="0.46803">
        <ele>98.3</ele>
        <time>2016-06-16T08:02:06Z</time>
      </trkpt>
      <trkpt lat="47.63492" lon="0.46801">
        <ele>98.4</ele>
        <time>2016-06-16T08:02:15Z</time>
      </trkpt>
      <trkpt lat="47.63501" lon="0.46799">
        <ele>98.6</ele>
        <time>2016-06-16T08:02:23Z</time>
      </trkpt>
      <trkpt lat="47.63511" lon="0.46795">
        <ele>98.5</ele>
        <time>2016-06-16T08:02:32Z</time>
      </trkpt>
      <trkpt lat="47.6352" lon="0.46794">
        <ele>98.8</ele>
        <time>2016-06-16T08:02:40Z</time>
      </trkpt>
      <trkpt lat="47.63529" lon="0.46792">
        <ele>98.6</ele>
        <time>2016-06-16T08:02:48Z</time>
      </trkpt>
      <trkpt lat="47.6354" lon="0.46791">
        <ele>98</ele>
        <time>2016-06-16T08:02:56Z</time>
      </trkpt>
      <trkpt lat="47.63549" lon="0.46791">
        <ele>97.5</ele>
        <time>2016-06-16T08:03:05Z</time>
      </trkpt>
      <trkpt lat="47.63559" lon="0.46791">
        <ele>97.3</ele>
        <time>2016-06-16T08:03:13Z</time>
      </trkpt>
      <trkpt lat="47.63569" lon="0.46791">
        <ele>97.7</ele>
        <time>2016-06-16T08:03:22Z</time>
      </trkpt>
      <trkpt lat="47.63578" lon="0.46794">
        <ele>97.8</ele>
        <time>2016-06-16T08:03:31Z</time>
      </trkpt>
      <trkpt lat="47.63587" lon="0.46799">
        <ele>97.1</ele>
        <time>2016-06-16T08:03:39Z</time>
      </trkpt>
      <trkpt lat="47.63597" lon="0.46803">
        <ele>98.1</ele>
        <time>2016-06-16T08:03:48Z</time>
      </trkpt>
      <trkpt lat="47.63606" lon="0.46808">
        <ele>97.4</ele>
        <time>2016-06-16T08:03:58Z</time>
      </trkpt>
      <trkpt lat="47.63614" lon="0.46815">
        <ele>97.2</ele>
        <time>2016-06-16T08:04:06Z</time>
      </trkpt>
      <trkpt lat="47.63622" lon="0.46823">
        <ele>96.3</ele>
        <time>2016-06-16T08:04:15Z</time>
      </trkpt>
      <trkpt lat="47.63631" lon="0.46831">
        <ele>95.9</ele>
        <time>2016-06-16T08:04:24Z</time>
      </trkpt>
      <trkpt lat="47.63639" lon="0.46837">
        <ele>95.5</ele>
        <time>2016-06-16T08:04:33Z</time>
      </trkpt>
      <trkpt lat="47.63648" lon="0.46842">
        <ele>95</ele>
        <time>2016-06-16T08:04:42Z</time>
      </trkpt>
      <trkpt lat="47.63657" lon="0.46849">
        <ele>94.7</ele>
        <time>2016-06-16T08:04:51Z</time>
      </trkpt>
      <trkpt lat="47.63666" lon="0.46855">
        <ele>94.6</ele>
        <time>2016-06-16T08:05:01Z</time>
      </trkpt>
      <trkpt lat="47.63675" lon="0.46861">
        <ele>94.1</ele>
        <time>2016-06-16T08:05:10Z</time>
      </trkpt>
      <trkpt lat="47.63683" lon="0.46866">
        <ele>93.7</ele>
        <time>2016-06-16T08:05:19Z</time>
      </trkpt>
      <trkpt lat="47.63693" lon="0.46873">
        <ele>93.3</ele>
        <time>2016-06-16T08:05:28Z</time>
      </trkpt>
      <trkpt lat="47.63702" lon="0.46879">
        <ele>92.8</ele>
        <time>2016-06-16T08:05:37Z</time>
      </trkpt>
      <trkpt lat="47.6371" lon="0.46885">
        <ele>92.4</ele>
        <time>2016-06-16T08:05:46Z</time>
      </trkpt>
      <trkpt lat="47.63718" lon="0.46893">
        <ele>91.9</ele>
        <time>2016-06-16T08:05:55Z</time>
      </trkpt>
      <trkpt lat="47.63726" lon="0.469">
        <ele>91.5</ele>
        <time>2016-06-16T08:06:03Z</time>
      </trkpt>
      <trkpt lat="47.63734" lon="0.46909">
        <ele>91.2</ele>
        <time>2016-06-16T08:06:13Z</time>
      </trkpt>
      <trkpt lat="47.63743" lon="0.46914">
        <ele>90.5</ele>
        <time>2016-06-16T08:06:20Z</time>
      </trkpt>
      <trkpt lat="47.63751" lon="0.46924">
        <ele>90.5</ele>
        <time>2016-06-16T08:06:30Z</time>
      </trkpt>
      <trkpt lat="47.63759" lon="0.46931">
        <ele>89.8</ele>
        <time>2016-06-16T08:06:39Z</time>
      </trkpt>
      <trkpt lat="47.63767" lon="0.46938">
        <ele>89.7</ele>
        <time>2016-06-16T08:06:47Z</time>
      </trkpt>
      <trkpt lat="47.63775" lon="0.46945">
        <ele>89</ele>
        <time>2016-06-16T08:06:57Z</time>
      </trkpt>
      <trkpt lat="47.63783" lon="0.46952">
        <ele>88.3</ele>
        <time>2016-06-16T08:07:06Z</time>
      </trkpt>
      <trkpt lat="47.63791" lon="0.46961">
        <ele>88.3</ele>
        <time>2016-06-16T08:07:15Z</time>
      </trkpt>
      <trkpt lat="47.63799" lon="0.46967">
        <ele>87.8</ele>
        <time>2016-06-16T08:07:23Z</time>
      </trkpt>
      <trkpt lat="47.63808" lon="0.46969">
        <ele>87.6</ele>
        <time>2016-06-16T08:07:31Z</time>
      </trkpt>
      <trkpt lat="47.63818" lon="0.46965">
        <ele>87.3</ele>
        <time>2016-06-16T08:07:39Z</time>
      </trkpt>
      <trkpt lat="47.63827" lon="0.46959">
        <ele>86.8</ele>
        <time>2016-06-16T08:07:47Z</time>
      </trkpt>
      <trkpt lat="47.63836" lon="0.46954">
        <ele>86.5</ele>
        <time>2016-06-16T08:07:57Z</time>
      </trkpt>
      <trkpt lat="47.63843" lon="0.46946">
        <ele>86.3</ele>
        <time>2016-06-16T08:08:22Z</time>
      </trkpt>
      <trkpt lat="47.63852" lon="0.46942">
        <ele>86.1</ele>
        <time>2016-06-16T08:08:30Z</time>
      </trkpt>
      <trkpt lat="47.63862" lon="0.46936">
        <ele>85.3</ele>
        <time>2016-06-16T08:08:38Z</time>
      </trkpt>
      <trkpt lat="47.6387" lon="0.46927">
        <ele>86</ele>
        <time>2016-06-16T08:08:45Z</time>
      </trkpt>
      <trkpt lat="47.63879" lon="0.46923">
        <ele>85.6</ele>
        <time>2016-06-16T08:08:53Z</time>
      </trkpt>
      <trkpt lat="47.63888" lon="0.46918">
        <ele>84.6</ele>
        <time>2016-06-16T08:09:00Z</time>
      </trkpt>
      <trkpt lat="47.63897" lon="0.46912">
        <ele>83.7</ele>
        <time>2016-06-16T08:09:08Z</time>
      </trkpt>
      <trkpt lat="47.63906" lon="0.46906">
        <ele>83.6</ele>
        <time>2016-06-16T08:09:15Z</time>
      </trkpt>
      <trkpt lat="47.63915" lon="0.46902">
        <ele>82.2</ele>
        <time>2016-06-16T08:09:22Z</time>
      </trkpt>
      <trkpt lat="47.63925" lon="0.46897">
        <ele>81.8</ele>
        <time>2016-06-16T08:09:30Z</time>
      </trkpt>
      <trkpt lat="47.63935" lon="0.46893">
        <ele>81.8</ele>
        <time>2016-06-16T08:09:37Z</time>
      </trkpt>
      <trkpt lat="47.63944" lon="0.46892">
        <ele>81.6</ele>
        <time>2016-06-16T08:09:46Z</time>
      </trkpt>
      <trkpt lat="47.63953" lon="0.46887">
        <ele>80.6</ele>
        <time>2016-06-16T08:09:54Z</time>
      </trkpt>
      <trkpt lat="47.63963" lon="0.4689">
        <ele>79.2</ele>
        <time>2016-06-16T08:10:02Z</time>
      </trkpt>
      <trkpt lat="47.63971" lon="0.46897">
        <ele>78.6</ele>
        <time>2016-06-16T08:10:13Z</time>
      </trkpt>
      <trkpt lat="47.63979" lon="0.46903">
        <ele>78.2</ele>
        <time>2016-06-16T08:10:22Z</time>
      </trkpt>
      <trkpt lat="47.63988" lon="0.46905">
        <ele>77.8</ele>
        <time>2016-06-16T08:10:29Z</time>
      </trkpt>
      <trkpt lat="47.63997" lon="0.46908">
        <ele>77</ele>
        <time>2016-06-16T08:10:36Z</time>
      </trkpt>
      <trkpt lat="47.64006" lon="0.46915">
        <ele>77.3</ele>
        <time>2016-06-16T08:10:44Z</time>
      </trkpt>
      <trkpt lat="47.64015" lon="0.4692">
        <ele>76.3</ele>
        <time>2016-06-16T08:10:55Z</time>
      </trkpt>
      <trkpt lat="47.64024" lon="0.46924">
        <ele>75.9</ele>
        <time>2016-06-16T08:13:23Z</time>
      </trkpt>
      <trkpt lat="47.64032" lon="0.46932">
        <ele>77.2</ele>
        <time>2016-06-16T08:13:52Z</time>
      </trkpt>
      <trkpt lat="47.6404" lon="0.46939">
        <ele>75.3</ele>
        <time>2016-06-16T08:14:39Z</time>
      </trkpt>
      <trkpt lat="47.64049" lon="0.46943">
        <ele>74.1</ele>
        <time>2016-06-16T08:14:57Z</time>
      </trkpt>
      <trkpt lat="47.64057" lon="0.46948">
        <ele>73.4</ele>
        <time>2016-06-16T08:15:21Z</time>
      </trkpt>
      <trkpt lat="47.64066" lon="0.46952">
        <ele>73</ele>
        <time>2016-06-16T08:15:41Z</time>
      </trkpt>
      <trkpt lat="47.64075" lon="0.46955">
        <ele>73</ele>
        <time>2016-06-16T08:15:49Z</time>
      </trkpt>
      <trkpt lat="47.64085" lon="0.46959">
        <ele>72.6</ele>
        <time>2016-06-16T08:15:57Z</time>
      </trkpt>
      <trkpt lat="47.64094" lon="0.46965">
        <ele>71.7</ele>
        <time>2016-06-16T08:16:06Z</time>
      </trkpt>
      <trkpt lat="47.64103" lon="0.46971">
        <ele>70.9</ele>
        <time>2016-06-16T08:16:15Z</time>
      </trkpt>
      <trkpt lat="47.64111" lon="0.4698">
        <ele>70.8</ele>
        <time>2016-06-16T08:16:24Z</time>
      </trkpt>
      <trkpt lat="47.6412" lon="0.46984">
        <ele>69.3</ele>
        <time>2016-06-16T08:16:32Z</time>
      </trkpt>
      <trkpt lat="47.64129" lon="0.4699">
        <ele>69.4</ele>
        <time>2016-06-16T08:16:40Z</time>
      </trkpt>
      <trkpt lat="47.64139" lon="0.46997">
        <ele>68.7</ele>
        <time>2016-06-16T08:16:48Z</time>
      </trkpt>
      <trkpt lat="47.64146" lon="0.47005">
        <ele>67.9</ele>
        <time>2016-06-16T08:16:55Z</time>
      </trkpt>
      <trkpt lat="47.64154" lon="0.47012">
        <ele>67.6</ele>
        <time>2016-06-16T08:17:03Z</time>
      </trkpt>
      <trkpt lat="47.64163" lon="0.47018">
        <ele>67.4</ele>
        <time>2016-06-16T08:17:11Z</time>
      </trkpt>
      <trkpt lat="47.64171" lon="0.47024">
        <ele>67.2</ele>
        <time>2016-06-16T08:17:17Z</time>
      </trkpt>
      <trkpt lat="47.64179" lon="0.47032">
        <ele>66.8</ele>
        <time>2016-06-16T08:17:26Z</time>
      </trkpt>
      <trkpt lat="47.64187" lon="0.47042">
        <ele>64.9</ele>
        <time>2016-06-16T08:17:34Z</time>
      </trkpt>
      <trkpt lat="47.64194" lon="0.47051">
        <ele>64.5</ele>
        <time>2016-06-16T08:17:42Z</time>
      </trkpt>
      <trkpt lat="47.64202" lon="0.47057">
        <ele>63.7</ele>
        <time>2016-06-16T08:17:50Z</time>
      </trkpt>
      <trkpt lat="47.64211" lon="0.47064">
        <ele>64.2</ele>
        <time>2016-06-16T08:17:58Z</time>
      </trkpt>
      <trkpt lat="47.64219" lon="0.47072">
        <ele>63.6</ele>
        <time>2016-06-16T08:18:06Z</time>
      </trkpt>
      <trkpt lat="47.64228" lon="0.4708">
        <ele>62.4</ele>
        <time>2016-06-16T08:18:14Z</time>
      </trkpt>
      <trkpt lat="47.64236" lon="0.47087">
        <ele>61.7</ele>
        <time>2016-06-16T08:18:22Z</time>
      </trkpt>
      <trkpt lat="47.64245" lon="0.47092">
        <ele>61</ele>
        <time>2016-06-16T08:18:30Z</time>
      </trkpt>
      <trkpt lat="47.64251" lon="0.47103">
        <ele>60.5</ele>
        <time>2016-06-16T08:22:18Z</time>
      </trkpt>
      <trkpt lat="47.64256" lon="0.47115">
        <ele>59.2</ele>
        <time>2016-06-16T08:22:28Z</time>
      </trkpt>
      <trkpt lat="47.64262" lon="0.47126">
        <ele>59.7</ele>
        <time>2016-06-16T08:22:38Z</time>
      </trkpt>
      <trkpt lat="47.64268" lon="0.47136">
        <ele>59.9</ele>
        <time>2016-06-16T08:22:44Z</time>
      </trkpt>
      <trkpt lat="47.64274" lon="0.47148">
        <ele>59.5</ele>
        <time>2016-06-16T08:22:52Z</time>
      </trkpt>
      <trkpt lat="47.64281" lon="0.47159">
        <ele>59.4</ele>
        <time>2016-06-16T08:23:00Z</time>
      </trkpt>
      <trkpt lat="47.64287" lon="0.47171">
        <ele>59.3</ele>
        <time>2016-06-16T08:23:08Z</time>
      </trkpt>
      <trkpt lat="47.64293" lon="0.47182">
        <ele>59.3</ele>
        <time>2016-06-16T08:23:15Z</time>
      </trkpt>
      <trkpt lat="47.64298" lon="0.47193">
        <ele>59.2</ele>
        <time>2016-06-16T08:23:21Z</time>
      </trkpt>
      <trkpt lat="47.64305" lon="0.47204">
        <ele>59</ele>
        <time>2016-06-16T08:23:28Z</time>
      </trkpt>
      <trkpt lat="47.64312" lon="0.47214">
        <ele>58.6</ele>
        <time>2016-06-16T08:23:35Z</time>
      </trkpt>
      <trkpt lat="47.64319" lon="0.47224">
        <ele>57.6</ele>
        <time>2016-06-16T08:23:42Z</time>
      </trkpt>
      <trkpt lat="47.64327" lon="0.47234">
        <ele>58.5</ele>
        <time>2016-06-16T08:23:50Z</time>
      </trkpt>
      <trkpt lat="47.64334" lon="0.47243">
        <ele>57.6</ele>
        <time>2016-06-16T08:23:57Z</time>
      </trkpt>
      <trkpt lat="47.64341" lon="0.47251">
        <ele>57.5</ele>
        <time>2016-06-16T08:24:04Z</time>
      </trkpt>
      <trkpt lat="47.64349" lon="0.4726">
        <ele>57</ele>
        <time>2016-06-16T08:24:11Z</time>
      </trkpt>
      <trkpt lat="47.64355" lon="0.47269">
        <ele>56.6</ele>
        <time>2016-06-16T08:24:18Z</time>
      </trkpt>
      <trkpt lat="47.64362" lon="0.47278">
        <ele>56.5</ele>
        <time>2016-06-16T08:24:25Z</time>
      </trkpt>
      <trkpt lat="47.64369" lon="0.47288">
        <ele>57.2</ele>
        <time>2016-06-16T08:24:34Z</time>
      </trkpt>
      <trkpt lat="47.64376" lon="0.47297">
        <ele>56.9</ele>
        <time>2016-06-16T08:24:41Z</time>
      </trkpt>
      <trkpt lat="47.64384" lon="0.47306">
        <ele>56</ele>
        <time>2016-06-16T08:24:48Z</time>
      </trkpt>
      <trkpt lat="47.64391" lon="0.47315">
        <ele>55.7</ele>
        <time>2016-06-16T08:24:55Z</time>
      </trkpt>
      <trkpt lat="47.64398" lon="0.47325">
        <ele>55</ele>
        <time>2016-06-16T08:25:03Z</time>
      </trkpt>
      <trkpt lat="47.64405" lon="0.47337">
        <ele>55</ele>
        <time>2016-06-16T08:25:11Z</time>
      </trkpt>
      <trkpt lat="47.6441" lon="0.47348">
        <ele>55</ele>
        <time>2016-06-16T08:25:18Z</time>
      </trkpt>
      <trkpt lat="47.64415" lon="0.47361">
        <ele>54.4</ele>
        <time>2016-06-16T08:25:26Z</time>
      </trkpt>
      <trkpt lat="47.64421" lon="0.47372">
        <ele>54.8</ele>
        <time>2016-06-16T08:25:33Z</time>
      </trkpt>
      <trkpt lat="47.64426" lon="0.47385">
        <ele>55.2</ele>
        <time>2016-06-16T08:25:40Z</time>
      </trkpt>
      <trkpt lat="47.64429" lon="0.47398">
        <ele>55</ele>
        <time>2016-06-16T08:25:47Z</time>
      </trkpt>
      <trkpt lat="47.64432" lon="0.47411">
        <ele>54.6</ele>
        <time>2016-06-16T08:25:54Z</time>
      </trkpt>
      <trkpt lat="47.64436" lon="0.47424">
        <ele>54</ele>
        <time>2016-06-16T08:26:03Z</time>
      </trkpt>
      <trkpt lat="47.6444" lon="0.47437">
        <ele>54.6</ele>
        <time>2016-06-16T08:26:10Z</time>
      </trkpt>
      <trkpt lat="47.64444" lon="0.47449">
        <ele>54.7</ele>
        <time>2016-06-16T08:26:17Z</time>
      </trkpt>
      <trkpt lat="47.64447" lon="0.47462">
        <ele>54.3</ele>
        <time>2016-06-16T08:26:24Z</time>
      </trkpt>
      <trkpt lat="47.64452" lon="0.47475">
        <ele>54.5</ele>
        <time>2016-06-16T08:26:32Z</time>
      </trkpt>
      <trkpt lat="47.6446" lon="0.47482">
        <ele>54.6</ele>
        <time>2016-06-16T08:26:40Z</time>
      </trkpt>
      <trkpt lat="47.64469" lon="0.47478">
        <ele>55.1</ele>
        <time>2016-06-16T08:26:57Z</time>
      </trkpt>
      <trkpt lat="47.64478" lon="0.47477">
        <ele>54.3</ele>
        <time>2016-06-16T08:27:05Z</time>
      </trkpt>
      <trkpt lat="47.64487" lon="0.47476">
        <ele>54.4</ele>
        <time>2016-06-16T08:27:13Z</time>
      </trkpt>
      <trkpt lat="47.64496" lon="0.47476">
        <ele>54.6</ele>
        <time>2016-06-16T08:27:20Z</time>
      </trkpt>
      <trkpt lat="47.64506" lon="0.47475">
        <ele>54.5</ele>
        <time>2016-06-16T08:27:28Z</time>
      </trkpt>
      <trkpt lat="47.64515" lon="0.47472">
        <ele>55.1</ele>
        <time>2016-06-16T08:27:36Z</time>
      </trkpt>
      <trkpt lat="47.64524" lon="0.47469">
        <ele>55.1</ele>
        <time>2016-06-16T08:27:43Z</time>
      </trkpt>
      <trkpt lat="47.64533" lon="0.47464">
        <ele>55.1</ele>
        <time>2016-06-16T08:27:50Z</time>
      </trkpt>
      <trkpt lat="47.64542" lon="0.4746">
        <ele>55.3</ele>
        <time>2016-06-16T08:27:57Z</time>
      </trkpt>
      <trkpt lat="47.64551" lon="0.47456">
        <ele>55.9</ele>
        <time>2016-06-16T08:28:05Z</time>
      </trkpt>
      <trkpt lat="47.64561" lon="0.47453">
        <ele>56.1</ele>
        <time>2016-06-16T08:28:13Z</time>
      </trkpt>
      <trkpt lat="47.64569" lon="0.47447">
        <ele>56.1</ele>
        <time>2016-06-16T08:28:20Z</time>
      </trkpt>
      <trkpt lat="47.64578" lon="0.47442">
        <ele>56.1</ele>
        <time>2016-06-16T08:28:27Z</time>
      </trkpt>
      <trkpt lat="47.64587" lon="0.47437">
        <ele>55</ele>
        <time>2016-06-16T08:28:34Z</time>
      </trkpt>
      <trkpt lat="47.64596" lon="0.47432">
        <ele>54.9</ele>
        <time>2016-06-16T08:28:42Z</time>
      </trkpt>
      <trkpt lat="47.64605" lon="0.47426">
        <ele>55.4</ele>
        <time>2016-06-16T08:28:52Z</time>
      </trkpt>
      <trkpt lat="47.64614" lon="0.4742">
        <ele>55.3</ele>
        <time>2016-06-16T08:29:00Z</time>
      </trkpt>
      <trkpt lat="47.64623" lon="0.47415">
        <ele>55.7</ele>
        <time>2016-06-16T08:29:07Z</time>
      </trkpt>
      <trkpt lat="47.64632" lon="0.47409">
        <ele>55.4</ele>
        <time>2016-06-16T08:29:14Z</time>
      </trkpt>
      <trkpt lat="47.64641" lon="0.47404">
        <ele>55.1</ele>
        <time>2016-06-16T08:29:21Z</time>
      </trkpt>
      <trkpt lat="47.6465" lon="0.47399">
        <ele>55.3</ele>
        <time>2016-06-16T08:29:29Z</time>
      </trkpt>
      <trkpt lat="47.64659" lon="0.47393">
        <ele>55.2</ele>
        <time>2016-06-16T08:29:37Z</time>
      </trkpt>
      <trkpt lat="47.64667" lon="0.47387">
        <ele>55.1</ele>
        <time>2016-06-16T08:29:45Z</time>
      </trkpt>
      <trkpt lat="47.64677" lon="0.47381">
        <ele>55.1</ele>
        <time>2016-06-16T08:29:53Z</time>
      </trkpt>
      <trkpt lat="47.64685" lon="0.47376">
        <ele>54.8</ele>
        <time>2016-06-16T08:30:00Z</time>
      </trkpt>
      <trkpt lat="47.64694" lon="0.47371">
        <ele>55.2</ele>
        <time>2016-06-16T08:30:08Z</time>
      </trkpt>
      <trkpt lat="47.64704" lon="0.47365">
        <ele>55.2</ele>
        <time>2016-06-16T08:30:16Z</time>
      </trkpt>
      <trkpt lat="47.64713" lon="0.4736">
        <ele>54.7</ele>
        <time>2016-06-16T08:30:24Z</time>
      </trkpt>
      <trkpt lat="47.64722" lon="0.47354">
        <ele>54.3</ele>
        <time>2016-06-16T08:30:32Z</time>
      </trkpt>
      <trkpt lat="47.64731" lon="0.4735">
        <ele>54.5</ele>
        <time>2016-06-16T08:30:41Z</time>
      </trkpt>
      <trkpt lat="47.6474" lon="0.47346">
        <ele>54.5</ele>
        <time>2016-06-16T08:30:49Z</time>
      </trkpt>
      <trkpt lat="47.64753" lon="0.47339">
        <ele>54.3</ele>
        <time>2016-06-16T08:31:13Z</time>
      </trkpt>
      <trkpt lat="47.64765" lon="0.47334">
        <ele>54.2</ele>
        <time>2016-06-16T08:31:16Z</time>
      </trkpt>
      <trkpt lat="47.64778" lon="0.47336">
        <ele>54.1</ele>
        <time>2016-06-16T08:31:18Z</time>
      </trkpt>
      <trkpt lat="47.64787" lon="0.47332">
        <ele>53.7</ele>
        <time>2016-06-16T08:31:25Z</time>
      </trkpt>
      <trkpt lat="47.64795" lon="0.47323">
        <ele>53.3</ele>
        <time>2016-06-16T08:31:35Z</time>
      </trkpt>
      <trkpt lat="47.64804" lon="0.47319">
        <ele>53.3</ele>
        <time>2016-06-16T08:31:44Z</time>
      </trkpt>
      <trkpt lat="47.64814" lon="0.47316">
        <ele>53.2</ele>
        <time>2016-06-16T08:31:51Z</time>
      </trkpt>
      <trkpt lat="47.64822" lon="0.47312">
        <ele>52.7</ele>
        <time>2016-06-16T08:31:58Z</time>
      </trkpt>
      <trkpt lat="47.64831" lon="0.47307">
        <ele>52.7</ele>
        <time>2016-06-16T08:32:05Z</time>
      </trkpt>
      <trkpt lat="47.64841" lon="0.47303">
        <ele>52.5</ele>
        <time>2016-06-16T08:32:13Z</time>
      </trkpt>
      <trkpt lat="47.6485" lon="0.47299">
        <ele>51.7</ele>
        <time>2016-06-16T08:32:20Z</time>
      </trkpt>
      <trkpt lat="47.6486" lon="0.47298">
        <ele>51.4</ele>
        <time>2016-06-16T08:32:28Z</time>
      </trkpt>
      <trkpt lat="47.64869" lon="0.47294">
        <ele>51.8</ele>
        <time>2016-06-16T08:32:36Z</time>
      </trkpt>
      <trkpt lat="47.64878" lon="0.47292">
        <ele>51.8</ele>
        <time>2016-06-16T08:32:43Z</time>
      </trkpt>
      <trkpt lat="47.64887" lon="0.47289">
        <ele>51.6</ele>
        <time>2016-06-16T08:32:51Z</time>
      </trkpt>
      <trkpt lat="47.64897" lon="0.47287">
        <ele>50.9</ele>
        <time>2016-06-16T08:32:59Z</time>
      </trkpt>
      <trkpt lat="47.64906" lon="0.47283">
        <ele>50.5</ele>
        <time>2016-06-16T08:33:07Z</time>
      </trkpt>
      <trkpt lat="47.64914" lon="0.47278">
        <ele>50.6</ele>
        <time>2016-06-16T08:33:13Z</time>
      </trkpt>
      <trkpt lat="47.64923" lon="0.47273">
        <ele>50.6</ele>
        <time>2016-06-16T08:33:21Z</time>
      </trkpt>
      <trkpt lat="47.64932" lon="0.47268">
        <ele>50.9</ele>
        <time>2016-06-16T08:33:30Z</time>
      </trkpt>
      <trkpt lat="47.64941" lon="0.47264">
        <ele>50.7</ele>
        <time>2016-06-16T08:35:10Z</time>
      </trkpt>
      <trkpt lat="47.64951" lon="0.47265">
        <ele>50.7</ele>
        <time>2016-06-16T08:35:21Z</time>
      </trkpt>
      <trkpt lat="47.6496" lon="0.47263">
        <ele>50.6</ele>
        <time>2016-06-16T08:35:30Z</time>
      </trkpt>
      <trkpt lat="47.64969" lon="0.47261">
        <ele>49.5</ele>
        <time>2016-06-16T08:35:39Z</time>
      </trkpt>
      <trkpt lat="47.6498" lon="0.47262">
        <ele>53</ele>
        <time>2016-06-16T08:35:47Z</time>
      </trkpt>
      <trkpt lat="47.64989" lon="0.47261">
        <ele>51.3</ele>
        <time>2016-06-16T08:35:54Z</time>
      </trkpt>
      <trkpt lat="47.64999" lon="0.47262">
        <ele>50.7</ele>
        <time>2016-06-16T08:36:02Z</time>
      </trkpt>
      <trkpt lat="47.65008" lon="0.47262">
        <ele>50.3</ele>
        <time>2016-06-16T08:36:10Z</time>
      </trkpt>
      <trkpt lat="47.65018" lon="0.47263">
        <ele>49.7</ele>
        <time>2016-06-16T08:36:18Z</time>
      </trkpt>
      <trkpt lat="47.65028" lon="0.47265">
        <ele>50.3</ele>
        <time>2016-06-16T08:36:26Z</time>
      </trkpt>
      <trkpt lat="47.65037" lon="0.47267">
        <ele>49.7</ele>
        <time>2016-06-16T08:36:34Z</time>
      </trkpt>
      <trkpt lat="47.65047" lon="0.47267">
        <ele>50.1</ele>
        <time>2016-06-16T08:36:43Z</time>
      </trkpt>
      <trkpt lat="47.65057" lon="0.47269">
        <ele>49.6</ele>
        <time>2016-06-16T08:36:51Z</time>
      </trkpt>
      <trkpt lat="47.65066" lon="0.47273">
        <ele>49.9</ele>
        <time>2016-06-16T08:36:59Z</time>
      </trkpt>
      <trkpt lat="47.65075" lon="0.47275">
        <ele>50</ele>
        <time>2016-06-16T08:37:07Z</time>
      </trkpt>
      <trkpt lat="47.65085" lon="0.47279">
        <ele>50.1</ele>
        <time>2016-06-16T08:37:15Z</time>
      </trkpt>
      <trkpt lat="47.65094" lon="0.47282">
        <ele>50.3</ele>
        <time>2016-06-16T08:37:23Z</time>
      </trkpt>
      <trkpt lat="47.65102" lon="0.47287">
        <ele>50.2</ele>
        <time>2016-06-16T08:37:30Z</time>
      </trkpt>
      <trkpt lat="47.65112" lon="0.47289">
        <ele>49.7</ele>
        <time>2016-06-16T08:37:38Z</time>
      </trkpt>
      <trkpt lat="47.65121" lon="0.47293">
        <ele>49.3</ele>
        <time>2016-06-16T08:37:46Z</time>
      </trkpt>
      <trkpt lat="47.65131" lon="0.47299">
        <ele>50.4</ele>
        <time>2016-06-16T08:37:54Z</time>
      </trkpt>
      <trkpt lat="47.6514" lon="0.47305">
        <ele>50.2</ele>
        <time>2016-06-16T08:38:02Z</time>
      </trkpt>
      <trkpt lat="47.65149" lon="0.4731">
        <ele>49.7</ele>
        <time>2016-06-16T08:38:10Z</time>
      </trkpt>
      <trkpt lat="47.65158" lon="0.47317">
        <ele>49.9</ele>
        <time>2016-06-16T08:38:18Z</time>
      </trkpt>
      <trkpt lat="47.65166" lon="0.4732">
        <ele>50</ele>
        <time>2016-06-16T08:38:25Z</time>
      </trkpt>
      <trkpt lat="47.65176" lon="0.47324">
        <ele>49.9</ele>
        <time>2016-06-16T08:38:33Z</time>
      </trkpt>
      <trkpt lat="47.65186" lon="0.47326">
        <ele>49.3</ele>
        <time>2016-06-16T08:38:41Z</time>
      </trkpt>
      <trkpt lat="47.65195" lon="0.4733">
        <ele>49.7</ele>
        <time>2016-06-16T08:38:48Z</time>
      </trkpt>
      <trkpt lat="47.65204" lon="0.47334">
        <ele>49.4</ele>
        <time>2016-06-16T08:38:56Z</time>
      </trkpt>
      <trkpt lat="47.65214" lon="0.47335">
        <ele>49.4</ele>
        <time>2016-06-16T08:39:04Z</time>
      </trkpt>
      <trkpt lat="47.65224" lon="0.47338">
        <ele>49.8</ele>
        <time>2016-06-16T08:39:13Z</time>
      </trkpt>
      <trkpt lat="47.65234" lon="0.47342">
        <ele>50.1</ele>
        <time>2016-06-16T08:39:21Z</time>
      </trkpt>
      <trkpt lat="47.65243" lon="0.47345">
        <ele>50.2</ele>
        <time>2016-06-16T08:39:28Z</time>
      </trkpt>
      <trkpt lat="47.65252" lon="0.47347">
        <ele>50</ele>
        <time>2016-06-16T08:39:35Z</time>
      </trkpt>
      <trkpt lat="47.65261" lon="0.47349">
        <ele>50.7</ele>
        <time>2016-06-16T08:39:42Z</time>
      </trkpt>
      <trkpt lat="47.6527" lon="0.4735">
        <ele>52.2</ele>
        <time>2016-06-16T08:40:06Z</time>
      </trkpt>
      <trkpt lat="47.6528" lon="0.47354">
        <ele>51.5</ele>
        <time>2016-06-16T08:40:14Z</time>
      </trkpt>
      <trkpt lat="47.65289" lon="0.47358">
        <ele>52</ele>
        <time>2016-06-16T08:40:22Z</time>
      </trkpt>
      <trkpt lat="47.65298" lon="0.47361">
        <ele>52</ele>
        <time>2016-06-16T08:40:29Z</time>
      </trkpt>
      <trkpt lat="47.65307" lon="0.47365">
        <ele>51.8</ele>
        <time>2016-06-16T08:40:36Z</time>
      </trkpt>
      <trkpt lat="47.65316" lon="0.47368">
        <ele>51.4</ele>
        <time>2016-06-16T08:40:43Z</time>
      </trkpt>
      <trkpt lat="47.65325" lon="0.4737">
        <ele>52</ele>
        <time>2016-06-16T08:40:51Z</time>
      </trkpt>
      <trkpt lat="47.65335" lon="0.47373">
        <ele>51.4</ele>
        <time>2016-06-16T08:40:59Z</time>
      </trkpt>
      <trkpt lat="47.65344" lon="0.47377">
        <ele>50.5</ele>
        <time>2016-06-16T08:41:07Z</time>
      </trkpt>
      <trkpt lat="47.65353" lon="0.47379">
        <ele>50</ele>
        <time>2016-06-16T08:41:15Z</time>
      </trkpt>
      <trkpt lat="47.65362" lon="0.47384">
        <ele>50.6</ele>
        <time>2016-06-16T08:41:23Z</time>
      </trkpt>
      <trkpt lat="47.65371" lon="0.47389">
        <ele>50.1</ele>
        <time>2016-06-16T08:41:31Z</time>
      </trkpt>
      <trkpt lat="47.65381" lon="0.47393">
        <ele>50.8</ele>
        <time>2016-06-16T08:41:39Z</time>
      </trkpt>
      <trkpt lat="47.6539" lon="0.47399">
        <ele>51.3</ele>
        <time>2016-06-16T08:41:47Z</time>
      </trkpt>
      <trkpt lat="47.654" lon="0.47403">
        <ele>50.9</ele>
        <time>2016-06-16T08:41:56Z</time>
      </trkpt>
      <trkpt lat="47.65409" lon="0.47406">
        <ele>51</ele>
        <time>2016-06-16T08:42:25Z</time>
      </trkpt>
      <trkpt lat="47.65417" lon="0.47414">
        <ele>51</ele>
        <time>2016-06-16T08:42:35Z</time>
      </trkpt>
      <trkpt lat="47.65426" lon="0.47417">
        <ele>51.5</ele>
        <time>2016-06-16T08:42:43Z</time>
      </trkpt>
      <trkpt lat="47.65435" lon="0.47424">
        <ele>51.7</ele>
        <time>2016-06-16T08:42:51Z</time>
      </trkpt>
      <trkpt lat="47.65443" lon="0.47429">
        <ele>51.9</ele>
        <time>2016-06-16T08:43:00Z</time>
      </trkpt>
      <trkpt lat="47.65452" lon="0.47432">
        <ele>51.4</ele>
        <time>2016-06-16T08:43:07Z</time>
      </trkpt>
      <trkpt lat="47.6546" lon="0.47439">
        <ele>51.4</ele>
        <time>2016-06-16T08:43:17Z</time>
      </trkpt>
      <trkpt lat="47.65469" lon="0.47446">
        <ele>52.4</ele>
        <time>2016-06-16T08:43:26Z</time>
      </trkpt>
      <trkpt lat="47.65478" lon="0.47452">
        <ele>52</ele>
        <time>2016-06-16T08:43:34Z</time>
      </trkpt>
      <trkpt lat="47.65487" lon="0.47456">
        <ele>52.7</ele>
        <time>2016-06-16T08:43:42Z</time>
      </trkpt>
      <trkpt lat="47.65496" lon="0.47461">
        <ele>53.3</ele>
        <time>2016-06-16T08:43:49Z</time>
      </trkpt>
      <trkpt lat="47.65505" lon="0.47467">
        <ele>51.9</ele>
        <time>2016-06-16T08:43:57Z</time>
      </trkpt>
      <trkpt lat="47.65514" lon="0.47473">
        <ele>52.9</ele>
        <time>2016-06-16T08:44:06Z</time>
      </trkpt>
      <trkpt lat="47.65523" lon="0.4748">
        <ele>53.2</ele>
        <time>2016-06-16T08:44:14Z</time>
      </trkpt>
      <trkpt lat="47.65532" lon="0.47483">
        <ele>52.5</ele>
        <time>2016-06-16T08:44:22Z</time>
      </trkpt>
      <trkpt lat="47.65542" lon="0.47483">
        <ele>52.7</ele>
        <time>2016-06-16T08:44:31Z</time>
      </trkpt>
      <trkpt lat="47.65551" lon="0.47482">
        <ele>52.3</ele>
        <time>2016-06-16T08:44:41Z</time>
      </trkpt>
      <trkpt lat="47.6556" lon="0.47477">
        <ele>52.6</ele>
        <time>2016-06-16T08:44:51Z</time>
      </trkpt>
      <trkpt lat="47.65569" lon="0.47472">
        <ele>54.1</ele>
        <time>2016-06-16T08:46:53Z</time>
      </trkpt>
      <trkpt lat="47.65579" lon="0.4747">
        <ele>53.3</ele>
        <time>2016-06-16T08:47:02Z</time>
      </trkpt>
      <trkpt lat="47.65588" lon="0.47468">
        <ele>53.4</ele>
        <time>2016-06-16T08:47:10Z</time>
      </trkpt>
      <trkpt lat="47.65597" lon="0.47466">
        <ele>53.6</ele>
        <time>2016-06-16T08:47:19Z</time>
      </trkpt>
      <trkpt lat="47.65607" lon="0.47464">
        <ele>53.1</ele>
        <time>2016-06-16T08:47:29Z</time>
      </trkpt>
      <trkpt lat="47.65616" lon="0.4746">
        <ele>53.7</ele>
        <time>2016-06-16T08:47:38Z</time>
      </trkpt>
      <trkpt lat="47.65625" lon="0.47455">
        <ele>53.6</ele>
        <time>2016-06-16T08:47:51Z</time>
      </trkpt>
      <trkpt lat="47.65635" lon="0.47454">
        <ele>53.5</ele>
        <time>2016-06-16T08:48:00Z</time>
      </trkpt>
      <trkpt lat="47.65644" lon="0.47448">
        <ele>53.9</ele>
        <time>2016-06-16T08:48:08Z</time>
      </trkpt>
      <trkpt lat="47.65653" lon="0.47444">
        <ele>54.6</ele>
        <time>2016-06-16T08:48:16Z</time>
      </trkpt>
      <trkpt lat="47.65662" lon="0.47441">
        <ele>54.3</ele>
        <time>2016-06-16T08:48:24Z</time>
      </trkpt>
      <trkpt lat="47.65671" lon="0.47438">
        <ele>54.5</ele>
        <time>2016-06-16T08:48:32Z</time>
      </trkpt>
      <trkpt lat="47.65681" lon="0.47436">
        <ele>54.8</ele>
        <time>2016-06-16T08:48:41Z</time>
      </trkpt>
      <trkpt lat="47.65691" lon="0.47433">
        <ele>55.1</ele>
        <time>2016-06-16T08:48:49Z</time>
      </trkpt>
      <trkpt lat="47.65699" lon="0.47428">
        <ele>55.4</ele>
        <time>2016-06-16T08:48:57Z</time>
      </trkpt>
      <trkpt lat="47.65709" lon="0.47425">
        <ele>54.6</ele>
        <time>2016-06-16T08:49:06Z</time>
      </trkpt>
      <trkpt lat="47.65719" lon="0.47423">
        <ele>55.1</ele>
        <time>2016-06-16T08:49:15Z</time>
      </trkpt>
      <trkpt lat="47.65728" lon="0.47418">
        <ele>55.4</ele>
        <time>2016-06-16T08:49:23Z</time>
      </trkpt>
      <trkpt lat="47.65737" lon="0.47416">
        <ele>55.6</ele>
        <time>2016-06-16T08:49:32Z</time>
      </trkpt>
      <trkpt lat="47.65745" lon="0.47411">
        <ele>53.5</ele>
        <time>2016-06-16T08:49:41Z</time>
      </trkpt>
      <trkpt lat="47.65754" lon="0.47404">
        <ele>56.3</ele>
        <time>2016-06-16T08:50:54Z</time>
      </trkpt>
      <trkpt lat="47.65762" lon="0.47395">
        <ele>55.9</ele>
        <time>2016-06-16T08:51:13Z</time>
      </trkpt>
      <trkpt lat="47.65771" lon="0.47392">
        <ele>56.3</ele>
        <time>2016-06-16T08:51:23Z</time>
      </trkpt>
      <trkpt lat="47.6578" lon="0.47389">
        <ele>56.5</ele>
        <time>2016-06-16T08:51:31Z</time>
      </trkpt>
      <trkpt lat="47.65789" lon="0.47385">
        <ele>56.4</ele>
        <time>2016-06-16T08:51:40Z</time>
      </trkpt>
      <trkpt lat="47.65799" lon="0.47379">
        <ele>56.7</ele>
        <time>2016-06-16T08:51:50Z</time>
      </trkpt>
      <trkpt lat="47.65809" lon="0.47376">
        <ele>57</ele>
        <time>2016-06-16T08:52:00Z</time>
      </trkpt>
      <trkpt lat="47.65818" lon="0.4737">
        <ele>56.9</ele>
        <time>2016-06-16T08:52:09Z</time>
      </trkpt>
      <trkpt lat="47.65827" lon="0.47366">
        <ele>57.7</ele>
        <time>2016-06-16T08:52:17Z</time>
      </trkpt>
      <trkpt lat="47.65836" lon="0.47361">
        <ele>59.4</ele>
        <time>2016-06-16T08:52:27Z</time>
      </trkpt>
      <trkpt lat="47.65845" lon="0.47358">
        <ele>58.9</ele>
        <time>2016-06-16T08:52:35Z</time>
      </trkpt>
      <trkpt lat="47.65853" lon="0.47352">
        <ele>58.5</ele>
        <time>2016-06-16T08:52:42Z</time>
      </trkpt>
      <trkpt lat="47.65862" lon="0.47346">
        <ele>57.4</ele>
        <time>2016-06-16T08:52:49Z</time>
      </trkpt>
      <trkpt lat="47.65871" lon="0.47341">
        <ele>57.2</ele>
        <time>2016-06-16T08:52:58Z</time>
      </trkpt>
      <trkpt lat="47.6588" lon="0.47335">
        <ele>57.9</ele>
        <time>2016-06-16T08:53:05Z</time>
      </trkpt>
      <trkpt lat="47.65889" lon="0.47329">
        <ele>58</ele>
        <time>2016-06-16T08:53:14Z</time>
      </trkpt>
      <trkpt lat="47.65898" lon="0.47326">
        <ele>58.6</ele>
        <time>2016-06-16T08:53:23Z</time>
      </trkpt>
      <trkpt lat="47.65907" lon="0.47322">
        <ele>58.5</ele>
        <time>2016-06-16T08:53:31Z</time>
      </trkpt>
      <trkpt lat="47.65916" lon="0.47319">
        <ele>59</ele>
        <time>2016-06-16T08:53:39Z</time>
      </trkpt>
      <trkpt lat="47.65925" lon="0.47313">
        <ele>58.9</ele>
        <time>2016-06-16T08:53:48Z</time>
      </trkpt>
      <trkpt lat="47.65933" lon="0.47306">
        <ele>59.2</ele>
        <time>2016-06-16T08:53:55Z</time>
      </trkpt>
      <trkpt lat="47.65942" lon="0.47302">
        <ele>59.4</ele>
        <time>2016-06-16T08:54:03Z</time>
      </trkpt>
      <trkpt lat="47.65951" lon="0.47295">
        <ele>59.3</ele>
        <time>2016-06-16T08:54:11Z</time>
      </trkpt>
      <trkpt lat="47.6596" lon="0.47291">
        <ele>60.1</ele>
        <time>2016-06-16T08:54:19Z</time>
      </trkpt>
      <trkpt lat="47.65969" lon="0.47285">
        <ele>60.1</ele>
        <time>2016-06-16T08:54:28Z</time>
      </trkpt>
      <trkpt lat="47.65978" lon="0.4728">
        <ele>60.1</ele>
        <time>2016-06-16T08:54:36Z</time>
      </trkpt>
      <trkpt lat="47.65987" lon="0.47273">
        <ele>61</ele>
        <time>2016-06-16T08:54:45Z</time>
      </trkpt>
      <trkpt lat="47.65995" lon="0.47267">
        <ele>60.8</ele>
        <time>2016-06-16T08:54:53Z</time>
      </trkpt>
      <trkpt lat="47.66004" lon="0.47261">
        <ele>60.8</ele>
        <time>2016-06-16T08:55:02Z</time>
      </trkpt>
      <trkpt lat="47.66013" lon="0.47256">
        <ele>61</ele>
        <time>2016-06-16T08:55:10Z</time>
      </trkpt>
      <trkpt lat="47.66022" lon="0.4725">
        <ele>61.1</ele>
        <time>2016-06-16T08:55:18Z</time>
      </trkpt>
      <trkpt lat="47.66031" lon="0.47244">
        <ele>59.8</ele>
        <time>2016-06-16T08:55:26Z</time>
      </trkpt>
      <trkpt lat="47.6604" lon="0.4724">
        <ele>59.8</ele>
        <time>2016-06-16T08:55:34Z</time>
      </trkpt>
      <trkpt lat="47.66049" lon="0.47233">
        <ele>60.1</ele>
        <time>2016-06-16T08:55:42Z</time>
      </trkpt>
      <trkpt lat="47.66058" lon="0.47228">
        <ele>59.8</ele>
        <time>2016-06-16T08:55:50Z</time>
      </trkpt>
      <trkpt lat="47.66067" lon="0.47221">
        <ele>59.4</ele>
        <time>2016-06-16T08:55:58Z</time>
      </trkpt>
      <trkpt lat="47.66076" lon="0.47217">
        <ele>59.7</ele>
        <time>2016-06-16T08:56:06Z</time>
      </trkpt>
      <trkpt lat="47.66085" lon="0.47209">
        <ele>59.2</ele>
        <time>2016-06-16T08:56:14Z</time>
      </trkpt>
      <trkpt lat="47.66094" lon="0.47205">
        <ele>58.8</ele>
        <time>2016-06-16T08:56:22Z</time>
      </trkpt>
      <trkpt lat="47.66103" lon="0.47198">
        <ele>59</ele>
        <time>2016-06-16T08:56:29Z</time>
      </trkpt>
      <trkpt lat="47.66112" lon="0.47194">
        <ele>59.5</ele>
        <time>2016-06-16T08:56:37Z</time>
      </trkpt>
      <trkpt lat="47.66121" lon="0.47191">
        <ele>59.1</ele>
        <time>2016-06-16T08:56:45Z</time>
      </trkpt>
      <trkpt lat="47.6613" lon="0.47187">
        <ele>58.5</ele>
        <time>2016-06-16T08:56:53Z</time>
      </trkpt>
      <trkpt lat="47.66139" lon="0.47183">
        <ele>59.4</ele>
        <time>2016-06-16T08:57:01Z</time>
      </trkpt>
      <trkpt lat="47.66149" lon="0.47181">
        <ele>59.2</ele>
        <time>2016-06-16T08:57:09Z</time>
      </trkpt>
      <trkpt lat="47.6616" lon="0.47179">
        <ele>58.3</ele>
        <time>2016-06-16T08:57:17Z</time>
      </trkpt>
      <trkpt lat="47.66168" lon="0.47174">
        <ele>58.4</ele>
        <time>2016-06-16T08:57:24Z</time>
      </trkpt>
      <trkpt lat="47.66177" lon="0.47168">
        <ele>58.9</ele>
        <time>2016-06-16T08:57:32Z</time>
      </trkpt>
      <trkpt lat="47.66186" lon="0.47159">
        <ele>59.1</ele>
        <time>2016-06-16T08:57:40Z</time>
      </trkpt>
      <trkpt lat="47.66194" lon="0.47153">
        <ele>59.6</ele>
        <time>2016-06-16T08:57:49Z</time>
      </trkpt>
      <trkpt lat="47.66203" lon="0.47146">
        <ele>59.5</ele>
        <time>2016-06-16T08:57:57Z</time>
      </trkpt>
      <trkpt lat="47.6621" lon="0.47138">
        <ele>60.1</ele>
        <time>2016-06-16T08:58:05Z</time>
      </trkpt>
      <trkpt lat="47.66219" lon="0.47132">
        <ele>60.1</ele>
        <time>2016-06-16T08:58:13Z</time>
      </trkpt>
      <trkpt lat="47.66227" lon="0.47125">
        <ele>61.1</ele>
        <time>2016-06-16T08:58:21Z</time>
      </trkpt>
      <trkpt lat="47.66234" lon="0.47117">
        <ele>60.8</ele>
        <time>2016-06-16T08:58:28Z</time>
      </trkpt>
      <trkpt lat="47.66243" lon="0.4711">
        <ele>61.8</ele>
        <time>2016-06-16T08:58:35Z</time>
      </trkpt>
      <trkpt lat="47.6625" lon="0.47103">
        <ele>62.6</ele>
        <time>2016-06-16T08:58:43Z</time>
      </trkpt>
      <trkpt lat="47.66259" lon="0.47098">
        <ele>63.7</ele>
        <time>2016-06-16T08:58:51Z</time>
      </trkpt>
      <trkpt lat="47.66267" lon="0.47091">
        <ele>62.5</ele>
        <time>2016-06-16T08:58:58Z</time>
      </trkpt>
      <trkpt lat="47.66275" lon="0.47085">
        <ele>62.8</ele>
        <time>2016-06-16T08:59:05Z</time>
      </trkpt>
      <trkpt lat="47.66284" lon="0.47079">
        <ele>63.3</ele>
        <time>2016-06-16T08:59:13Z</time>
      </trkpt>
      <trkpt lat="47.66292" lon="0.47071">
        <ele>64</ele>
        <time>2016-06-16T08:59:21Z</time>
      </trkpt>
      <trkpt lat="47.66301" lon="0.47065">
        <ele>63.5</ele>
        <time>2016-06-16T08:59:29Z</time>
      </trkpt>
      <trkpt lat="47.66309" lon="0.47058">
        <ele>63.4</ele>
        <time>2016-06-16T08:59:37Z</time>
      </trkpt>
      <trkpt lat="47.66317" lon="0.47051">
        <ele>64</ele>
        <time>2016-06-16T08:59:44Z</time>
      </trkpt>
      <trkpt lat="47.66325" lon="0.47044">
        <ele>64.2</ele>
        <time>2016-06-16T08:59:52Z</time>
      </trkpt>
      <trkpt lat="47.66333" lon="0.47037">
        <ele>64</ele>
        <time>2016-06-16T08:59:59Z</time>
      </trkpt>
      <trkpt lat="47.66341" lon="0.47028">
        <ele>65.1</ele>
        <time>2016-06-16T09:00:07Z</time>
      </trkpt>
      <trkpt lat="47.66349" lon="0.4702">
        <ele>65.9</ele>
        <time>2016-06-16T09:00:14Z</time>
      </trkpt>
      <trkpt lat="47.66357" lon="0.47013">
        <ele>65.9</ele>
        <time>2016-06-16T09:00:33Z</time>
      </trkpt>
      <trkpt lat="47.66365" lon="0.47005">
        <ele>66.2</ele>
        <time>2016-06-16T09:00:40Z</time>
      </trkpt>
      <trkpt lat="47.66372" lon="0.46999">
        <ele>66.3</ele>
        <time>2016-06-16T09:00:47Z</time>
      </trkpt>
      <trkpt lat="47.66381" lon="0.4699">
        <ele>65.6</ele>
        <time>2016-06-16T09:00:55Z</time>
      </trkpt>
      <trkpt lat="47.66389" lon="0.46983">
        <ele>67.1</ele>
        <time>2016-06-16T09:01:02Z</time>
      </trkpt>
      <trkpt lat="47.66397" lon="0.46976">
        <ele>67.1</ele>
        <time>2016-06-16T09:01:10Z</time>
      </trkpt>
      <trkpt lat="47.66405" lon="0.46968">
        <ele>66</ele>
        <time>2016-06-16T09:01:18Z</time>
      </trkpt>
      <trkpt lat="47.66413" lon="0.4696">
        <ele>67</ele>
        <time>2016-06-16T09:01:26Z</time>
      </trkpt>
      <trkpt lat="47.66421" lon="0.46953">
        <ele>67.5</ele>
        <time>2016-06-16T09:01:33Z</time>
      </trkpt>
      <trkpt lat="47.66429" lon="0.46945">
        <ele>67.4</ele>
        <time>2016-06-16T09:01:40Z</time>
      </trkpt>
      <trkpt lat="47.66436" lon="0.46937">
        <ele>67.4</ele>
        <time>2016-06-16T09:01:47Z</time>
      </trkpt>
      <trkpt lat="47.66444" lon="0.46932">
        <ele>66.9</ele>
        <time>2016-06-16T09:01:54Z</time>
      </trkpt>
      <trkpt lat="47.66452" lon="0.46923">
        <ele>66.4</ele>
        <time>2016-06-16T09:02:01Z</time>
      </trkpt>
      <trkpt lat="47.6646" lon="0.46916">
        <ele>66</ele>
        <time>2016-06-16T09:02:08Z</time>
      </trkpt>
      <trkpt lat="47.66467" lon="0.46905">
        <ele>65.7</ele>
        <time>2016-06-16T09:02:44Z</time>
      </trkpt>
      <trkpt lat="47.66476" lon="0.46898">
        <ele>65.6</ele>
        <time>2016-06-16T09:02:55Z</time>
      </trkpt>
      <trkpt lat="47.66485" lon="0.46891">
        <ele>65.3</ele>
        <time>2016-06-16T09:03:04Z</time>
      </trkpt>
      <trkpt lat="47.66493" lon="0.46884">
        <ele>65.4</ele>
        <time>2016-06-16T09:03:12Z</time>
      </trkpt>
      <trkpt lat="47.66501" lon="0.46874">
        <ele>65.7</ele>
        <time>2016-06-16T09:03:19Z</time>
      </trkpt>
      <trkpt lat="47.66506" lon="0.46862">
        <ele>65.6</ele>
        <time>2016-06-16T09:03:27Z</time>
      </trkpt>
      <trkpt lat="47.6651" lon="0.46849">
        <ele>65.1</ele>
        <time>2016-06-16T09:03:35Z</time>
      </trkpt>
      <trkpt lat="47.6651" lon="0.46835">
        <ele>66.1</ele>
        <time>2016-06-16T09:03:43Z</time>
      </trkpt>
      <trkpt lat="47.66511" lon="0.46821">
        <ele>66.9</ele>
        <time>2016-06-16T09:03:51Z</time>
      </trkpt>
      <trkpt lat="47.66511" lon="0.46806">
        <ele>67</ele>
        <time>2016-06-16T09:04:00Z</time>
      </trkpt>
      <trkpt lat="47.66509" lon="0.46791">
        <ele>67</ele>
        <time>2016-06-16T09:04:09Z</time>
      </trkpt>
      <trkpt lat="47.66508" lon="0.46776">
        <ele>67.1</ele>
        <time>2016-06-16T09:04:19Z</time>
      </trkpt>
      <trkpt lat="47.66506" lon="0.46762">
        <ele>67.1</ele>
        <time>2016-06-16T09:04:27Z</time>
      </trkpt>
      <trkpt lat="47.66505" lon="0.46748">
        <ele>67.7</ele>
        <time>2016-06-16T09:04:35Z</time>
      </trkpt>
      <trkpt lat="47.66504" lon="0.46734">
        <ele>67.5</ele>
        <time>2016-06-16T09:04:44Z</time>
      </trkpt>
      <trkpt lat="47.66501" lon="0.4672">
        <ele>68.2</ele>
        <time>2016-06-16T09:04:52Z</time>
      </trkpt>
      <trkpt lat="47.66498" lon="0.46707">
        <ele>68.8</ele>
        <time>2016-06-16T09:05:01Z</time>
      </trkpt>
      <trkpt lat="47.66494" lon="0.46693">
        <ele>69</ele>
        <time>2016-06-16T09:05:09Z</time>
      </trkpt>
      <trkpt lat="47.6649" lon="0.4668">
        <ele>69.6</ele>
        <time>2016-06-16T09:05:17Z</time>
      </trkpt>
      <trkpt lat="47.66488" lon="0.46666">
        <ele>70</ele>
        <time>2016-06-16T09:05:25Z</time>
      </trkpt>
      <trkpt lat="47.66485" lon="0.46652">
        <ele>70.1</ele>
        <time>2016-06-16T09:05:34Z</time>
      </trkpt>
      <trkpt lat="47.66481" lon="0.46639">
        <ele>70.9</ele>
        <time>2016-06-16T09:05:42Z</time>
      </trkpt>
      <trkpt lat="47.66478" lon="0.46625">
        <ele>70.4</ele>
        <time>2016-06-16T09:05:50Z</time>
      </trkpt>
      <trkpt lat="47.66475" lon="0.46613">
        <ele>70.6</ele>
        <time>2016-06-16T09:05:58Z</time>
      </trkpt>
      <trkpt lat="47.66473" lon="0.46599">
        <ele>70.9</ele>
        <time>2016-06-16T09:06:18Z</time>
      </trkpt>
      <trkpt lat="47.66469" lon="0.46586">
        <ele>71.3</ele>
        <time>2016-06-16T09:06:26Z</time>
      </trkpt>
      <trkpt lat="47.66467" lon="0.46571">
        <ele>71.1</ele>
        <time>2016-06-16T09:06:34Z</time>
      </trkpt>
      <trkpt lat="47.66465" lon="0.46558">
        <ele>72.1</ele>
        <time>2016-06-16T09:06:41Z</time>
      </trkpt>
      <trkpt lat="47.66463" lon="0.46544">
        <ele>71.6</ele>
        <time>2016-06-16T09:06:48Z</time>
      </trkpt>
      <trkpt lat="47.66462" lon="0.46529">
        <ele>70.7</ele>
        <time>2016-06-16T09:06:56Z</time>
      </trkpt>
      <trkpt lat="47.66459" lon="0.46516">
        <ele>71</ele>
        <time>2016-06-16T09:07:03Z</time>
      </trkpt>
      <trkpt lat="47.66458" lon="0.46501">
        <ele>72</ele>
        <time>2016-06-16T09:07:12Z</time>
      </trkpt>
      <trkpt lat="47.66457" lon="0.46486">
        <ele>71.3</ele>
        <time>2016-06-16T09:07:20Z</time>
      </trkpt>
      <trkpt lat="47.66457" lon="0.46472">
        <ele>70.1</ele>
        <time>2016-06-16T09:07:28Z</time>
      </trkpt>
      <trkpt lat="47.66456" lon="0.46457">
        <ele>70.8</ele>
        <time>2016-06-16T09:07:36Z</time>
      </trkpt>
      <trkpt lat="47.66456" lon="0.46443">
        <ele>70.8</ele>
        <time>2016-06-16T09:07:44Z</time>
      </trkpt>
      <trkpt lat="47.66455" lon="0.46428">
        <ele>70.9</ele>
        <time>2016-06-16T09:07:52Z</time>
      </trkpt>
      <trkpt lat="47.66456" lon="0.46413">
        <ele>69.7</ele>
        <time>2016-06-16T09:08:00Z</time>
      </trkpt>
      <trkpt lat="47.66457" lon="0.46398">
        <ele>69.5</ele>
        <time>2016-06-16T09:08:08Z</time>
      </trkpt>
      <trkpt lat="47.66457" lon="0.46384">
        <ele>69.9</ele>
        <time>2016-06-16T09:08:16Z</time>
      </trkpt>
      <trkpt lat="47.66457" lon="0.4637">
        <ele>70.3</ele>
        <time>2016-06-16T09:08:23Z</time>
      </trkpt>
      <trkpt lat="47.66458" lon="0.46356">
        <ele>69.9</ele>
        <time>2016-06-16T09:08:31Z</time>
      </trkpt>
      <trkpt lat="47.66459" lon="0.46341">
        <ele>69.6</ele>
        <time>2016-06-16T09:08:40Z</time>
      </trkpt>
      <trkpt lat="47.66458" lon="0.46327">
        <ele>70.4</ele>
        <time>2016-06-16T09:08:48Z</time>
      </trkpt>
      <trkpt lat="47.66458" lon="0.46313">
        <ele>70.5</ele>
        <time>2016-06-16T09:08:55Z</time>
      </trkpt>
      <trkpt lat="47.66457" lon="0.46298">
        <ele>70.3</ele>
        <time>2016-06-16T09:09:03Z</time>
      </trkpt>
      <trkpt lat="47.66456" lon="0.46285">
        <ele>69.6</ele>
        <time>2016-06-16T09:09:10Z</time>
      </trkpt>
      <trkpt lat="47.66453" lon="0.46271">
        <ele>70.2</ele>
        <time>2016-06-16T09:09:18Z</time>
      </trkpt>
      <trkpt lat="47.66451" lon="0.46258">
        <ele>70.3</ele>
        <time>2016-06-16T09:09:25Z</time>
      </trkpt>
      <trkpt lat="47.66448" lon="0.46244">
        <ele>70.6</ele>
        <time>2016-06-16T09:09:33Z</time>
      </trkpt>
      <trkpt lat="47.66445" lon="0.4623">
        <ele>69.9</ele>
        <time>2016-06-16T09:09:41Z</time>
      </trkpt>
      <trkpt lat="47.66442" lon="0.46216">
        <ele>69.7</ele>
        <time>2016-06-16T09:09:49Z</time>
      </trkpt>
      <trkpt lat="47.66438" lon="0.46203">
        <ele>70</ele>
        <time>2016-06-16T09:09:57Z</time>
      </trkpt>
      <trkpt lat="47.66433" lon="0.4619">
        <ele>70.2</ele>
        <time>2016-06-16T09:10:05Z</time>
      </trkpt>
      <trkpt lat="47.6643" lon="0.46176">
        <ele>70.5</ele>
        <time>2016-06-16T09:10:13Z</time>
      </trkpt>
      <trkpt lat="47.6643" lon="0.46162">
        <ele>70.8</ele>
        <time>2016-06-16T09:10:21Z</time>
      </trkpt>
      <trkpt lat="47.66438" lon="0.46153">
        <ele>70.6</ele>
        <time>2016-06-16T09:10:29Z</time>
      </trkpt>
      <trkpt lat="47.66446" lon="0.46144">
        <ele>68.5</ele>
        <time>2016-06-16T09:14:06Z</time>
      </trkpt>
      <trkpt lat="47.66454" lon="0.46139">
        <ele>68</ele>
        <time>2016-06-16T09:14:16Z</time>
      </trkpt>
      <trkpt lat="47.66463" lon="0.46133">
        <ele>68</ele>
        <time>2016-06-16T09:14:33Z</time>
      </trkpt>
      <trkpt lat="47.66472" lon="0.46128">
        <ele>67.1</ele>
        <time>2016-06-16T09:14:40Z</time>
      </trkpt>
      <trkpt lat="47.66481" lon="0.46123">
        <ele>66.2</ele>
        <time>2016-06-16T09:14:47Z</time>
      </trkpt>
      <trkpt lat="47.66489" lon="0.46116">
        <ele>66.6</ele>
        <time>2016-06-16T09:14:55Z</time>
      </trkpt>
      <trkpt lat="47.66498" lon="0.4611">
        <ele>66.3</ele>
        <time>2016-06-16T09:15:03Z</time>
      </trkpt>
      <trkpt lat="47.66508" lon="0.46105">
        <ele>66.3</ele>
        <time>2016-06-16T09:15:11Z</time>
      </trkpt>
      <trkpt lat="47.66516" lon="0.46099">
        <ele>65.7</ele>
        <time>2016-06-16T09:15:19Z</time>
      </trkpt>
      <trkpt lat="47.66525" lon="0.46092">
        <ele>65.1</ele>
        <time>2016-06-16T09:15:26Z</time>
      </trkpt>
      <trkpt lat="47.66533" lon="0.46088">
        <ele>65.2</ele>
        <time>2016-06-16T09:15:33Z</time>
      </trkpt>
      <trkpt lat="47.66542" lon="0.46082">
        <ele>64.9</ele>
        <time>2016-06-16T09:15:41Z</time>
      </trkpt>
      <trkpt lat="47.66551" lon="0.46077">
        <ele>65.1</ele>
        <time>2016-06-16T09:15:49Z</time>
      </trkpt>
      <trkpt lat="47.66559" lon="0.46071">
        <ele>64.4</ele>
        <time>2016-06-16T09:15:56Z</time>
      </trkpt>
      <trkpt lat="47.66568" lon="0.46065">
        <ele>64.4</ele>
        <time>2016-06-16T09:16:04Z</time>
      </trkpt>
      <trkpt lat="47.66577" lon="0.4606">
        <ele>64.8</ele>
        <time>2016-06-16T09:16:12Z</time>
      </trkpt>
      <trkpt lat="47.66586" lon="0.46053">
        <ele>64.2</ele>
        <time>2016-06-16T09:16:20Z</time>
      </trkpt>
      <trkpt lat="47.66595" lon="0.46047">
        <ele>63.9</ele>
        <time>2016-06-16T09:16:28Z</time>
      </trkpt>
      <trkpt lat="47.66604" lon="0.46041">
        <ele>63.7</ele>
        <time>2016-06-16T09:16:36Z</time>
      </trkpt>
      <trkpt lat="47.66613" lon="0.46035">
        <ele>62.7</ele>
        <time>2016-06-16T09:16:44Z</time>
      </trkpt>
      <trkpt lat="47.66622" lon="0.46029">
        <ele>62.4</ele>
        <time>2016-06-16T09:16:52Z</time>
      </trkpt>
      <trkpt lat="47.66631" lon="0.46026">
        <ele>63.3</ele>
        <time>2016-06-16T09:17:00Z</time>
      </trkpt>
      <trkpt lat="47.66639" lon="0.46021">
        <ele>62.5</ele>
        <time>2016-06-16T09:17:09Z</time>
      </trkpt>
      <trkpt lat="47.66648" lon="0.46013">
        <ele>62.3</ele>
        <time>2016-06-16T09:17:17Z</time>
      </trkpt>
      <trkpt lat="47.66656" lon="0.46006">
        <ele>61.2</ele>
        <time>2016-06-16T09:17:26Z</time>
      </trkpt>
      <trkpt lat="47.66665" lon="0.46">
        <ele>60.8</ele>
        <time>2016-06-16T09:17:35Z</time>
      </trkpt>
      <trkpt lat="47.66674" lon="0.45993">
        <ele>60.1</ele>
        <time>2016-06-16T09:17:42Z</time>
      </trkpt>
      <trkpt lat="47.66682" lon="0.45988">
        <ele>58.8</ele>
        <time>2016-06-16T09:17:50Z</time>
      </trkpt>
      <trkpt lat="47.6669" lon="0.45981">
        <ele>58.5</ele>
        <time>2016-06-16T09:17:58Z</time>
      </trkpt>
      <trkpt lat="47.66698" lon="0.45976">
        <ele>57.7</ele>
        <time>2016-06-16T09:18:05Z</time>
      </trkpt>
      <trkpt lat="47.66706" lon="0.45969">
        <ele>56.8</ele>
        <time>2016-06-16T09:18:12Z</time>
      </trkpt>
      <trkpt lat="47.66713" lon="0.4596">
        <ele>56.4</ele>
        <time>2016-06-16T09:18:20Z</time>
      </trkpt>
      <trkpt lat="47.66713" lon="0.45946">
        <ele>55.9</ele>
        <time>2016-06-16T09:18:29Z</time>
      </trkpt>
      <trkpt lat="47.66708" lon="0.45932">
        <ele>55.5</ele>
        <time>2016-06-16T09:18:38Z</time>
      </trkpt>
      <trkpt lat="47.66703" lon="0.4592">
        <ele>55</ele>
        <time>2016-06-16T09:18:46Z</time>
      </trkpt>
      <trkpt lat="47.66697" lon="0.45908">
        <ele>56.1</ele>
        <time>2016-06-16T09:18:54Z</time>
      </trkpt>
      <trkpt lat="47.66692" lon="0.45896">
        <ele>55.2</ele>
        <time>2016-06-16T09:19:02Z</time>
      </trkpt>
      <trkpt lat="47.66688" lon="0.45884">
        <ele>56.1</ele>
        <time>2016-06-16T09:19:10Z</time>
      </trkpt>
      <trkpt lat="47.66682" lon="0.45872">
        <ele>55.6</ele>
        <time>2016-06-16T09:19:18Z</time>
      </trkpt>
      <trkpt lat="47.66677" lon="0.45859">
        <ele>55.5</ele>
        <time>2016-06-16T09:19:27Z</time>
      </trkpt>
      <trkpt lat="47.66672" lon="0.45847">
        <ele>55.2</ele>
        <time>2016-06-16T09:20:02Z</time>
      </trkpt>
      <trkpt lat="47.66667" lon="0.45835">
        <ele>55.4</ele>
        <time>2016-06-16T09:20:11Z</time>
      </trkpt>
      <trkpt lat="47.66662" lon="0.45823">
        <ele>55.4</ele>
        <time>2016-06-16T09:20:20Z</time>
      </trkpt>
      <trkpt lat="47.66656" lon="0.4581">
        <ele>55.5</ele>
        <time>2016-06-16T09:20:28Z</time>
      </trkpt>
      <trkpt lat="47.66651" lon="0.45799">
        <ele>55.6</ele>
        <time>2016-06-16T09:20:35Z</time>
      </trkpt>
      <trkpt lat="47.66646" lon="0.45786">
        <ele>55.3</ele>
        <time>2016-06-16T09:20:43Z</time>
      </trkpt>
      <trkpt lat="47.66642" lon="0.45773">
        <ele>55.2</ele>
        <time>2016-06-16T09:20:51Z</time>
      </trkpt>
      <trkpt lat="47.66637" lon="0.45761">
        <ele>55.5</ele>
        <time>2016-06-16T09:20:59Z</time>
      </trkpt>
      <trkpt lat="47.66632" lon="0.45748">
        <ele>55.6</ele>
        <time>2016-06-16T09:21:07Z</time>
      </trkpt>
      <trkpt lat="47.66627" lon="0.45737">
        <ele>55.8</ele>
        <time>2016-06-16T09:21:15Z</time>
      </trkpt>
      <trkpt lat="47.66622" lon="0.45724">
        <ele>56.2</ele>
        <time>2016-06-16T09:21:23Z</time>
      </trkpt>
      <trkpt lat="47.66617" lon="0.45712">
        <ele>55.9</ele>
        <time>2016-06-16T09:21:31Z</time>
      </trkpt>
      <trkpt lat="47.66611" lon="0.457">
        <ele>56</ele>
        <time>2016-06-16T09:21:39Z</time>
      </trkpt>
      <trkpt lat="47.66605" lon="0.45689">
        <ele>56.1</ele>
        <time>2016-06-16T09:21:46Z</time>
      </trkpt>
      <trkpt lat="47.666" lon="0.45677">
        <ele>55.7</ele>
        <time>2016-06-16T09:21:54Z</time>
      </trkpt>
      <trkpt lat="47.66595" lon="0.45666">
        <ele>56</ele>
        <time>2016-06-16T09:22:02Z</time>
      </trkpt>
      <trkpt lat="47.66589" lon="0.45654">
        <ele>55.8</ele>
        <time>2016-06-16T09:22:10Z</time>
      </trkpt>
      <trkpt lat="47.66584" lon="0.45643">
        <ele>55.9</ele>
        <time>2016-06-16T09:22:18Z</time>
      </trkpt>
      <trkpt lat="47.66578" lon="0.4563">
        <ele>56.5</ele>
        <time>2016-06-16T09:22:26Z</time>
      </trkpt>
      <trkpt lat="47.66573" lon="0.45618">
        <ele>56.5</ele>
        <time>2016-06-16T09:22:34Z</time>
      </trkpt>
      <trkpt lat="47.66568" lon="0.45605">
        <ele>56</ele>
        <time>2016-06-16T09:22:42Z</time>
      </trkpt>
      <trkpt lat="47.66564" lon="0.45593">
        <ele>56.6</ele>
        <time>2016-06-16T09:22:50Z</time>
      </trkpt>
      <trkpt lat="47.66559" lon="0.45581">
        <ele>56.7</ele>
        <time>2016-06-16T09:22:58Z</time>
      </trkpt>
      <trkpt lat="47.66555" lon="0.45569">
        <ele>56.1</ele>
        <time>2016-06-16T09:23:08Z</time>
      </trkpt>
      <trkpt lat="47.6655" lon="0.45556">
        <ele>56.1</ele>
        <time>2016-06-16T09:23:16Z</time>
      </trkpt>
      <trkpt lat="47.66545" lon="0.45543">
        <ele>55.9</ele>
        <time>2016-06-16T09:23:24Z</time>
      </trkpt>
      <trkpt lat="47.66541" lon="0.4553">
        <ele>56.1</ele>
        <time>2016-06-16T09:23:32Z</time>
      </trkpt>
      <trkpt lat="47.66536" lon="0.45517">
        <ele>55.3</ele>
        <time>2016-06-16T09:23:40Z</time>
      </trkpt>
      <trkpt lat="47.66531" lon="0.45506">
        <ele>55.8</ele>
        <time>2016-06-16T09:23:48Z</time>
      </trkpt>
      <trkpt lat="47.66527" lon="0.45492">
        <ele>56.1</ele>
        <time>2016-06-16T09:23:56Z</time>
      </trkpt>
      <trkpt lat="47.66523" lon="0.45479">
        <ele>55.8</ele>
        <time>2016-06-16T09:24:04Z</time>
      </trkpt>
      <trkpt lat="47.66521" lon="0.45466">
        <ele>56.6</ele>
        <time>2016-06-16T09:24:11Z</time>
      </trkpt>
      <trkpt lat="47.66518" lon="0.45451">
        <ele>56</ele>
        <time>2016-06-16T09:24:19Z</time>
      </trkpt>
      <trkpt lat="47.66515" lon="0.45437">
        <ele>55</ele>
        <time>2016-06-16T09:24:27Z</time>
      </trkpt>
      <trkpt lat="47.66511" lon="0.45424">
        <ele>55.2</ele>
        <time>2016-06-16T09:24:35Z</time>
      </trkpt>
      <trkpt lat="47.66508" lon="0.45411">
        <ele>55.7</ele>
        <time>2016-06-16T09:24:43Z</time>
      </trkpt>
      <trkpt lat="47.66506" lon="0.45397">
        <ele>55.3</ele>
        <time>2016-06-16T09:24:51Z</time>
      </trkpt>
      <trkpt lat="47.66502" lon="0.45382">
        <ele>55.2</ele>
        <time>2016-06-16T09:24:59Z</time>
      </trkpt>
      <trkpt lat="47.665" lon="0.45369">
        <ele>55.2</ele>
        <time>2016-06-16T09:25:06Z</time>
      </trkpt>
      <trkpt lat="47.66497" lon="0.45355">
        <ele>55.1</ele>
        <time>2016-06-16T09:25:14Z</time>
      </trkpt>
      <trkpt lat="47.66495" lon="0.45341">
        <ele>54</ele>
        <time>2016-06-16T09:25:22Z</time>
      </trkpt>
      <trkpt lat="47.66492" lon="0.45327">
        <ele>54.8</ele>
        <time>2016-06-16T09:25:30Z</time>
      </trkpt>
      <trkpt lat="47.66489" lon="0.45314">
        <ele>55.1</ele>
        <time>2016-06-16T09:25:38Z</time>
      </trkpt>
      <trkpt lat="47.66486" lon="0.45301">
        <ele>54.6</ele>
        <time>2016-06-16T09:25:46Z</time>
      </trkpt>
      <trkpt lat="47.66484" lon="0.45287">
        <ele>54.6</ele>
        <time>2016-06-16T09:25:54Z</time>
      </trkpt>
      <trkpt lat="47.6648" lon="0.45274">
        <ele>55.1</ele>
        <time>2016-06-16T09:26:02Z</time>
      </trkpt>
      <trkpt lat="47.66478" lon="0.4526">
        <ele>54.8</ele>
        <time>2016-06-16T09:26:10Z</time>
      </trkpt>
      <trkpt lat="47.66475" lon="0.45246">
        <ele>55</ele>
        <time>2016-06-16T09:26:19Z</time>
      </trkpt>
      <trkpt lat="47.66471" lon="0.45232">
        <ele>54.7</ele>
        <time>2016-06-16T09:26:27Z</time>
      </trkpt>
      <trkpt lat="47.66468" lon="0.45218">
        <ele>54.9</ele>
        <time>2016-06-16T09:26:36Z</time>
      </trkpt>
      <trkpt lat="47.66465" lon="0.45205">
        <ele>54.3</ele>
        <time>2016-06-16T09:26:44Z</time>
      </trkpt>
      <trkpt lat="47.66462" lon="0.45193">
        <ele>55.2</ele>
        <time>2016-06-16T09:26:52Z</time>
      </trkpt>
      <trkpt lat="47.66458" lon="0.45179">
        <ele>55.6</ele>
        <time>2016-06-16T09:27:00Z</time>
      </trkpt>
      <trkpt lat="47.66455" lon="0.45167">
        <ele>55.5</ele>
        <time>2016-06-16T09:27:08Z</time>
      </trkpt>
      <trkpt lat="47.66451" lon="0.45154">
        <ele>55.4</ele>
        <time>2016-06-16T09:27:16Z</time>
      </trkpt>
      <trkpt lat="47.66447" lon="0.45141">
        <ele>54.7</ele>
        <time>2016-06-16T09:27:25Z</time>
      </trkpt>
      <trkpt lat="47.66443" lon="0.45127">
        <ele>54.6</ele>
        <time>2016-06-16T09:27:33Z</time>
      </trkpt>
      <trkpt lat="47.66439" lon="0.45115">
        <ele>55.4</ele>
        <time>2016-06-16T09:27:41Z</time>
      </trkpt>
      <trkpt lat="47.66434" lon="0.45102">
        <ele>54.8</ele>
        <time>2016-06-16T09:27:49Z</time>
      </trkpt>
      <trkpt lat="47.6643" lon="0.4509">
        <ele>55.2</ele>
        <time>2016-06-16T09:27:59Z</time>
      </trkpt>
      <trkpt lat="47.66425" lon="0.45077">
        <ele>54</ele>
        <time>2016-06-16T09:28:10Z</time>
      </trkpt>
      <trkpt lat="47.6642" lon="0.45065">
        <ele>54.6</ele>
        <time>2016-06-16T09:28:18Z</time>
      </trkpt>
      <trkpt lat="47.66415" lon="0.45053">
        <ele>54.6</ele>
        <time>2016-06-16T09:28:26Z</time>
      </trkpt>
      <trkpt lat="47.6641" lon="0.45041">
        <ele>54.9</ele>
        <time>2016-06-16T09:28:34Z</time>
      </trkpt>
      <trkpt lat="47.66405" lon="0.45028">
        <ele>54.1</ele>
        <time>2016-06-16T09:28:42Z</time>
      </trkpt>
      <trkpt lat="47.66401" lon="0.45015">
        <ele>55.2</ele>
        <time>2016-06-16T09:28:50Z</time>
      </trkpt>
      <trkpt lat="47.66397" lon="0.45003">
        <ele>55.1</ele>
        <time>2016-06-16T09:28:58Z</time>
      </trkpt>
      <trkpt lat="47.66391" lon="0.44991">
        <ele>54.3</ele>
        <time>2016-06-16T09:29:06Z</time>
      </trkpt>
      <trkpt lat="47.66385" lon="0.4498">
        <ele>54.6</ele>
        <time>2016-06-16T09:29:14Z</time>
      </trkpt>
      <trkpt lat="47.66378" lon="0.4497">
        <ele>54.3</ele>
        <time>2016-06-16T09:29:22Z</time>
      </trkpt>
      <trkpt lat="47.66371" lon="0.44962">
        <ele>54.4</ele>
        <time>2016-06-16T09:29:31Z</time>
      </trkpt>
      <trkpt lat="47.66364" lon="0.44952">
        <ele>54.5</ele>
        <time>2016-06-16T09:29:40Z</time>
      </trkpt>
      <trkpt lat="47.66356" lon="0.44943">
        <ele>54.5</ele>
        <time>2016-06-16T09:29:48Z</time>
      </trkpt>
      <trkpt lat="47.66347" lon="0.44934">
        <ele>54.4</ele>
        <time>2016-06-16T09:29:56Z</time>
      </trkpt>
      <trkpt lat="47.66339" lon="0.44925">
        <ele>55.1</ele>
        <time>2016-06-16T09:30:04Z</time>
      </trkpt>
      <trkpt lat="47.66331" lon="0.44917">
        <ele>55.3</ele>
        <time>2016-06-16T09:30:12Z</time>
      </trkpt>
      <trkpt lat="47.66323" lon="0.44908">
        <ele>54.5</ele>
        <time>2016-06-16T09:30:20Z</time>
      </trkpt>
      <trkpt lat="47.66315" lon="0.449">
        <ele>54.8</ele>
        <time>2016-06-16T09:30:28Z</time>
      </trkpt>
      <trkpt lat="47.66308" lon="0.4489">
        <ele>55.3</ele>
        <time>2016-06-16T09:30:35Z</time>
      </trkpt>
      <trkpt lat="47.66302" lon="0.44879">
        <ele>54.4</ele>
        <time>2016-06-16T09:30:43Z</time>
      </trkpt>
      <trkpt lat="47.66297" lon="0.44866">
        <ele>54.9</ele>
        <time>2016-06-16T09:30:50Z</time>
      </trkpt>
      <trkpt lat="47.66292" lon="0.44854">
        <ele>55.4</ele>
        <time>2016-06-16T09:30:58Z</time>
      </trkpt>
      <trkpt lat="47.66287" lon="0.44841">
        <ele>55.4</ele>
        <time>2016-06-16T09:31:06Z</time>
      </trkpt>
      <trkpt lat="47.66281" lon="0.44831">
        <ele>55</ele>
        <time>2016-06-16T09:31:40Z</time>
      </trkpt>
      <trkpt lat="47.66276" lon="0.44819">
        <ele>54.9</ele>
        <time>2016-06-16T09:31:48Z</time>
      </trkpt>
      <trkpt lat="47.66271" lon="0.44807">
        <ele>55.2</ele>
        <time>2016-06-16T09:31:56Z</time>
      </trkpt>
      <trkpt lat="47.66267" lon="0.44794">
        <ele>55.7</ele>
        <time>2016-06-16T09:32:04Z</time>
      </trkpt>
      <trkpt lat="47.66265" lon="0.44781">
        <ele>55.8</ele>
        <time>2016-06-16T09:32:12Z</time>
      </trkpt>
      <trkpt lat="47.66261" lon="0.44767">
        <ele>56.1</ele>
        <time>2016-06-16T09:32:21Z</time>
      </trkpt>
      <trkpt lat="47.66257" lon="0.44754">
        <ele>56.6</ele>
        <time>2016-06-16T09:32:29Z</time>
      </trkpt>
      <trkpt lat="47.66252" lon="0.44743">
        <ele>57.1</ele>
        <time>2016-06-16T09:32:37Z</time>
      </trkpt>
      <trkpt lat="47.66247" lon="0.44729">
        <ele>57.5</ele>
        <time>2016-06-16T09:32:45Z</time>
      </trkpt>
      <trkpt lat="47.66238" lon="0.44721">
        <ele>57.3</ele>
        <time>2016-06-16T09:32:54Z</time>
      </trkpt>
      <trkpt lat="47.66228" lon="0.4472">
        <ele>57.2</ele>
        <time>2016-06-16T09:33:03Z</time>
      </trkpt>
      <trkpt lat="47.66218" lon="0.44724">
        <ele>58</ele>
        <time>2016-06-16T09:33:11Z</time>
      </trkpt>
      <trkpt lat="47.66209" lon="0.44729">
        <ele>59.4</ele>
        <time>2016-06-16T09:33:19Z</time>
      </trkpt>
      <trkpt lat="47.66201" lon="0.44734">
        <ele>60.2</ele>
        <time>2016-06-16T09:33:27Z</time>
      </trkpt>
      <trkpt lat="47.66192" lon="0.44736">
        <ele>59.8</ele>
        <time>2016-06-16T09:33:35Z</time>
      </trkpt>
      <trkpt lat="47.66182" lon="0.44736">
        <ele>60.8</ele>
        <time>2016-06-16T09:33:43Z</time>
      </trkpt>
      <trkpt lat="47.66172" lon="0.44739">
        <ele>61.8</ele>
        <time>2016-06-16T09:33:53Z</time>
      </trkpt>
      <trkpt lat="47.66163" lon="0.44739">
        <ele>61.7</ele>
        <time>2016-06-16T09:34:03Z</time>
      </trkpt>
      <trkpt lat="47.66153" lon="0.4474">
        <ele>61.9</ele>
        <time>2016-06-16T09:34:11Z</time>
      </trkpt>
      <trkpt lat="47.66144" lon="0.44742">
        <ele>62.3</ele>
        <time>2016-06-16T09:34:18Z</time>
      </trkpt>
      <trkpt lat="47.66135" lon="0.44742">
        <ele>62.1</ele>
        <time>2016-06-16T09:34:26Z</time>
      </trkpt>
      <trkpt lat="47.66125" lon="0.44742">
        <ele>62.5</ele>
        <time>2016-06-16T09:34:35Z</time>
      </trkpt>
      <trkpt lat="47.66116" lon="0.4474">
        <ele>62.8</ele>
        <time>2016-06-16T09:34:43Z</time>
      </trkpt>
      <trkpt lat="47.66107" lon="0.4474">
        <ele>63.2</ele>
        <time>2016-06-16T09:34:51Z</time>
      </trkpt>
      <trkpt lat="47.66098" lon="0.44739">
        <ele>63.8</ele>
        <time>2016-06-16T09:34:58Z</time>
      </trkpt>
      <trkpt lat="47.66088" lon="0.44739">
        <ele>63.7</ele>
        <time>2016-06-16T09:35:06Z</time>
      </trkpt>
      <trkpt lat="47.66078" lon="0.44739">
        <ele>64.2</ele>
        <time>2016-06-16T09:35:14Z</time>
      </trkpt>
      <trkpt lat="47.66068" lon="0.44738">
        <ele>64.2</ele>
        <time>2016-06-16T09:35:22Z</time>
      </trkpt>
      <trkpt lat="47.66059" lon="0.44736">
        <ele>64.6</ele>
        <time>2016-06-16T09:35:30Z</time>
      </trkpt>
      <trkpt lat="47.66049" lon="0.44736">
        <ele>65.1</ele>
        <time>2016-06-16T09:35:38Z</time>
      </trkpt>
      <trkpt lat="47.66041" lon="0.44731">
        <ele>64.6</ele>
        <time>2016-06-16T09:35:46Z</time>
      </trkpt>
      <trkpt lat="47.66038" lon="0.44718">
        <ele>65.9</ele>
        <time>2016-06-16T09:35:54Z</time>
      </trkpt>
      <trkpt lat="47.66039" lon="0.44703">
        <ele>65.7</ele>
        <time>2016-06-16T09:36:02Z</time>
      </trkpt>
      <trkpt lat="47.6604" lon="0.44689">
        <ele>65.5</ele>
        <time>2016-06-16T09:36:10Z</time>
      </trkpt>
      <trkpt lat="47.66044" lon="0.44675">
        <ele>66.1</ele>
        <time>2016-06-16T09:36:19Z</time>
      </trkpt>
      <trkpt lat="47.66047" lon="0.44661">
        <ele>66.4</ele>
        <time>2016-06-16T09:36:27Z</time>
      </trkpt>
      <trkpt lat="47.66048" lon="0.44647">
        <ele>65.9</ele>
        <time>2016-06-16T09:36:34Z</time>
      </trkpt>
      <trkpt lat="47.66048" lon="0.44634">
        <ele>65.3</ele>
        <time>2016-06-16T09:36:42Z</time>
      </trkpt>
      <trkpt lat="47.66047" lon="0.44619">
        <ele>65.8</ele>
        <time>2016-06-16T09:36:50Z</time>
      </trkpt>
      <trkpt lat="47.66047" lon="0.44604">
        <ele>66.2</ele>
        <time>2016-06-16T09:36:58Z</time>
      </trkpt>
      <trkpt lat="47.66042" lon="0.44592">
        <ele>66.2</ele>
        <time>2016-06-16T09:37:05Z</time>
      </trkpt>
      <trkpt lat="47.66036" lon="0.4458">
        <ele>66.8</ele>
        <time>2016-06-16T09:37:13Z</time>
      </trkpt>
      <trkpt lat="47.6603" lon="0.4457">
        <ele>65.8</ele>
        <time>2016-06-16T09:37:21Z</time>
      </trkpt>
      <trkpt lat="47.66024" lon="0.44559">
        <ele>66.7</ele>
        <time>2016-06-16T09:37:29Z</time>
      </trkpt>
      <trkpt lat="47.66017" lon="0.44548">
        <ele>67.4</ele>
        <time>2016-06-16T09:37:37Z</time>
      </trkpt>
      <trkpt lat="47.6601" lon="0.44538">
        <ele>67.1</ele>
        <time>2016-06-16T09:37:45Z</time>
      </trkpt>
      <trkpt lat="47.66002" lon="0.4453">
        <ele>68.2</ele>
        <time>2016-06-16T09:37:53Z</time>
      </trkpt>
      <trkpt lat="47.65993" lon="0.44523">
        <ele>69.3</ele>
        <time>2016-06-16T09:38:01Z</time>
      </trkpt>
      <trkpt lat="47.65986" lon="0.44515">
        <ele>69.6</ele>
        <time>2016-06-16T09:38:08Z</time>
      </trkpt>
      <trkpt lat="47.65978" lon="0.44507">
        <ele>70.3</ele>
        <time>2016-06-16T09:38:17Z</time>
      </trkpt>
      <trkpt lat="47.65971" lon="0.44496">
        <ele>71</ele>
        <time>2016-06-16T09:38:25Z</time>
      </trkpt>
      <trkpt lat="47.65965" lon="0.44486">
        <ele>71.8</ele>
        <time>2016-06-16T09:38:33Z</time>
      </trkpt>
      <trkpt lat="47.65957" lon="0.44476">
        <ele>72.5</ele>
        <time>2016-06-16T09:38:42Z</time>
      </trkpt>
      <trkpt lat="47.65949" lon="0.4447">
        <ele>74</ele>
        <time>2016-06-16T09:38:51Z</time>
      </trkpt>
      <trkpt lat="47.65942" lon="0.44461">
        <ele>73.3</ele>
        <time>2016-06-16T09:39:27Z</time>
      </trkpt>
      <trkpt lat="47.65934" lon="0.44453">
        <ele>73.9</ele>
        <time>2016-06-16T09:39:35Z</time>
      </trkpt>
      <trkpt lat="47.65926" lon="0.44445">
        <ele>74.8</ele>
        <time>2016-06-16T09:39:42Z</time>
      </trkpt>
      <trkpt lat="47.6592" lon="0.44434">
        <ele>74.2</ele>
        <time>2016-06-16T09:39:50Z</time>
      </trkpt>
      <trkpt lat="47.65913" lon="0.44425">
        <ele>74.8</ele>
        <time>2016-06-16T09:39:58Z</time>
      </trkpt>
      <trkpt lat="47.65906" lon="0.44414">
        <ele>75.7</ele>
        <time>2016-06-16T09:40:06Z</time>
      </trkpt>
      <trkpt lat="47.65899" lon="0.44404">
        <ele>75.7</ele>
        <time>2016-06-16T09:40:14Z</time>
      </trkpt>
      <trkpt lat="47.65893" lon="0.44394">
        <ele>76.3</ele>
        <time>2016-06-16T09:40:22Z</time>
      </trkpt>
      <trkpt lat="47.65886" lon="0.44383">
        <ele>76.4</ele>
        <time>2016-06-16T09:40:30Z</time>
      </trkpt>
      <trkpt lat="47.65879" lon="0.44373">
        <ele>77.1</ele>
        <time>2016-06-16T09:40:37Z</time>
      </trkpt>
      <trkpt lat="47.65872" lon="0.44363">
        <ele>77</ele>
        <time>2016-06-16T09:40:45Z</time>
      </trkpt>
      <trkpt lat="47.65865" lon="0.44354">
        <ele>77</ele>
        <time>2016-06-16T09:40:53Z</time>
      </trkpt>
      <trkpt lat="47.65858" lon="0.44344">
        <ele>77.9</ele>
        <time>2016-06-16T09:41:01Z</time>
      </trkpt>
      <trkpt lat="47.65855" lon="0.44331">
        <ele>77.6</ele>
        <time>2016-06-16T09:41:11Z</time>
      </trkpt>
      <trkpt lat="47.65862" lon="0.44322">
        <ele>75.6</ele>
        <time>2016-06-16T09:41:57Z</time>
      </trkpt>
      <trkpt lat="47.6587" lon="0.44314">
        <ele>73.9</ele>
        <time>2016-06-16T09:42:04Z</time>
      </trkpt>
      <trkpt lat="47.65877" lon="0.44305">
        <ele>72.9</ele>
        <time>2016-06-16T09:42:12Z</time>
      </trkpt>
      <trkpt lat="47.65886" lon="0.44296">
        <ele>71.3</ele>
        <time>2016-06-16T09:42:20Z</time>
      </trkpt>
      <trkpt lat="47.65893" lon="0.44288">
        <ele>70.1</ele>
        <time>2016-06-16T09:42:28Z</time>
      </trkpt>
      <trkpt lat="47.65903" lon="0.4428">
        <ele>68.7</ele>
        <time>2016-06-16T09:42:36Z</time>
      </trkpt>
      <trkpt lat="47.65913" lon="0.44273">
        <ele>66.6</ele>
        <time>2016-06-16T09:42:45Z</time>
      </trkpt>
      <trkpt lat="47.65921" lon="0.44265">
        <ele>65</ele>
        <time>2016-06-16T09:42:53Z</time>
      </trkpt>
      <trkpt lat="47.65928" lon="0.44256">
        <ele>63.6</ele>
        <time>2016-06-16T09:43:00Z</time>
      </trkpt>
      <trkpt lat="47.65938" lon="0.44252">
        <ele>62.5</ele>
        <time>2016-06-16T09:43:07Z</time>
      </trkpt>
      <trkpt lat="47.65948" lon="0.44256">
        <ele>61.4</ele>
        <time>2016-06-16T09:43:17Z</time>
      </trkpt>
      <trkpt lat="47.65956" lon="0.44263">
        <ele>61.4</ele>
        <time>2016-06-16T09:43:24Z</time>
      </trkpt>
      <trkpt lat="47.65965" lon="0.4427">
        <ele>61.4</ele>
        <time>2016-06-16T09:43:32Z</time>
      </trkpt>
      <trkpt lat="47.6597" lon="0.44282">
        <ele>61.7</ele>
        <time>2016-06-16T09:43:40Z</time>
      </trkpt>
      <trkpt lat="47.65976" lon="0.44271">
        <ele>60.1</ele>
        <time>2016-06-16T09:44:19Z</time>
      </trkpt>
      <trkpt lat="47.65975" lon="0.44256">
        <ele>59.8</ele>
        <time>2016-06-16T09:44:27Z</time>
      </trkpt>
      <trkpt lat="47.65977" lon="0.44243">
        <ele>59.4</ele>
        <time>2016-06-16T09:44:34Z</time>
      </trkpt>
      <trkpt lat="47.65978" lon="0.44228">
        <ele>58.6</ele>
        <time>2016-06-16T09:44:42Z</time>
      </trkpt>
      <trkpt lat="47.65977" lon="0.44214">
        <ele>59.9</ele>
        <time>2016-06-16T09:44:49Z</time>
      </trkpt>
      <trkpt lat="47.65975" lon="0.44201">
        <ele>59.3</ele>
        <time>2016-06-16T09:44:57Z</time>
      </trkpt>
      <trkpt lat="47.65971" lon="0.44187">
        <ele>59.7</ele>
        <time>2016-06-16T09:45:06Z</time>
      </trkpt>
      <trkpt lat="47.65965" lon="0.44174">
        <ele>59.6</ele>
        <time>2016-06-16T09:45:15Z</time>
      </trkpt>
      <trkpt lat="47.65959" lon="0.44164">
        <ele>60.1</ele>
        <time>2016-06-16T09:45:23Z</time>
      </trkpt>
      <trkpt lat="47.65954" lon="0.44153">
        <ele>60.5</ele>
        <time>2016-06-16T09:45:31Z</time>
      </trkpt>
      <trkpt lat="47.65948" lon="0.44143">
        <ele>60.7</ele>
        <time>2016-06-16T09:45:39Z</time>
      </trkpt>
      <trkpt lat="47.65941" lon="0.44132">
        <ele>60.7</ele>
        <time>2016-06-16T09:45:48Z</time>
      </trkpt>
      <trkpt lat="47.65936" lon="0.44121">
        <ele>60.9</ele>
        <time>2016-06-16T09:45:57Z</time>
      </trkpt>
      <trkpt lat="47.65929" lon="0.44111">
        <ele>61.5</ele>
        <time>2016-06-16T09:46:05Z</time>
      </trkpt>
      <trkpt lat="47.65922" lon="0.441">
        <ele>62.1</ele>
        <time>2016-06-16T09:46:14Z</time>
      </trkpt>
      <trkpt lat="47.65915" lon="0.44089">
        <ele>61.9</ele>
        <time>2016-06-16T09:46:24Z</time>
      </trkpt>
      <trkpt lat="47.65908" lon="0.44078">
        <ele>62.4</ele>
        <time>2016-06-16T09:46:34Z</time>
      </trkpt>
      <trkpt lat="47.65901" lon="0.44067">
        <ele>63.1</ele>
        <time>2016-06-16T09:46:43Z</time>
      </trkpt>
      <trkpt lat="47.65895" lon="0.44056">
        <ele>63.7</ele>
        <time>2016-06-16T09:46:52Z</time>
      </trkpt>
      <trkpt lat="47.65889" lon="0.44045">
        <ele>64.1</ele>
        <time>2016-06-16T09:47:00Z</time>
      </trkpt>
      <trkpt lat="47.65883" lon="0.44035">
        <ele>64.1</ele>
        <time>2016-06-16T09:47:09Z</time>
      </trkpt>
      <trkpt lat="47.65877" lon="0.44025">
        <ele>64.3</ele>
        <time>2016-06-16T09:47:18Z</time>
      </trkpt>
      <trkpt lat="47.65871" lon="0.44013">
        <ele>64.4</ele>
        <time>2016-06-16T09:47:26Z</time>
      </trkpt>
      <trkpt lat="47.65865" lon="0.44003">
        <ele>65.2</ele>
        <time>2016-06-16T09:47:34Z</time>
      </trkpt>
      <trkpt lat="47.65864" lon="0.43989">
        <ele>65.5</ele>
        <time>2016-06-16T09:47:43Z</time>
      </trkpt>
      <trkpt lat="47.65868" lon="0.43977">
        <ele>65.7</ele>
        <time>2016-06-16T09:47:51Z</time>
      </trkpt>
      <trkpt lat="47.65872" lon="0.43964">
        <ele>65.6</ele>
        <time>2016-06-16T09:48:00Z</time>
      </trkpt>
      <trkpt lat="47.65875" lon="0.43952">
        <ele>65.3</ele>
        <time>2016-06-16T09:48:08Z</time>
      </trkpt>
      <trkpt lat="47.65881" lon="0.4394">
        <ele>65.2</ele>
        <time>2016-06-16T09:48:17Z</time>
      </trkpt>
      <trkpt lat="47.65884" lon="0.43928">
        <ele>64.7</ele>
        <time>2016-06-16T09:48:26Z</time>
      </trkpt>
      <trkpt lat="47.65887" lon="0.43914">
        <ele>64.3</ele>
        <time>2016-06-16T09:48:36Z</time>
      </trkpt>
      <trkpt lat="47.65888" lon="0.439">
        <ele>63.7</ele>
        <time>2016-06-16T09:48:45Z</time>
      </trkpt>
      <trkpt lat="47.65888" lon="0.43886">
        <ele>64.2</ele>
        <time>2016-06-16T09:48:54Z</time>
      </trkpt>
      <trkpt lat="47.65888" lon="0.43871">
        <ele>63.6</ele>
        <time>2016-06-16T09:49:03Z</time>
      </trkpt>
      <trkpt lat="47.65886" lon="0.43857">
        <ele>62.8</ele>
        <time>2016-06-16T09:49:11Z</time>
      </trkpt>
      <trkpt lat="47.65887" lon="0.43841">
        <ele>61.7</ele>
        <time>2016-06-16T09:51:26Z</time>
      </trkpt>
      <trkpt lat="47.65884" lon="0.43828">
        <ele>61.4</ele>
        <time>2016-06-16T09:51:31Z</time>
      </trkpt>
      <trkpt lat="47.65883" lon="0.43813">
        <ele>61.1</ele>
        <time>2016-06-16T09:51:39Z</time>
      </trkpt>
      <trkpt lat="47.65881" lon="0.438">
        <ele>61.2</ele>
        <time>2016-06-16T09:51:47Z</time>
      </trkpt>
      <trkpt lat="47.65881" lon="0.43785">
        <ele>61.4</ele>
        <time>2016-06-16T09:51:53Z</time>
      </trkpt>
      <trkpt lat="47.65877" lon="0.43772">
        <ele>61.4</ele>
        <time>2016-06-16T09:51:59Z</time>
      </trkpt>
      <trkpt lat="47.65881" lon="0.43758">
        <ele>60.8</ele>
        <time>2016-06-16T09:52:06Z</time>
      </trkpt>
      <trkpt lat="47.65889" lon="0.43753">
        <ele>59.3</ele>
        <time>2016-06-16T09:52:14Z</time>
      </trkpt>
      <trkpt lat="47.65898" lon="0.43747">
        <ele>56.3</ele>
        <time>2016-06-16T09:52:25Z</time>
      </trkpt>
      <trkpt lat="47.65905" lon="0.43738">
        <ele>54.2</ele>
        <time>2016-06-16T09:52:32Z</time>
      </trkpt>
      <trkpt lat="47.6591" lon="0.43725">
        <ele>52.9</ele>
        <time>2016-06-16T09:52:39Z</time>
      </trkpt>
      <trkpt lat="47.65909" lon="0.43711">
        <ele>51.8</ele>
        <time>2016-06-16T09:53:30Z</time>
      </trkpt>
      <trkpt lat="47.65906" lon="0.43697">
        <ele>51.4</ele>
        <time>2016-06-16T09:53:38Z</time>
      </trkpt>
      <trkpt lat="47.65904" lon="0.43683">
        <ele>50.9</ele>
        <time>2016-06-16T09:53:46Z</time>
      </trkpt>
      <trkpt lat="47.65905" lon="0.4367">
        <ele>52.3</ele>
        <time>2016-06-16T09:53:54Z</time>
      </trkpt>
      <trkpt lat="47.6591" lon="0.43658">
        <ele>51.2</ele>
        <time>2016-06-16T09:54:01Z</time>
      </trkpt>
      <trkpt lat="47.65916" lon="0.43647">
        <ele>50.7</ele>
        <time>2016-06-16T09:54:08Z</time>
      </trkpt>
      <trkpt lat="47.65921" lon="0.43636">
        <ele>50.4</ele>
        <time>2016-06-16T09:54:15Z</time>
      </trkpt>
      <trkpt lat="47.65926" lon="0.43624">
        <ele>50.5</ele>
        <time>2016-06-16T09:54:22Z</time>
      </trkpt>
      <trkpt lat="47.65932" lon="0.43612">
        <ele>49.7</ele>
        <time>2016-06-16T09:54:30Z</time>
      </trkpt>
      <trkpt lat="47.65936" lon="0.436">
        <ele>49.3</ele>
        <time>2016-06-16T09:54:37Z</time>
      </trkpt>
      <trkpt lat="47.65941" lon="0.43589">
        <ele>49</ele>
        <time>2016-06-16T09:54:44Z</time>
      </trkpt>
      <trkpt lat="47.65947" lon="0.43577">
        <ele>48.8</ele>
        <time>2016-06-16T09:54:52Z</time>
      </trkpt>
      <trkpt lat="47.65952" lon="0.43564">
        <ele>48.4</ele>
        <time>2016-06-16T09:55:00Z</time>
      </trkpt>
      <trkpt lat="47.65958" lon="0.43552">
        <ele>48.9</ele>
        <time>2016-06-16T09:55:08Z</time>
      </trkpt>
      <trkpt lat="47.65962" lon="0.4354">
        <ele>48.9</ele>
        <time>2016-06-16T09:55:15Z</time>
      </trkpt>
      <trkpt lat="47.65967" lon="0.43529">
        <ele>49</ele>
        <time>2016-06-16T09:55:22Z</time>
      </trkpt>
      <trkpt lat="47.65971" lon="0.43517">
        <ele>48.8</ele>
        <time>2016-06-16T09:55:29Z</time>
      </trkpt>
      <trkpt lat="47.65977" lon="0.43504">
        <ele>48.4</ele>
        <time>2016-06-16T09:55:37Z</time>
      </trkpt>
      <trkpt lat="47.65981" lon="0.43492">
        <ele>48.4</ele>
        <time>2016-06-16T09:55:44Z</time>
      </trkpt>
      <trkpt lat="47.65986" lon="0.43479">
        <ele>48.4</ele>
        <time>2016-06-16T09:55:52Z</time>
      </trkpt>
      <trkpt lat="47.65991" lon="0.43466">
        <ele>48.2</ele>
        <time>2016-06-16T09:56:00Z</time>
      </trkpt>
      <trkpt lat="47.65996" lon="0.43454">
        <ele>47.4</ele>
        <time>2016-06-16T09:56:07Z</time>
      </trkpt>
      <trkpt lat="47.66001" lon="0.43441">
        <ele>47.4</ele>
        <time>2016-06-16T09:56:14Z</time>
      </trkpt>
      <trkpt lat="47.66005" lon="0.4343">
        <ele>47.9</ele>
        <time>2016-06-16T09:56:21Z</time>
      </trkpt>
      <trkpt lat="47.66009" lon="0.43417">
        <ele>48.1</ele>
        <time>2016-06-16T09:56:28Z</time>
      </trkpt>
      <trkpt lat="47.66013" lon="0.43405">
        <ele>47.6</ele>
        <time>2016-06-16T09:56:35Z</time>
      </trkpt>
      <trkpt lat="47.66018" lon="0.43392">
        <ele>47.7</ele>
        <time>2016-06-16T09:56:43Z</time>
      </trkpt>
      <trkpt lat="47.66022" lon="0.4338">
        <ele>47.2</ele>
        <time>2016-06-16T09:56:50Z</time>
      </trkpt>
      <trkpt lat="47.66026" lon="0.43368">
        <ele>46.9</ele>
        <time>2016-06-16T09:56:57Z</time>
      </trkpt>
      <trkpt lat="47.6603" lon="0.43356">
        <ele>47.1</ele>
        <time>2016-06-16T09:57:04Z</time>
      </trkpt>
      <trkpt lat="47.66035" lon="0.43343">
        <ele>47.5</ele>
        <time>2016-06-16T09:57:12Z</time>
      </trkpt>
      <trkpt lat="47.6604" lon="0.4333">
        <ele>47.2</ele>
        <time>2016-06-16T09:57:20Z</time>
      </trkpt>
      <trkpt lat="47.66045" lon="0.43317">
        <ele>47.4</ele>
        <time>2016-06-16T09:57:28Z</time>
      </trkpt>
      <trkpt lat="47.66048" lon="0.43304">
        <ele>47</ele>
        <time>2016-06-16T09:57:35Z</time>
      </trkpt>
      <trkpt lat="47.66052" lon="0.43292">
        <ele>46.9</ele>
        <time>2016-06-16T09:57:42Z</time>
      </trkpt>
      <trkpt lat="47.66057" lon="0.4328">
        <ele>46.4</ele>
        <time>2016-06-16T09:57:49Z</time>
      </trkpt>
      <trkpt lat="47.6606" lon="0.43266">
        <ele>47.4</ele>
        <time>2016-06-16T09:57:57Z</time>
      </trkpt>
      <trkpt lat="47.66064" lon="0.43252">
        <ele>48.3</ele>
        <time>2016-06-16T09:58:05Z</time>
      </trkpt>
      <trkpt lat="47.66068" lon="0.43239">
        <ele>48.4</ele>
        <time>2016-06-16T09:58:13Z</time>
      </trkpt>
      <trkpt lat="47.66073" lon="0.43226">
        <ele>48.2</ele>
        <time>2016-06-16T09:58:20Z</time>
      </trkpt>
      <trkpt lat="47.6608" lon="0.43217">
        <ele>47.5</ele>
        <time>2016-06-16T09:58:29Z</time>
      </trkpt>
      <trkpt lat="47.6609" lon="0.43215">
        <ele>46.9</ele>
        <time>2016-06-16T09:58:37Z</time>
      </trkpt>
      <trkpt lat="47.661" lon="0.43214">
        <ele>46.7</ele>
        <time>2016-06-16T09:58:45Z</time>
      </trkpt>
      <trkpt lat="47.66109" lon="0.43212">
        <ele>46.5</ele>
        <time>2016-06-16T10:00:14Z</time>
      </trkpt>
      <trkpt lat="47.66119" lon="0.4321">
        <ele>46.7</ele>
        <time>2016-06-16T10:00:22Z</time>
      </trkpt>
      <trkpt lat="47.66128" lon="0.43205">
        <ele>46.4</ele>
        <time>2016-06-16T10:00:29Z</time>
      </trkpt>
      <trkpt lat="47.66138" lon="0.43203">
        <ele>46.3</ele>
        <time>2016-06-16T10:00:37Z</time>
      </trkpt>
      <trkpt lat="47.66148" lon="0.432">
        <ele>46.3</ele>
        <time>2016-06-16T10:00:46Z</time>
      </trkpt>
      <trkpt lat="47.66157" lon="0.43197">
        <ele>46.4</ele>
        <time>2016-06-16T10:00:54Z</time>
      </trkpt>
      <trkpt lat="47.66165" lon="0.4319">
        <ele>46.1</ele>
        <time>2016-06-16T10:01:51Z</time>
      </trkpt>
      <trkpt lat="47.66174" lon="0.43188">
        <ele>46.1</ele>
        <time>2016-06-16T10:02:02Z</time>
      </trkpt>
      <trkpt lat="47.66183" lon="0.43187">
        <ele>46.4</ele>
        <time>2016-06-16T10:02:13Z</time>
      </trkpt>
      <trkpt lat="47.66192" lon="0.43184">
        <ele>46.1</ele>
        <time>2016-06-16T10:02:24Z</time>
      </trkpt>
      <trkpt lat="47.66202" lon="0.43179">
        <ele>46</ele>
        <time>2016-06-16T10:02:35Z</time>
      </trkpt>
      <trkpt lat="47.6621" lon="0.43171">
        <ele>45.8</ele>
        <time>2016-06-16T10:02:44Z</time>
      </trkpt>
      <trkpt lat="47.66218" lon="0.43165">
        <ele>46.1</ele>
        <time>2016-06-16T10:02:52Z</time>
      </trkpt>
      <trkpt lat="47.66227" lon="0.43161">
        <ele>46</ele>
        <time>2016-06-16T10:03:00Z</time>
      </trkpt>
      <trkpt lat="47.66236" lon="0.43156">
        <ele>45.7</ele>
        <time>2016-06-16T10:03:08Z</time>
      </trkpt>
      <trkpt lat="47.66245" lon="0.4315">
        <ele>46</ele>
        <time>2016-06-16T10:03:16Z</time>
      </trkpt>
      <trkpt lat="47.66253" lon="0.43143">
        <ele>45.6</ele>
        <time>2016-06-16T10:03:25Z</time>
      </trkpt>
      <trkpt lat="47.6626" lon="0.43132">
        <ele>45.9</ele>
        <time>2016-06-16T10:03:33Z</time>
      </trkpt>
      <trkpt lat="47.66263" lon="0.43118">
        <ele>45.6</ele>
        <time>2016-06-16T10:03:42Z</time>
      </trkpt>
      <trkpt lat="47.66271" lon="0.43109">
        <ele>46.8</ele>
        <time>2016-06-16T10:03:52Z</time>
      </trkpt>
      <trkpt lat="47.66281" lon="0.43107">
        <ele>46</ele>
        <time>2016-06-16T10:04:00Z</time>
      </trkpt>
      <trkpt lat="47.6629" lon="0.43106">
        <ele>45.8</ele>
        <time>2016-06-16T10:04:08Z</time>
      </trkpt>
      <trkpt lat="47.66299" lon="0.43102">
        <ele>45.9</ele>
        <time>2016-06-16T10:04:16Z</time>
      </trkpt>
      <trkpt lat="47.66309" lon="0.431">
        <ele>45.7</ele>
        <time>2016-06-16T10:04:23Z</time>
      </trkpt>
      <trkpt lat="47.66318" lon="0.43098">
        <ele>46.1</ele>
        <time>2016-06-16T10:04:31Z</time>
      </trkpt>
      <trkpt lat="47.66327" lon="0.43096">
        <ele>46.2</ele>
        <time>2016-06-16T10:04:38Z</time>
      </trkpt>
      <trkpt lat="47.66336" lon="0.43093">
        <ele>46.4</ele>
        <time>2016-06-16T10:04:45Z</time>
      </trkpt>
      <trkpt lat="47.66346" lon="0.43091">
        <ele>46.2</ele>
        <time>2016-06-16T10:04:53Z</time>
      </trkpt>
      <trkpt lat="47.66356" lon="0.4309">
        <ele>45.6</ele>
        <time>2016-06-16T10:05:01Z</time>
      </trkpt>
      <trkpt lat="47.66366" lon="0.4309">
        <ele>45.8</ele>
        <time>2016-06-16T10:05:09Z</time>
      </trkpt>
      <trkpt lat="47.66376" lon="0.43088">
        <ele>46.3</ele>
        <time>2016-06-16T10:05:17Z</time>
      </trkpt>
      <trkpt lat="47.66385" lon="0.4309">
        <ele>46.4</ele>
        <time>2016-06-16T10:05:25Z</time>
      </trkpt>
      <trkpt lat="47.66395" lon="0.43089">
        <ele>46.6</ele>
        <time>2016-06-16T10:05:34Z</time>
      </trkpt>
      <trkpt lat="47.66404" lon="0.43085">
        <ele>45.8</ele>
        <time>2016-06-16T10:05:41Z</time>
      </trkpt>
      <trkpt lat="47.66415" lon="0.43084">
        <ele>45.5</ele>
        <time>2016-06-16T10:05:49Z</time>
      </trkpt>
      <trkpt lat="47.66424" lon="0.43081">
        <ele>46</ele>
        <time>2016-06-16T10:05:56Z</time>
      </trkpt>
      <trkpt lat="47.66434" lon="0.43081">
        <ele>46.4</ele>
        <time>2016-06-16T10:06:06Z</time>
      </trkpt>
      <trkpt lat="47.66444" lon="0.43078">
        <ele>46.5</ele>
        <time>2016-06-16T10:06:13Z</time>
      </trkpt>
      <trkpt lat="47.66453" lon="0.43076">
        <ele>46.4</ele>
        <time>2016-06-16T10:06:20Z</time>
      </trkpt>
      <trkpt lat="47.66463" lon="0.43073">
        <ele>46.6</ele>
        <time>2016-06-16T10:06:28Z</time>
      </trkpt>
      <trkpt lat="47.66472" lon="0.4307">
        <ele>47</ele>
        <time>2016-06-16T10:06:35Z</time>
      </trkpt>
      <trkpt lat="47.66482" lon="0.43069">
        <ele>46.2</ele>
        <time>2016-06-16T10:06:42Z</time>
      </trkpt>
      <trkpt lat="47.66491" lon="0.43067">
        <ele>46.6</ele>
        <time>2016-06-16T10:06:50Z</time>
      </trkpt>
      <trkpt lat="47.665" lon="0.43065">
        <ele>46.4</ele>
        <time>2016-06-16T10:06:58Z</time>
      </trkpt>
      <trkpt lat="47.66511" lon="0.43065">
        <ele>46.7</ele>
        <time>2016-06-16T10:07:06Z</time>
      </trkpt>
      <trkpt lat="47.6652" lon="0.43065">
        <ele>46.7</ele>
        <time>2016-06-16T10:07:13Z</time>
      </trkpt>
      <trkpt lat="47.66528" lon="0.43062">
        <ele>47.3</ele>
        <time>2016-06-16T10:07:21Z</time>
      </trkpt>
      <trkpt lat="47.66537" lon="0.43057">
        <ele>46.9</ele>
        <time>2016-06-16T10:07:28Z</time>
      </trkpt>
      <trkpt lat="47.66546" lon="0.43051">
        <ele>46.8</ele>
        <time>2016-06-16T10:07:35Z</time>
      </trkpt>
      <trkpt lat="47.66555" lon="0.43044">
        <ele>45.7</ele>
        <time>2016-06-16T10:07:43Z</time>
      </trkpt>
      <trkpt lat="47.66564" lon="0.43039">
        <ele>45.5</ele>
        <time>2016-06-16T10:07:50Z</time>
      </trkpt>
      <trkpt lat="47.66572" lon="0.43033">
        <ele>45.7</ele>
        <time>2016-06-16T10:07:58Z</time>
      </trkpt>
      <trkpt lat="47.6658" lon="0.43026">
        <ele>47.1</ele>
        <time>2016-06-16T10:08:05Z</time>
      </trkpt>
      <trkpt lat="47.66589" lon="0.43021">
        <ele>46.4</ele>
        <time>2016-06-16T10:08:12Z</time>
      </trkpt>
      <trkpt lat="47.66598" lon="0.43016">
        <ele>46.3</ele>
        <time>2016-06-16T10:08:19Z</time>
      </trkpt>
      <trkpt lat="47.66607" lon="0.43012">
        <ele>46.1</ele>
        <time>2016-06-16T10:08:26Z</time>
      </trkpt>
      <trkpt lat="47.66617" lon="0.43011">
        <ele>46.1</ele>
        <time>2016-06-16T10:08:34Z</time>
      </trkpt>
      <trkpt lat="47.66625" lon="0.43017">
        <ele>45.6</ele>
        <time>2016-06-16T10:08:42Z</time>
      </trkpt>
      <trkpt lat="47.66631" lon="0.4303">
        <ele>46.7</ele>
        <time>2016-06-16T10:08:50Z</time>
      </trkpt>
      <trkpt lat="47.66634" lon="0.43043">
        <ele>46.2</ele>
        <time>2016-06-16T10:08:57Z</time>
      </trkpt>
      <trkpt lat="47.66638" lon="0.43055">
        <ele>46.1</ele>
        <time>2016-06-16T10:09:04Z</time>
      </trkpt>
      <trkpt lat="47.66643" lon="0.43068">
        <ele>46.4</ele>
        <time>2016-06-16T10:09:12Z</time>
      </trkpt>
      <trkpt lat="47.66647" lon="0.43081">
        <ele>45.7</ele>
        <time>2016-06-16T10:09:19Z</time>
      </trkpt>
      <trkpt lat="47.66652" lon="0.43093">
        <ele>45.7</ele>
        <time>2016-06-16T10:09:27Z</time>
      </trkpt>
      <trkpt lat="47.66657" lon="0.43106">
        <ele>46</ele>
        <time>2016-06-16T10:09:35Z</time>
      </trkpt>
      <trkpt lat="47.66662" lon="0.43119">
        <ele>46.1</ele>
        <time>2016-06-16T10:09:42Z</time>
      </trkpt>
      <trkpt lat="47.66665" lon="0.43131">
        <ele>45.6</ele>
        <time>2016-06-16T10:09:49Z</time>
      </trkpt>
      <trkpt lat="47.66671" lon="0.43142">
        <ele>45.4</ele>
        <time>2016-06-16T10:09:57Z</time>
      </trkpt>
      <trkpt lat="47.66677" lon="0.43153">
        <ele>45.7</ele>
        <time>2016-06-16T10:10:04Z</time>
      </trkpt>
      <trkpt lat="47.66683" lon="0.43165">
        <ele>45.7</ele>
        <time>2016-06-16T10:10:12Z</time>
      </trkpt>
      <trkpt lat="47.66689" lon="0.43175">
        <ele>46.4</ele>
        <time>2016-06-16T10:10:20Z</time>
      </trkpt>
      <trkpt lat="47.66695" lon="0.43185">
        <ele>45.7</ele>
        <time>2016-06-16T10:10:27Z</time>
      </trkpt>
      <trkpt lat="47.66701" lon="0.43197">
        <ele>45.4</ele>
        <time>2016-06-16T10:10:35Z</time>
      </trkpt>
      <trkpt lat="47.66707" lon="0.43208">
        <ele>45.7</ele>
        <time>2016-06-16T10:10:43Z</time>
      </trkpt>
      <trkpt lat="47.66714" lon="0.43218">
        <ele>46</ele>
        <time>2016-06-16T10:10:51Z</time>
      </trkpt>
      <trkpt lat="47.6672" lon="0.43229">
        <ele>45.9</ele>
        <time>2016-06-16T10:10:58Z</time>
      </trkpt>
      <trkpt lat="47.66728" lon="0.43239">
        <ele>46.2</ele>
        <time>2016-06-16T10:11:06Z</time>
      </trkpt>
      <trkpt lat="47.66735" lon="0.43249">
        <ele>46</ele>
        <time>2016-06-16T10:11:13Z</time>
      </trkpt>
      <trkpt lat="47.66742" lon="0.43259">
        <ele>46.2</ele>
        <time>2016-06-16T10:11:21Z</time>
      </trkpt>
      <trkpt lat="47.66748" lon="0.43268">
        <ele>46.3</ele>
        <time>2016-06-16T10:11:28Z</time>
      </trkpt>
      <trkpt lat="47.66755" lon="0.43279">
        <ele>46.4</ele>
        <time>2016-06-16T10:11:36Z</time>
      </trkpt>
      <trkpt lat="47.66762" lon="0.4329">
        <ele>46.2</ele>
        <time>2016-06-16T10:11:44Z</time>
      </trkpt>
      <trkpt lat="47.66769" lon="0.43301">
        <ele>46.6</ele>
        <time>2016-06-16T10:11:52Z</time>
      </trkpt>
      <trkpt lat="47.66775" lon="0.43313">
        <ele>46.5</ele>
        <time>2016-06-16T10:12:00Z</time>
      </trkpt>
      <trkpt lat="47.66782" lon="0.43323">
        <ele>46.2</ele>
        <time>2016-06-16T10:12:08Z</time>
      </trkpt>
      <trkpt lat="47.66789" lon="0.43334">
        <ele>46.1</ele>
        <time>2016-06-16T10:12:16Z</time>
      </trkpt>
      <trkpt lat="47.66794" lon="0.43345">
        <ele>46.4</ele>
        <time>2016-06-16T10:12:23Z</time>
      </trkpt>
      <trkpt lat="47.66799" lon="0.43357">
        <ele>46.4</ele>
        <time>2016-06-16T10:12:30Z</time>
      </trkpt>
      <trkpt lat="47.66805" lon="0.43369">
        <ele>46.4</ele>
        <time>2016-06-16T10:12:39Z</time>
      </trkpt>
      <trkpt lat="47.66813" lon="0.43374">
        <ele>46.7</ele>
        <time>2016-06-16T10:12:49Z</time>
      </trkpt>
      <trkpt lat="47.66822" lon="0.4337">
        <ele>46.4</ele>
        <time>2016-06-16T10:13:15Z</time>
      </trkpt>
      <trkpt lat="47.6683" lon="0.43361">
        <ele>46.7</ele>
        <time>2016-06-16T10:15:37Z</time>
      </trkpt>
      <trkpt lat="47.66839" lon="0.43356">
        <ele>46.8</ele>
        <time>2016-06-16T10:15:47Z</time>
      </trkpt>
      <trkpt lat="47.66848" lon="0.43353">
        <ele>46.9</ele>
        <time>2016-06-16T10:15:55Z</time>
      </trkpt>
      <trkpt lat="47.66857" lon="0.4335">
        <ele>46.6</ele>
        <time>2016-06-16T10:16:03Z</time>
      </trkpt>
      <trkpt lat="47.66866" lon="0.43345">
        <ele>47.2</ele>
        <time>2016-06-16T10:16:12Z</time>
      </trkpt>
      <trkpt lat="47.66873" lon="0.43335">
        <ele>47.2</ele>
        <time>2016-06-16T10:16:19Z</time>
      </trkpt>
      <trkpt lat="47.66879" lon="0.43324">
        <ele>46.7</ele>
        <time>2016-06-16T10:16:27Z</time>
      </trkpt>
      <trkpt lat="47.66885" lon="0.43314">
        <ele>47.3</ele>
        <time>2016-06-16T10:16:35Z</time>
      </trkpt>
      <trkpt lat="47.66891" lon="0.43303">
        <ele>47.4</ele>
        <time>2016-06-16T10:16:42Z</time>
      </trkpt>
      <trkpt lat="47.66898" lon="0.43293">
        <ele>48.3</ele>
        <time>2016-06-16T10:16:51Z</time>
      </trkpt>
      <trkpt lat="47.66905" lon="0.43281">
        <ele>48.1</ele>
        <time>2016-06-16T10:16:59Z</time>
      </trkpt>
      <trkpt lat="47.6691" lon="0.43269">
        <ele>47.6</ele>
        <time>2016-06-16T10:17:07Z</time>
      </trkpt>
      <trkpt lat="47.66914" lon="0.43257">
        <ele>48</ele>
        <time>2016-06-16T10:17:14Z</time>
      </trkpt>
      <trkpt lat="47.66919" lon="0.43246">
        <ele>47.9</ele>
        <time>2016-06-16T10:17:22Z</time>
      </trkpt>
      <trkpt lat="47.66924" lon="0.43234">
        <ele>48.4</ele>
        <time>2016-06-16T10:17:30Z</time>
      </trkpt>
      <trkpt lat="47.6693" lon="0.43222">
        <ele>47.5</ele>
        <time>2016-06-16T10:17:38Z</time>
      </trkpt>
      <trkpt lat="47.66936" lon="0.4321">
        <ele>48.1</ele>
        <time>2016-06-16T10:17:47Z</time>
      </trkpt>
      <trkpt lat="47.66942" lon="0.43199">
        <ele>47.8</ele>
        <time>2016-06-16T10:17:55Z</time>
      </trkpt>
      <trkpt lat="47.66947" lon="0.43188">
        <ele>48.3</ele>
        <time>2016-06-16T10:18:03Z</time>
      </trkpt>
      <trkpt lat="47.66952" lon="0.43176">
        <ele>47.8</ele>
        <time>2016-06-16T10:18:12Z</time>
      </trkpt>
      <trkpt lat="47.66958" lon="0.43163">
        <ele>48.6</ele>
        <time>2016-06-16T10:18:20Z</time>
      </trkpt>
      <trkpt lat="47.66963" lon="0.43151">
        <ele>48</ele>
        <time>2016-06-16T10:18:28Z</time>
      </trkpt>
      <trkpt lat="47.66968" lon="0.43138">
        <ele>48.6</ele>
        <time>2016-06-16T10:18:36Z</time>
      </trkpt>
      <trkpt lat="47.66974" lon="0.43127">
        <ele>48.7</ele>
        <time>2016-06-16T10:18:44Z</time>
      </trkpt>
      <trkpt lat="47.66977" lon="0.43113">
        <ele>48.9</ele>
        <time>2016-06-16T10:18:52Z</time>
      </trkpt>
      <trkpt lat="47.66981" lon="0.431">
        <ele>47.3</ele>
        <time>2016-06-16T10:19:00Z</time>
      </trkpt>
      <trkpt lat="47.66984" lon="0.43085">
        <ele>48.6</ele>
        <time>2016-06-16T10:19:08Z</time>
      </trkpt>
      <trkpt lat="47.66987" lon="0.43072">
        <ele>48.4</ele>
        <time>2016-06-16T10:19:16Z</time>
      </trkpt>
      <trkpt lat="47.66988" lon="0.43058">
        <ele>48.7</ele>
        <time>2016-06-16T10:19:23Z</time>
      </trkpt>
      <trkpt lat="47.66989" lon="0.43044">
        <ele>48.3</ele>
        <time>2016-06-16T10:19:31Z</time>
      </trkpt>
      <trkpt lat="47.66991" lon="0.4303">
        <ele>49</ele>
        <time>2016-06-16T10:19:39Z</time>
      </trkpt>
      <trkpt lat="47.66991" lon="0.43016">
        <ele>48.9</ele>
        <time>2016-06-16T10:19:47Z</time>
      </trkpt>
      <trkpt lat="47.66994" lon="0.43002">
        <ele>48.5</ele>
        <time>2016-06-16T10:19:55Z</time>
      </trkpt>
      <trkpt lat="47.66995" lon="0.42989">
        <ele>48.4</ele>
        <time>2016-06-16T10:20:03Z</time>
      </trkpt>
      <trkpt lat="47.66997" lon="0.42975">
        <ele>48</ele>
        <time>2016-06-16T10:20:11Z</time>
      </trkpt>
      <trkpt lat="47.67" lon="0.42962">
        <ele>48.3</ele>
        <time>2016-06-16T10:20:19Z</time>
      </trkpt>
      <trkpt lat="47.67002" lon="0.42947">
        <ele>48.4</ele>
        <time>2016-06-16T10:20:27Z</time>
      </trkpt>
      <trkpt lat="47.67006" lon="0.42935">
        <ele>48.5</ele>
        <time>2016-06-16T10:20:34Z</time>
      </trkpt>
      <trkpt lat="47.6701" lon="0.42921">
        <ele>48</ele>
        <time>2016-06-16T10:20:42Z</time>
      </trkpt>
      <trkpt lat="47.67016" lon="0.42909">
        <ele>48</ele>
        <time>2016-06-16T10:20:50Z</time>
      </trkpt>
      <trkpt lat="47.67023" lon="0.42898">
        <ele>47.8</ele>
        <time>2016-06-16T10:20:58Z</time>
      </trkpt>
      <trkpt lat="47.67031" lon="0.42889">
        <ele>48.2</ele>
        <time>2016-06-16T10:21:06Z</time>
      </trkpt>
      <trkpt lat="47.67039" lon="0.42881">
        <ele>48.5</ele>
        <time>2016-06-16T10:21:13Z</time>
      </trkpt>
      <trkpt lat="47.67046" lon="0.42871">
        <ele>49.5</ele>
        <time>2016-06-16T10:21:20Z</time>
      </trkpt>
      <trkpt lat="47.67054" lon="0.42861">
        <ele>49</ele>
        <time>2016-06-16T10:21:28Z</time>
      </trkpt>
      <trkpt lat="47.67061" lon="0.42853">
        <ele>48.3</ele>
        <time>2016-06-16T10:21:35Z</time>
      </trkpt>
      <trkpt lat="47.6707" lon="0.42854">
        <ele>48.5</ele>
        <time>2016-06-16T10:21:43Z</time>
      </trkpt>
      <trkpt lat="47.67079" lon="0.42859">
        <ele>47</ele>
        <time>2016-06-16T10:21:51Z</time>
      </trkpt>
      <trkpt lat="47.67087" lon="0.42868">
        <ele>46.7</ele>
        <time>2016-06-16T10:21:58Z</time>
      </trkpt>
      <trkpt lat="47.67095" lon="0.42876">
        <ele>47.3</ele>
        <time>2016-06-16T10:22:07Z</time>
      </trkpt>
      <trkpt lat="47.67104" lon="0.42882">
        <ele>47.2</ele>
        <time>2016-06-16T10:22:14Z</time>
      </trkpt>
      <trkpt lat="47.67113" lon="0.42888">
        <ele>47.8</ele>
        <time>2016-06-16T10:22:22Z</time>
      </trkpt>
      <trkpt lat="47.67121" lon="0.42894">
        <ele>47.4</ele>
        <time>2016-06-16T10:22:29Z</time>
      </trkpt>
      <trkpt lat="47.67129" lon="0.429">
        <ele>47.9</ele>
        <time>2016-06-16T10:22:36Z</time>
      </trkpt>
      <trkpt lat="47.67138" lon="0.42905">
        <ele>47.7</ele>
        <time>2016-06-16T10:22:43Z</time>
      </trkpt>
      <trkpt lat="47.67146" lon="0.42913">
        <ele>47.8</ele>
        <time>2016-06-16T10:22:51Z</time>
      </trkpt>
      <trkpt lat="47.67155" lon="0.42921">
        <ele>47.4</ele>
        <time>2016-06-16T10:22:59Z</time>
      </trkpt>
      <trkpt lat="47.67164" lon="0.42929">
        <ele>46.5</ele>
        <time>2016-06-16T10:23:07Z</time>
      </trkpt>
      <trkpt lat="47.67172" lon="0.42935">
        <ele>46.9</ele>
        <time>2016-06-16T10:23:15Z</time>
      </trkpt>
      <trkpt lat="47.67179" lon="0.42943">
        <ele>46.9</ele>
        <time>2016-06-16T10:23:22Z</time>
      </trkpt>
      <trkpt lat="47.67187" lon="0.42951">
        <ele>47.1</ele>
        <time>2016-06-16T10:23:29Z</time>
      </trkpt>
      <trkpt lat="47.67195" lon="0.4296">
        <ele>47</ele>
        <time>2016-06-16T10:23:36Z</time>
      </trkpt>
      <trkpt lat="47.67203" lon="0.42967">
        <ele>46.3</ele>
        <time>2016-06-16T10:23:44Z</time>
      </trkpt>
      <trkpt lat="47.67211" lon="0.42977">
        <ele>47.9</ele>
        <time>2016-06-16T10:23:53Z</time>
      </trkpt>
      <trkpt lat="47.67219" lon="0.42986">
        <ele>47.2</ele>
        <time>2016-06-16T10:24:02Z</time>
      </trkpt>
      <trkpt lat="47.67226" lon="0.42997">
        <ele>46.5</ele>
        <time>2016-06-16T10:24:11Z</time>
      </trkpt>
      <trkpt lat="47.67233" lon="0.43007">
        <ele>46.7</ele>
        <time>2016-06-16T10:24:19Z</time>
      </trkpt>
      <trkpt lat="47.67238" lon="0.43018">
        <ele>47.1</ele>
        <time>2016-06-16T10:24:26Z</time>
      </trkpt>
      <trkpt lat="47.67245" lon="0.43029">
        <ele>47.4</ele>
        <time>2016-06-16T10:24:33Z</time>
      </trkpt>
      <trkpt lat="47.67252" lon="0.43039">
        <ele>47.2</ele>
        <time>2016-06-16T10:24:40Z</time>
      </trkpt>
      <trkpt lat="47.67258" lon="0.43049">
        <ele>47.1</ele>
        <time>2016-06-16T10:24:49Z</time>
      </trkpt>
      <trkpt lat="47.67264" lon="0.4306">
        <ele>47.5</ele>
        <time>2016-06-16T10:24:58Z</time>
      </trkpt>
      <trkpt lat="47.6727" lon="0.43072">
        <ele>47.8</ele>
        <time>2016-06-16T10:25:07Z</time>
      </trkpt>
      <trkpt lat="47.67277" lon="0.43082">
        <ele>47.8</ele>
        <time>2016-06-16T10:25:15Z</time>
      </trkpt>
      <trkpt lat="47.67282" lon="0.43093">
        <ele>47.3</ele>
        <time>2016-06-16T10:25:23Z</time>
      </trkpt>
      <trkpt lat="47.67288" lon="0.43103">
        <ele>47.6</ele>
        <time>2016-06-16T10:25:32Z</time>
      </trkpt>
      <trkpt lat="47.67297" lon="0.4311">
        <ele>47.5</ele>
        <time>2016-06-16T10:25:41Z</time>
      </trkpt>
      <trkpt lat="47.67307" lon="0.43105">
        <ele>47.3</ele>
        <time>2016-06-16T10:25:51Z</time>
      </trkpt>
      <trkpt lat="47.67315" lon="0.43097">
        <ele>47.1</ele>
        <time>2016-06-16T10:26:06Z</time>
      </trkpt>
      <trkpt lat="47.67324" lon="0.4309">
        <ele>47.2</ele>
        <time>2016-06-16T10:26:15Z</time>
      </trkpt>
      <trkpt lat="47.67332" lon="0.43081">
        <ele>47.3</ele>
        <time>2016-06-16T10:26:24Z</time>
      </trkpt>
      <trkpt lat="47.6734" lon="0.43075">
        <ele>47.6</ele>
        <time>2016-06-16T10:26:33Z</time>
      </trkpt>
      <trkpt lat="47.67349" lon="0.4307">
        <ele>47.5</ele>
        <time>2016-06-16T10:26:42Z</time>
      </trkpt>
      <trkpt lat="47.67358" lon="0.43066">
        <ele>47.7</ele>
        <time>2016-06-16T10:26:54Z</time>
      </trkpt>
      <trkpt lat="47.67366" lon="0.43072">
        <ele>47.4</ele>
        <time>2016-06-16T10:27:02Z</time>
      </trkpt>
      <trkpt lat="47.67374" lon="0.43081">
        <ele>47.1</ele>
        <time>2016-06-16T10:27:12Z</time>
      </trkpt>
      <trkpt lat="47.6738" lon="0.43091">
        <ele>47.6</ele>
        <time>2016-06-16T10:27:21Z</time>
      </trkpt>
      <trkpt lat="47.67386" lon="0.43102">
        <ele>47.8</ele>
        <time>2016-06-16T10:27:30Z</time>
      </trkpt>
      <trkpt lat="47.67392" lon="0.43112">
        <ele>48</ele>
        <time>2016-06-16T10:27:38Z</time>
      </trkpt>
      <trkpt lat="47.67398" lon="0.43123">
        <ele>48.2</ele>
        <time>2016-06-16T10:27:45Z</time>
      </trkpt>
      <trkpt lat="47.67404" lon="0.43134">
        <ele>48</ele>
        <time>2016-06-16T10:27:53Z</time>
      </trkpt>
      <trkpt lat="47.67411" lon="0.43144">
        <ele>48.1</ele>
        <time>2016-06-16T10:28:01Z</time>
      </trkpt>
      <trkpt lat="47.67417" lon="0.43154">
        <ele>48.1</ele>
        <time>2016-06-16T10:28:09Z</time>
      </trkpt>
      <trkpt lat="47.67423" lon="0.43164">
        <ele>47.9</ele>
        <time>2016-06-16T10:28:17Z</time>
      </trkpt>
      <trkpt lat="47.67429" lon="0.43175">
        <ele>47.7</ele>
        <time>2016-06-16T10:28:25Z</time>
      </trkpt>
      <trkpt lat="47.67436" lon="0.43185">
        <ele>47.8</ele>
        <time>2016-06-16T10:28:33Z</time>
      </trkpt>
      <trkpt lat="47.67441" lon="0.43196">
        <ele>47.9</ele>
        <time>2016-06-16T10:28:41Z</time>
      </trkpt>
      <trkpt lat="47.67446" lon="0.43209">
        <ele>48.5</ele>
        <time>2016-06-16T10:28:48Z</time>
      </trkpt>
      <trkpt lat="47.6745" lon="0.43221">
        <ele>47.8</ele>
        <time>2016-06-16T10:28:55Z</time>
      </trkpt>
      <trkpt lat="47.67455" lon="0.43233">
        <ele>48</ele>
        <time>2016-06-16T10:29:03Z</time>
      </trkpt>
      <trkpt lat="47.6746" lon="0.43244">
        <ele>47.6</ele>
        <time>2016-06-16T10:29:11Z</time>
      </trkpt>
      <trkpt lat="47.67465" lon="0.43256">
        <ele>48.5</ele>
        <time>2016-06-16T10:29:19Z</time>
      </trkpt>
      <trkpt lat="47.6747" lon="0.43269">
        <ele>48</ele>
        <time>2016-06-16T10:29:27Z</time>
      </trkpt>
      <trkpt lat="47.67475" lon="0.4328">
        <ele>47.3</ele>
        <time>2016-06-16T10:29:34Z</time>
      </trkpt>
      <trkpt lat="47.67481" lon="0.43291">
        <ele>48.7</ele>
        <time>2016-06-16T10:29:42Z</time>
      </trkpt>
      <trkpt lat="47.67488" lon="0.43301">
        <ele>48.3</ele>
        <time>2016-06-16T10:29:50Z</time>
      </trkpt>
      <trkpt lat="47.67496" lon="0.43309">
        <ele>48.1</ele>
        <time>2016-06-16T10:29:59Z</time>
      </trkpt>
      <trkpt lat="47.67503" lon="0.43318">
        <ele>48.4</ele>
        <time>2016-06-16T10:31:54Z</time>
      </trkpt>
      <trkpt lat="47.6751" lon="0.43328">
        <ele>48.6</ele>
        <time>2016-06-16T10:32:03Z</time>
      </trkpt>
      <trkpt lat="47.67517" lon="0.43336">
        <ele>48.8</ele>
        <time>2016-06-16T10:32:10Z</time>
      </trkpt>
      <trkpt lat="47.67524" lon="0.43345">
        <ele>48.8</ele>
        <time>2016-06-16T10:32:17Z</time>
      </trkpt>
      <trkpt lat="47.67532" lon="0.43353">
        <ele>48.8</ele>
        <time>2016-06-16T10:32:26Z</time>
      </trkpt>
      <trkpt lat="47.67539" lon="0.43362">
        <ele>48.8</ele>
        <time>2016-06-16T10:32:33Z</time>
      </trkpt>
      <trkpt lat="47.67547" lon="0.43371">
        <ele>48.8</ele>
        <time>2016-06-16T10:32:40Z</time>
      </trkpt>
      <trkpt lat="47.67554" lon="0.4338">
        <ele>48.6</ele>
        <time>2016-06-16T10:32:48Z</time>
      </trkpt>
      <trkpt lat="47.67562" lon="0.43391">
        <ele>48.7</ele>
        <time>2016-06-16T10:32:57Z</time>
      </trkpt>
      <trkpt lat="47.67568" lon="0.43401">
        <ele>49</ele>
        <time>2016-06-16T10:33:04Z</time>
      </trkpt>
      <trkpt lat="47.67576" lon="0.43411">
        <ele>48.5</ele>
        <time>2016-06-16T10:33:12Z</time>
      </trkpt>
      <trkpt lat="47.67583" lon="0.43419">
        <ele>45</ele>
        <time>2016-06-16T10:33:20Z</time>
      </trkpt>
      <trkpt lat="47.67591" lon="0.43427">
        <ele>48.4</ele>
        <time>2016-06-16T10:33:28Z</time>
      </trkpt>
      <trkpt lat="47.67598" lon="0.43436">
        <ele>49.3</ele>
        <time>2016-06-16T10:33:36Z</time>
      </trkpt>
      <trkpt lat="47.67605" lon="0.43446">
        <ele>48.4</ele>
        <time>2016-06-16T10:33:44Z</time>
      </trkpt>
      <trkpt lat="47.67612" lon="0.43456">
        <ele>49.5</ele>
        <time>2016-06-16T10:33:51Z</time>
      </trkpt>
      <trkpt lat="47.67619" lon="0.43464">
        <ele>49.1</ele>
        <time>2016-06-16T10:33:58Z</time>
      </trkpt>
      <trkpt lat="47.67626" lon="0.43473">
        <ele>49.3</ele>
        <time>2016-06-16T10:34:06Z</time>
      </trkpt>
      <trkpt lat="47.67633" lon="0.43483">
        <ele>48.5</ele>
        <time>2016-06-16T10:34:14Z</time>
      </trkpt>
      <trkpt lat="47.6764" lon="0.43491">
        <ele>49.8</ele>
        <time>2016-06-16T10:34:22Z</time>
      </trkpt>
      <trkpt lat="47.67648" lon="0.43501">
        <ele>49.3</ele>
        <time>2016-06-16T10:34:30Z</time>
      </trkpt>
      <trkpt lat="47.67656" lon="0.43511">
        <ele>48.9</ele>
        <time>2016-06-16T10:34:38Z</time>
      </trkpt>
      <trkpt lat="47.67663" lon="0.4352">
        <ele>49.1</ele>
        <time>2016-06-16T10:34:46Z</time>
      </trkpt>
      <trkpt lat="47.67671" lon="0.43529">
        <ele>48.9</ele>
        <time>2016-06-16T10:34:54Z</time>
      </trkpt>
      <trkpt lat="47.67679" lon="0.43536">
        <ele>49.1</ele>
        <time>2016-06-16T10:35:03Z</time>
      </trkpt>
      <trkpt lat="47.67687" lon="0.43544">
        <ele>48.6</ele>
        <time>2016-06-16T10:35:10Z</time>
      </trkpt>
      <trkpt lat="47.67693" lon="0.43554">
        <ele>48.6</ele>
        <time>2016-06-16T10:35:18Z</time>
      </trkpt>
      <trkpt lat="47.67701" lon="0.43563">
        <ele>49</ele>
        <time>2016-06-16T10:35:26Z</time>
      </trkpt>
      <trkpt lat="47.67708" lon="0.43572">
        <ele>49.1</ele>
        <time>2016-06-16T10:35:34Z</time>
      </trkpt>
      <trkpt lat="47.67715" lon="0.43582">
        <ele>48.6</ele>
        <time>2016-06-16T10:35:42Z</time>
      </trkpt>
      <trkpt lat="47.67722" lon="0.43591">
        <ele>49</ele>
        <time>2016-06-16T10:35:50Z</time>
      </trkpt>
      <trkpt lat="47.6773" lon="0.43601">
        <ele>48.9</ele>
        <time>2016-06-16T10:35:58Z</time>
      </trkpt>
      <trkpt lat="47.67737" lon="0.4361">
        <ele>48.7</ele>
        <time>2016-06-16T10:36:06Z</time>
      </trkpt>
      <trkpt lat="47.67745" lon="0.43619">
        <ele>48.6</ele>
        <time>2016-06-16T10:36:14Z</time>
      </trkpt>
      <trkpt lat="47.67751" lon="0.43629">
        <ele>48.9</ele>
        <time>2016-06-16T10:36:22Z</time>
      </trkpt>
      <trkpt lat="47.67759" lon="0.43637">
        <ele>49.1</ele>
        <time>2016-06-16T10:36:30Z</time>
      </trkpt>
      <trkpt lat="47.67767" lon="0.43646">
        <ele>48.6</ele>
        <time>2016-06-16T10:36:38Z</time>
      </trkpt>
      <trkpt lat="47.67775" lon="0.43655">
        <ele>48.7</ele>
        <time>2016-06-16T10:36:47Z</time>
      </trkpt>
      <trkpt lat="47.67782" lon="0.43664">
        <ele>48.7</ele>
        <time>2016-06-16T10:36:55Z</time>
      </trkpt>
      <trkpt lat="47.6779" lon="0.43673">
        <ele>48.6</ele>
        <time>2016-06-16T10:37:03Z</time>
      </trkpt>
      <trkpt lat="47.67797" lon="0.43681">
        <ele>48.9</ele>
        <time>2016-06-16T10:37:11Z</time>
      </trkpt>
      <trkpt lat="47.67804" lon="0.43692">
        <ele>49</ele>
        <time>2016-06-16T10:37:19Z</time>
      </trkpt>
      <trkpt lat="47.67811" lon="0.43701">
        <ele>49.3</ele>
        <time>2016-06-16T10:37:27Z</time>
      </trkpt>
      <trkpt lat="47.67818" lon="0.4371">
        <ele>49.3</ele>
        <time>2016-06-16T10:37:34Z</time>
      </trkpt>
      <trkpt lat="47.67824" lon="0.43721">
        <ele>48.8</ele>
        <time>2016-06-16T10:37:42Z</time>
      </trkpt>
      <trkpt lat="47.67828" lon="0.43734">
        <ele>49.3</ele>
        <time>2016-06-16T10:37:50Z</time>
      </trkpt>
      <trkpt lat="47.67826" lon="0.43749">
        <ele>49.6</ele>
        <time>2016-06-16T10:37:59Z</time>
      </trkpt>
      <trkpt lat="47.67823" lon="0.43762">
        <ele>49.9</ele>
        <time>2016-06-16T10:40:53Z</time>
      </trkpt>
      <trkpt lat="47.6783" lon="0.43772">
        <ele>49.5</ele>
        <time>2016-06-16T10:41:22Z</time>
      </trkpt>
      <trkpt lat="47.67839" lon="0.43777">
        <ele>49.6</ele>
        <time>2016-06-16T10:41:41Z</time>
      </trkpt>
      <trkpt lat="47.67845" lon="0.43787">
        <ele>49.8</ele>
        <time>2016-06-16T10:41:57Z</time>
      </trkpt>
      <trkpt lat="47.67851" lon="0.43798">
        <ele>50</ele>
        <time>2016-06-16T10:42:14Z</time>
      </trkpt>
      <trkpt lat="47.67857" lon="0.43808">
        <ele>49.8</ele>
        <time>2016-06-16T10:42:25Z</time>
      </trkpt>
      <trkpt lat="47.67861" lon="0.43821">
        <ele>50.1</ele>
        <time>2016-06-16T10:42:35Z</time>
      </trkpt>
      <trkpt lat="47.67863" lon="0.43807">
        <ele>50.5</ele>
        <time>2016-06-16T10:42:50Z</time>
      </trkpt>
      <trkpt lat="47.6786" lon="0.43794">
        <ele>49.9</ele>
        <time>2016-06-16T10:43:01Z</time>
      </trkpt>
      <trkpt lat="47.67853" lon="0.43785">
        <ele>50</ele>
        <time>2016-06-16T10:44:06Z</time>
      </trkpt>
      <trkpt lat="47.67857" lon="0.43798">
        <ele>49.7</ele>
        <time>2016-06-16T10:44:43Z</time>
      </trkpt>
      <trkpt lat="47.6786" lon="0.43812">
        <ele>49.9</ele>
        <time>2016-06-16T10:44:53Z</time>
      </trkpt>
      <trkpt lat="47.67866" lon="0.43822">
        <ele>48.8</ele>
        <time>2016-06-16T10:54:42Z</time>
      </trkpt>
      <trkpt lat="47.67867" lon="0.43837">
        <ele>48.7</ele>
        <time>2016-06-16T10:54:53Z</time>
      </trkpt>
      <trkpt lat="47.6787" lon="0.4385">
        <ele>48.4</ele>
        <time>2016-06-16T10:55:00Z</time>
      </trkpt>
      <trkpt lat="47.67872" lon="0.43865">
        <ele>48.9</ele>
        <time>2016-06-16T10:55:09Z</time>
      </trkpt>
      <trkpt lat="47.67875" lon="0.43877">
        <ele>48.8</ele>
        <time>2016-06-16T10:55:17Z</time>
      </trkpt>
      <trkpt lat="47.67878" lon="0.4389">
        <ele>48.8</ele>
        <time>2016-06-16T10:55:25Z</time>
      </trkpt>
      <trkpt lat="47.6788" lon="0.43904">
        <ele>48.8</ele>
        <time>2016-06-16T10:55:37Z</time>
      </trkpt>
      <trkpt lat="47.67883" lon="0.43918">
        <ele>48.7</ele>
        <time>2016-06-16T10:55:46Z</time>
      </trkpt>
      <trkpt lat="47.67886" lon="0.43933">
        <ele>48.7</ele>
        <time>2016-06-16T10:55:54Z</time>
      </trkpt>
      <trkpt lat="47.67889" lon="0.43946">
        <ele>48.4</ele>
        <time>2016-06-16T10:56:02Z</time>
      </trkpt>
      <trkpt lat="47.67891" lon="0.43959">
        <ele>48.3</ele>
        <time>2016-06-16T10:56:09Z</time>
      </trkpt>
      <trkpt lat="47.67894" lon="0.43974">
        <ele>48.7</ele>
        <time>2016-06-16T10:56:18Z</time>
      </trkpt>
      <trkpt lat="47.67897" lon="0.43988">
        <ele>48.9</ele>
        <time>2016-06-16T10:56:26Z</time>
      </trkpt>
      <trkpt lat="47.67899" lon="0.44002">
        <ele>47.9</ele>
        <time>2016-06-16T10:56:34Z</time>
      </trkpt>
      <trkpt lat="47.67901" lon="0.44016">
        <ele>48.1</ele>
        <time>2016-06-16T10:56:42Z</time>
      </trkpt>
      <trkpt lat="47.67904" lon="0.4403">
        <ele>48.6</ele>
        <time>2016-06-16T10:56:51Z</time>
      </trkpt>
      <trkpt lat="47.67906" lon="0.44043">
        <ele>48.6</ele>
        <time>2016-06-16T10:56:59Z</time>
      </trkpt>
      <trkpt lat="47.67908" lon="0.44057">
        <ele>48.1</ele>
        <time>2016-06-16T10:57:07Z</time>
      </trkpt>
      <trkpt lat="47.67911" lon="0.44072">
        <ele>49</ele>
        <time>2016-06-16T10:57:16Z</time>
      </trkpt>
      <trkpt lat="47.67914" lon="0.44085">
        <ele>48</ele>
        <time>2016-06-16T10:57:24Z</time>
      </trkpt>
      <trkpt lat="47.67917" lon="0.44099">
        <ele>48.6</ele>
        <time>2016-06-16T10:57:33Z</time>
      </trkpt>
      <trkpt lat="47.67919" lon="0.44114">
        <ele>48.5</ele>
        <time>2016-06-16T10:57:41Z</time>
      </trkpt>
      <trkpt lat="47.67922" lon="0.44128">
        <ele>48.6</ele>
        <time>2016-06-16T10:57:50Z</time>
      </trkpt>
      <trkpt lat="47.67924" lon="0.44142">
        <ele>48.6</ele>
        <time>2016-06-16T10:57:58Z</time>
      </trkpt>
      <trkpt lat="47.67927" lon="0.44156">
        <ele>48.1</ele>
        <time>2016-06-16T10:58:06Z</time>
      </trkpt>
      <trkpt lat="47.6793" lon="0.44169">
        <ele>47.4</ele>
        <time>2016-06-16T10:58:13Z</time>
      </trkpt>
      <trkpt lat="47.67932" lon="0.44183">
        <ele>49</ele>
        <time>2016-06-16T10:58:21Z</time>
      </trkpt>
      <trkpt lat="47.67934" lon="0.44196">
        <ele>48.3</ele>
        <time>2016-06-16T10:58:28Z</time>
      </trkpt>
      <trkpt lat="47.67936" lon="0.4421">
        <ele>48</ele>
        <time>2016-06-16T10:58:36Z</time>
      </trkpt>
      <trkpt lat="47.67938" lon="0.44223">
        <ele>48.1</ele>
        <time>2016-06-16T10:58:45Z</time>
      </trkpt>
      <trkpt lat="47.67947" lon="0.44226">
        <ele>47.9</ele>
        <time>2016-06-16T10:58:58Z</time>
      </trkpt>
      <trkpt lat="47.67957" lon="0.44222">
        <ele>47</ele>
        <time>2016-06-16T10:59:06Z</time>
      </trkpt>
      <trkpt lat="47.67966" lon="0.44218">
        <ele>47.1</ele>
        <time>2016-06-16T10:59:16Z</time>
      </trkpt>
      <trkpt lat="47.67976" lon="0.44213">
        <ele>47.3</ele>
        <time>2016-06-16T10:59:43Z</time>
      </trkpt>
      <trkpt lat="47.67984" lon="0.44206">
        <ele>47.3</ele>
        <time>2016-06-16T10:59:54Z</time>
      </trkpt>
      <trkpt lat="47.67993" lon="0.44203">
        <ele>47.1</ele>
        <time>2016-06-16T11:00:03Z</time>
      </trkpt>
      <trkpt lat="47.68002" lon="0.44201">
        <ele>47</ele>
        <time>2016-06-16T11:00:12Z</time>
      </trkpt>
      <trkpt lat="47.68011" lon="0.44205">
        <ele>47.1</ele>
        <time>2016-06-16T11:00:43Z</time>
      </trkpt>
      <trkpt lat="47.68005" lon="0.44195">
        <ele>46.9</ele>
        <time>2016-06-16T11:01:02Z</time>
      </trkpt>
      <trkpt lat="47.68011" lon="0.44205">
        <ele>46.2</ele>
        <time>2016-06-16T11:02:33Z</time>
      </trkpt>
      <trkpt lat="47.68019" lon="0.44213">
        <ele>45.8</ele>
        <time>2016-06-16T11:02:55Z</time>
      </trkpt>
      <trkpt lat="47.68027" lon="0.4422">
        <ele>46.2</ele>
        <time>2016-06-16T11:03:14Z</time>
      </trkpt>
      <trkpt lat="47.68036" lon="0.44225">
        <ele>45.8</ele>
        <time>2016-06-16T11:03:33Z</time>
      </trkpt>
      <trkpt lat="47.68046" lon="0.44224">
        <ele>46.7</ele>
        <time>2016-06-16T11:04:08Z</time>
      </trkpt>
      <trkpt lat="47.68057" lon="0.44226">
        <ele>45.4</ele>
        <time>2016-06-16T11:04:20Z</time>
      </trkpt>
      <trkpt lat="47.68066" lon="0.4422">
        <ele>45.6</ele>
        <time>2016-06-16T11:04:28Z</time>
      </trkpt>
      <trkpt lat="47.68075" lon="0.44221">
        <ele>45.2</ele>
        <time>2016-06-16T11:04:36Z</time>
      </trkpt>
      <trkpt lat="47.68084" lon="0.44217">
        <ele>45.4</ele>
        <time>2016-06-16T11:05:01Z</time>
      </trkpt>
      <trkpt lat="47.68093" lon="0.44216">
        <ele>45.5</ele>
        <time>2016-06-16T11:05:26Z</time>
      </trkpt>
      <trkpt lat="47.68103" lon="0.44213">
        <ele>45</ele>
        <time>2016-06-16T11:05:41Z</time>
      </trkpt>
      <trkpt lat="47.68113" lon="0.44213">
        <ele>45.1</ele>
        <time>2016-06-16T11:05:56Z</time>
      </trkpt>
      <trkpt lat="47.68122" lon="0.44211">
        <ele>44.9</ele>
        <time>2016-06-16T11:06:11Z</time>
      </trkpt>
      <trkpt lat="47.68131" lon="0.44211">
        <ele>45.8</ele>
        <time>2016-06-16T11:06:22Z</time>
      </trkpt>
      <trkpt lat="47.68141" lon="0.44208">
        <ele>45</ele>
        <time>2016-06-16T11:06:35Z</time>
      </trkpt>
      <trkpt lat="47.68141" lon="0.44195">
        <ele>31.4</ele>
        <time>2016-06-16T11:09:24Z</time>
      </trkpt>
      <trkpt lat="47.68149" lon="0.44202">
        <ele>43.4</ele>
        <time>2016-06-16T11:13:49Z</time>
      </trkpt>
      <trkpt lat="47.68158" lon="0.44202">
        <ele>43.1</ele>
        <time>2016-06-16T11:13:57Z</time>
      </trkpt>
      <trkpt lat="47.68167" lon="0.44198">
        <ele>42.9</ele>
        <time>2016-06-16T11:14:06Z</time>
      </trkpt>
      <trkpt lat="47.68177" lon="0.44202">
        <ele>43</ele>
        <time>2016-06-16T11:14:14Z</time>
      </trkpt>
      <trkpt lat="47.68186" lon="0.44199">
        <ele>42.7</ele>
        <time>2016-06-16T11:14:22Z</time>
      </trkpt>
      <trkpt lat="47.68195" lon="0.44192">
        <ele>42.7</ele>
        <time>2016-06-16T11:14:30Z</time>
      </trkpt>
      <trkpt lat="47.68204" lon="0.44189">
        <ele>43.2</ele>
        <time>2016-06-16T11:14:38Z</time>
      </trkpt>
      <trkpt lat="47.68214" lon="0.44189">
        <ele>43.6</ele>
        <time>2016-06-16T11:14:47Z</time>
      </trkpt>
      <trkpt lat="47.68223" lon="0.4419">
        <ele>43.6</ele>
        <time>2016-06-16T11:14:56Z</time>
      </trkpt>
      <trkpt lat="47.68229" lon="0.442">
        <ele>44</ele>
        <time>2016-06-16T11:15:06Z</time>
      </trkpt>
      <trkpt lat="47.68232" lon="0.44215">
        <ele>44</ele>
        <time>2016-06-16T11:15:15Z</time>
      </trkpt>
      <trkpt lat="47.68234" lon="0.44229">
        <ele>44.5</ele>
        <time>2016-06-16T11:15:23Z</time>
      </trkpt>
      <trkpt lat="47.68234" lon="0.44242">
        <ele>45</ele>
        <time>2016-06-16T11:15:30Z</time>
      </trkpt>
      <trkpt lat="47.68236" lon="0.44257">
        <ele>44.6</ele>
        <time>2016-06-16T11:15:39Z</time>
      </trkpt>
      <trkpt lat="47.68238" lon="0.44272">
        <ele>44.3</ele>
        <time>2016-06-16T11:15:47Z</time>
      </trkpt>
      <trkpt lat="47.68239" lon="0.44287">
        <ele>44.2</ele>
        <time>2016-06-16T11:15:56Z</time>
      </trkpt>
      <trkpt lat="47.68241" lon="0.443">
        <ele>44.3</ele>
        <time>2016-06-16T11:16:02Z</time>
      </trkpt>
      <trkpt lat="47.68242" lon="0.44314">
        <ele>44.2</ele>
        <time>2016-06-16T11:16:10Z</time>
      </trkpt>
      <trkpt lat="47.68244" lon="0.44328">
        <ele>44.4</ele>
        <time>2016-06-16T11:16:18Z</time>
      </trkpt>
      <trkpt lat="47.68245" lon="0.44343">
        <ele>44.2</ele>
        <time>2016-06-16T11:16:27Z</time>
      </trkpt>
      <trkpt lat="47.68246" lon="0.44356">
        <ele>44.2</ele>
        <time>2016-06-16T11:16:35Z</time>
      </trkpt>
      <trkpt lat="47.68251" lon="0.44369">
        <ele>45</ele>
        <time>2016-06-16T11:16:43Z</time>
      </trkpt>
      <trkpt lat="47.68261" lon="0.44368">
        <ele>46.3</ele>
        <time>2016-06-16T11:16:51Z</time>
      </trkpt>
      <trkpt lat="47.6827" lon="0.44362">
        <ele>46.6</ele>
        <time>2016-06-16T11:17:01Z</time>
      </trkpt>
      <trkpt lat="47.68279" lon="0.44356">
        <ele>46.7</ele>
        <time>2016-06-16T11:17:09Z</time>
      </trkpt>
      <trkpt lat="47.68287" lon="0.44347">
        <ele>46.5</ele>
        <time>2016-06-16T11:17:17Z</time>
      </trkpt>
      <trkpt lat="47.68293" lon="0.44337">
        <ele>46.6</ele>
        <time>2016-06-16T11:17:26Z</time>
      </trkpt>
      <trkpt lat="47.68302" lon="0.4433">
        <ele>46.6</ele>
        <time>2016-06-16T11:17:36Z</time>
      </trkpt>
      <trkpt lat="47.68309" lon="0.44322">
        <ele>46.7</ele>
        <time>2016-06-16T11:17:43Z</time>
      </trkpt>
      <trkpt lat="47.68317" lon="0.44314">
        <ele>46.7</ele>
        <time>2016-06-16T11:17:51Z</time>
      </trkpt>
      <trkpt lat="47.68324" lon="0.44305">
        <ele>47.1</ele>
        <time>2016-06-16T11:17:59Z</time>
      </trkpt>
      <trkpt lat="47.68333" lon="0.44297">
        <ele>46.8</ele>
        <time>2016-06-16T11:18:09Z</time>
      </trkpt>
      <trkpt lat="47.68341" lon="0.4429">
        <ele>46.6</ele>
        <time>2016-06-16T11:18:17Z</time>
      </trkpt>
      <trkpt lat="47.68349" lon="0.44282">
        <ele>46.2</ele>
        <time>2016-06-16T11:18:25Z</time>
      </trkpt>
      <trkpt lat="47.68357" lon="0.44272">
        <ele>45.9</ele>
        <time>2016-06-16T11:18:33Z</time>
      </trkpt>
      <trkpt lat="47.68365" lon="0.44264">
        <ele>45.8</ele>
        <time>2016-06-16T11:18:41Z</time>
      </trkpt>
      <trkpt lat="47.68373" lon="0.44255">
        <ele>46.3</ele>
        <time>2016-06-16T11:18:49Z</time>
      </trkpt>
      <trkpt lat="47.6838" lon="0.44244">
        <ele>46.4</ele>
        <time>2016-06-16T11:18:57Z</time>
      </trkpt>
      <trkpt lat="47.68387" lon="0.44234">
        <ele>45.5</ele>
        <time>2016-06-16T11:19:04Z</time>
      </trkpt>
      <trkpt lat="47.68395" lon="0.44225">
        <ele>45</ele>
        <time>2016-06-16T11:19:12Z</time>
      </trkpt>
      <trkpt lat="47.68402" lon="0.44216">
        <ele>44.1</ele>
        <time>2016-06-16T11:19:20Z</time>
      </trkpt>
      <trkpt lat="47.68409" lon="0.44206">
        <ele>44.3</ele>
        <time>2016-06-16T11:19:27Z</time>
      </trkpt>
      <trkpt lat="47.68413" lon="0.44192">
        <ele>45</ele>
        <time>2016-06-16T11:19:49Z</time>
      </trkpt>
      <trkpt lat="47.68411" lon="0.44178">
        <ele>44</ele>
        <time>2016-06-16T11:19:56Z</time>
      </trkpt>
      <trkpt lat="47.68408" lon="0.44164">
        <ele>43</ele>
        <time>2016-06-16T11:20:04Z</time>
      </trkpt>
      <trkpt lat="47.68405" lon="0.44151">
        <ele>42.7</ele>
        <time>2016-06-16T11:20:11Z</time>
      </trkpt>
      <trkpt lat="47.68402" lon="0.44137">
        <ele>41.8</ele>
        <time>2016-06-16T11:20:18Z</time>
      </trkpt>
      <trkpt lat="47.68398" lon="0.44124">
        <ele>41.5</ele>
        <time>2016-06-16T11:20:26Z</time>
      </trkpt>
      <trkpt lat="47.68394" lon="0.44109">
        <ele>41</ele>
        <time>2016-06-16T11:20:34Z</time>
      </trkpt>
      <trkpt lat="47.68389" lon="0.44096">
        <ele>40.6</ele>
        <time>2016-06-16T11:20:42Z</time>
      </trkpt>
      <trkpt lat="47.68385" lon="0.44082">
        <ele>40.2</ele>
        <time>2016-06-16T11:20:50Z</time>
      </trkpt>
      <trkpt lat="47.6838" lon="0.44069">
        <ele>40.3</ele>
        <time>2016-06-16T11:20:58Z</time>
      </trkpt>
      <trkpt lat="47.68381" lon="0.44055">
        <ele>40.6</ele>
        <time>2016-06-16T11:21:07Z</time>
      </trkpt>
      <trkpt lat="47.68384" lon="0.4404">
        <ele>40.4</ele>
        <time>2016-06-16T11:21:16Z</time>
      </trkpt>
      <trkpt lat="47.6839" lon="0.4403">
        <ele>40.2</ele>
        <time>2016-06-16T11:21:23Z</time>
      </trkpt>
      <trkpt lat="47.68395" lon="0.44018">
        <ele>40.3</ele>
        <time>2016-06-16T11:21:31Z</time>
      </trkpt>
      <trkpt lat="47.68401" lon="0.44006">
        <ele>40</ele>
        <time>2016-06-16T11:21:39Z</time>
      </trkpt>
      <trkpt lat="47.68408" lon="0.43995">
        <ele>40.3</ele>
        <time>2016-06-16T11:21:47Z</time>
      </trkpt>
      <trkpt lat="47.68414" lon="0.43985">
        <ele>40.5</ele>
        <time>2016-06-16T11:21:54Z</time>
      </trkpt>
      <trkpt lat="47.6842" lon="0.43974">
        <ele>40.3</ele>
        <time>2016-06-16T11:22:00Z</time>
      </trkpt>
      <trkpt lat="47.68413" lon="0.43962">
        <ele>40.1</ele>
        <time>2016-06-16T11:22:07Z</time>
      </trkpt>
      <trkpt lat="47.68407" lon="0.43952">
        <ele>39.8</ele>
        <time>2016-06-16T11:22:14Z</time>
      </trkpt>
      <trkpt lat="47.68401" lon="0.4394">
        <ele>39.5</ele>
        <time>2016-06-16T11:22:21Z</time>
      </trkpt>
      <trkpt lat="47.68396" lon="0.43927">
        <ele>39.4</ele>
        <time>2016-06-16T11:22:28Z</time>
      </trkpt>
      <trkpt lat="47.68391" lon="0.43916">
        <ele>39.5</ele>
        <time>2016-06-16T11:22:35Z</time>
      </trkpt>
      <trkpt lat="47.68384" lon="0.43905">
        <ele>39.8</ele>
        <time>2016-06-16T11:22:42Z</time>
      </trkpt>
      <trkpt lat="47.68379" lon="0.43892">
        <ele>39.5</ele>
        <time>2016-06-16T11:22:50Z</time>
      </trkpt>
      <trkpt lat="47.68375" lon="0.43878">
        <ele>39.5</ele>
        <time>2016-06-16T11:22:58Z</time>
      </trkpt>
      <trkpt lat="47.68371" lon="0.43866">
        <ele>38.9</ele>
        <time>2016-06-16T11:23:05Z</time>
      </trkpt>
      <trkpt lat="47.68367" lon="0.43852">
        <ele>38.7</ele>
        <time>2016-06-16T11:23:13Z</time>
      </trkpt>
      <trkpt lat="47.68363" lon="0.43839">
        <ele>38.8</ele>
        <time>2016-06-16T11:23:20Z</time>
      </trkpt>
      <trkpt lat="47.68358" lon="0.43826">
        <ele>39.4</ele>
        <time>2016-06-16T11:23:28Z</time>
      </trkpt>
      <trkpt lat="47.68354" lon="0.43813">
        <ele>39.2</ele>
        <time>2016-06-16T11:23:35Z</time>
      </trkpt>
      <trkpt lat="47.6835" lon="0.438">
        <ele>38.9</ele>
        <time>2016-06-16T11:23:42Z</time>
      </trkpt>
      <trkpt lat="47.68346" lon="0.43785">
        <ele>39</ele>
        <time>2016-06-16T11:23:49Z</time>
      </trkpt>
      <trkpt lat="47.68342" lon="0.43772">
        <ele>38.9</ele>
        <time>2016-06-16T11:23:56Z</time>
      </trkpt>
      <trkpt lat="47.68338" lon="0.43758">
        <ele>37.8</ele>
        <time>2016-06-16T11:24:04Z</time>
      </trkpt>
      <trkpt lat="47.68337" lon="0.43743">
        <ele>38.1</ele>
        <time>2016-06-16T11:24:11Z</time>
      </trkpt>
      <trkpt lat="47.68333" lon="0.4373">
        <ele>37</ele>
        <time>2016-06-16T11:24:18Z</time>
      </trkpt>
      <trkpt lat="47.6833" lon="0.43716">
        <ele>37.7</ele>
        <time>2016-06-16T11:24:26Z</time>
      </trkpt>
      <trkpt lat="47.68328" lon="0.43702">
        <ele>38.2</ele>
        <time>2016-06-16T11:24:33Z</time>
      </trkpt>
      <trkpt lat="47.68323" lon="0.43689">
        <ele>38.3</ele>
        <time>2016-06-16T11:24:40Z</time>
      </trkpt>
      <trkpt lat="47.68322" lon="0.43676">
        <ele>37.5</ele>
        <time>2016-06-16T11:24:47Z</time>
      </trkpt>
      <trkpt lat="47.68317" lon="0.43663">
        <ele>36.9</ele>
        <time>2016-06-16T11:24:54Z</time>
      </trkpt>
      <trkpt lat="47.68313" lon="0.43649">
        <ele>37.6</ele>
        <time>2016-06-16T11:25:01Z</time>
      </trkpt>
      <trkpt lat="47.68309" lon="0.43637">
        <ele>38.2</ele>
        <time>2016-06-16T11:25:08Z</time>
      </trkpt>
      <trkpt lat="47.68304" lon="0.43624">
        <ele>37.6</ele>
        <time>2016-06-16T11:25:15Z</time>
      </trkpt>
      <trkpt lat="47.68299" lon="0.43612">
        <ele>37.5</ele>
        <time>2016-06-16T11:25:22Z</time>
      </trkpt>
      <trkpt lat="47.68296" lon="0.43599">
        <ele>37.6</ele>
        <time>2016-06-16T11:25:29Z</time>
      </trkpt>
      <trkpt lat="47.68291" lon="0.43586">
        <ele>36.7</ele>
        <time>2016-06-16T11:25:36Z</time>
      </trkpt>
      <trkpt lat="47.68286" lon="0.43574">
        <ele>35.8</ele>
        <time>2016-06-16T11:25:43Z</time>
      </trkpt>
      <trkpt lat="47.6828" lon="0.43562">
        <ele>36.5</ele>
        <time>2016-06-16T11:25:50Z</time>
      </trkpt>
      <trkpt lat="47.68276" lon="0.43549">
        <ele>36.2</ele>
        <time>2016-06-16T11:25:57Z</time>
      </trkpt>
      <trkpt lat="47.68271" lon="0.43538">
        <ele>36.5</ele>
        <time>2016-06-16T11:26:04Z</time>
      </trkpt>
      <trkpt lat="47.68267" lon="0.43525">
        <ele>37.3</ele>
        <time>2016-06-16T11:26:12Z</time>
      </trkpt>
      <trkpt lat="47.68263" lon="0.43511">
        <ele>37.4</ele>
        <time>2016-06-16T11:26:19Z</time>
      </trkpt>
      <trkpt lat="47.68259" lon="0.43497">
        <ele>37.6</ele>
        <time>2016-06-16T11:26:27Z</time>
      </trkpt>
      <trkpt lat="47.68257" lon="0.43484">
        <ele>37.3</ele>
        <time>2016-06-16T11:26:34Z</time>
      </trkpt>
      <trkpt lat="47.68253" lon="0.4347">
        <ele>37</ele>
        <time>2016-06-16T11:26:41Z</time>
      </trkpt>
      <trkpt lat="47.68252" lon="0.43455">
        <ele>36.9</ele>
        <time>2016-06-16T11:26:49Z</time>
      </trkpt>
      <trkpt lat="47.68248" lon="0.43442">
        <ele>36.7</ele>
        <time>2016-06-16T11:26:56Z</time>
      </trkpt>
      <trkpt lat="47.68245" lon="0.43429">
        <ele>36.8</ele>
        <time>2016-06-16T11:27:03Z</time>
      </trkpt>
      <trkpt lat="47.68239" lon="0.43416">
        <ele>37.3</ele>
        <time>2016-06-16T11:27:11Z</time>
      </trkpt>
      <trkpt lat="47.68237" lon="0.43402">
        <ele>37.6</ele>
        <time>2016-06-16T11:27:19Z</time>
      </trkpt>
      <trkpt lat="47.6823" lon="0.43393">
        <ele>36.7</ele>
        <time>2016-06-16T11:27:27Z</time>
      </trkpt>
      <trkpt lat="47.68223" lon="0.43383">
        <ele>36.5</ele>
        <time>2016-06-16T11:27:34Z</time>
      </trkpt>
      <trkpt lat="47.68219" lon="0.4337">
        <ele>36.4</ele>
        <time>2016-06-16T11:27:42Z</time>
      </trkpt>
      <trkpt lat="47.68216" lon="0.43358">
        <ele>36.6</ele>
        <time>2016-06-16T11:27:49Z</time>
      </trkpt>
      <trkpt lat="47.68213" lon="0.43345">
        <ele>36.9</ele>
        <time>2016-06-16T11:27:56Z</time>
      </trkpt>
      <trkpt lat="47.68207" lon="0.43333">
        <ele>36.8</ele>
        <time>2016-06-16T11:28:03Z</time>
      </trkpt>
      <trkpt lat="47.68206" lon="0.43319">
        <ele>37.2</ele>
        <time>2016-06-16T11:28:10Z</time>
      </trkpt>
      <trkpt lat="47.68206" lon="0.43306">
        <ele>36.8</ele>
        <time>2016-06-16T11:28:17Z</time>
      </trkpt>
      <trkpt lat="47.68203" lon="0.43292">
        <ele>35.8</ele>
        <time>2016-06-16T11:28:24Z</time>
      </trkpt>
      <trkpt lat="47.68202" lon="0.43279">
        <ele>36.7</ele>
        <time>2016-06-16T11:28:31Z</time>
      </trkpt>
      <trkpt lat="47.682" lon="0.43265">
        <ele>37.3</ele>
        <time>2016-06-16T11:28:38Z</time>
      </trkpt>
      <trkpt lat="47.68196" lon="0.43252">
        <ele>37.2</ele>
        <time>2016-06-16T11:28:52Z</time>
      </trkpt>
      <trkpt lat="47.68193" lon="0.43239">
        <ele>35.9</ele>
        <time>2016-06-16T11:28:59Z</time>
      </trkpt>
      <trkpt lat="47.68188" lon="0.43228">
        <ele>36.6</ele>
        <time>2016-06-16T11:29:06Z</time>
      </trkpt>
      <trkpt lat="47.68183" lon="0.43216">
        <ele>36.8</ele>
        <time>2016-06-16T11:29:13Z</time>
      </trkpt>
      <trkpt lat="47.68178" lon="0.43205">
        <ele>37.1</ele>
        <time>2016-06-16T11:29:20Z</time>
      </trkpt>
      <trkpt lat="47.68172" lon="0.43193">
        <ele>37</ele>
        <time>2016-06-16T11:29:27Z</time>
      </trkpt>
      <trkpt lat="47.68166" lon="0.43182">
        <ele>36.8</ele>
        <time>2016-06-16T11:29:34Z</time>
      </trkpt>
      <trkpt lat="47.68161" lon="0.4317">
        <ele>37</ele>
        <time>2016-06-16T11:29:41Z</time>
      </trkpt>
      <trkpt lat="47.68156" lon="0.43157">
        <ele>36.3</ele>
        <time>2016-06-16T11:29:49Z</time>
      </trkpt>
      <trkpt lat="47.68152" lon="0.43144">
        <ele>36.3</ele>
        <time>2016-06-16T11:29:56Z</time>
      </trkpt>
      <trkpt lat="47.68151" lon="0.43129">
        <ele>36.1</ele>
        <time>2016-06-16T11:30:04Z</time>
      </trkpt>
      <trkpt lat="47.68147" lon="0.43115">
        <ele>37.3</ele>
        <time>2016-06-16T11:30:12Z</time>
      </trkpt>
      <trkpt lat="47.68145" lon="0.431">
        <ele>37</ele>
        <time>2016-06-16T11:30:20Z</time>
      </trkpt>
      <trkpt lat="47.68143" lon="0.43086">
        <ele>36.8</ele>
        <time>2016-06-16T11:30:28Z</time>
      </trkpt>
      <trkpt lat="47.68144" lon="0.43072">
        <ele>37</ele>
        <time>2016-06-16T11:30:35Z</time>
      </trkpt>
      <trkpt lat="47.68144" lon="0.43057">
        <ele>36.6</ele>
        <time>2016-06-16T11:30:42Z</time>
      </trkpt>
      <trkpt lat="47.68143" lon="0.43043">
        <ele>36.6</ele>
        <time>2016-06-16T11:30:49Z</time>
      </trkpt>
      <trkpt lat="47.68144" lon="0.43029">
        <ele>37.1</ele>
        <time>2016-06-16T11:30:56Z</time>
      </trkpt>
      <trkpt lat="47.68143" lon="0.43014">
        <ele>37</ele>
        <time>2016-06-16T11:31:03Z</time>
      </trkpt>
      <trkpt lat="47.68144" lon="0.43001">
        <ele>36.3</ele>
        <time>2016-06-16T11:31:10Z</time>
      </trkpt>
      <trkpt lat="47.68142" lon="0.42987">
        <ele>36.8</ele>
        <time>2016-06-16T11:31:17Z</time>
      </trkpt>
      <trkpt lat="47.68142" lon="0.42972">
        <ele>36.6</ele>
        <time>2016-06-16T11:31:24Z</time>
      </trkpt>
      <trkpt lat="47.68147" lon="0.4296">
        <ele>36.7</ele>
        <time>2016-06-16T11:31:31Z</time>
      </trkpt>
      <trkpt lat="47.68152" lon="0.42949">
        <ele>36.5</ele>
        <time>2016-06-16T11:31:37Z</time>
      </trkpt>
      <trkpt lat="47.68155" lon="0.42935">
        <ele>36.2</ele>
        <time>2016-06-16T11:31:44Z</time>
      </trkpt>
      <trkpt lat="47.68158" lon="0.42921">
        <ele>36</ele>
        <time>2016-06-16T11:31:52Z</time>
      </trkpt>
      <trkpt lat="47.68163" lon="0.4291">
        <ele>36.1</ele>
        <time>2016-06-16T11:32:00Z</time>
      </trkpt>
      <trkpt lat="47.68172" lon="0.42905">
        <ele>36</ele>
        <time>2016-06-16T11:32:09Z</time>
      </trkpt>
      <trkpt lat="47.68181" lon="0.42901">
        <ele>36.2</ele>
        <time>2016-06-16T11:32:16Z</time>
      </trkpt>
      <trkpt lat="47.6819" lon="0.42898">
        <ele>36.4</ele>
        <time>2016-06-16T11:32:23Z</time>
      </trkpt>
      <trkpt lat="47.68199" lon="0.42894">
        <ele>36.5</ele>
        <time>2016-06-16T11:32:31Z</time>
      </trkpt>
      <trkpt lat="47.68209" lon="0.42893">
        <ele>35.1</ele>
        <time>2016-06-16T11:32:38Z</time>
      </trkpt>
      <trkpt lat="47.68218" lon="0.42887">
        <ele>35.7</ele>
        <time>2016-06-16T11:32:45Z</time>
      </trkpt>
      <trkpt lat="47.68227" lon="0.42884">
        <ele>35.8</ele>
        <time>2016-06-16T11:32:53Z</time>
      </trkpt>
      <trkpt lat="47.68237" lon="0.42882">
        <ele>36.7</ele>
        <time>2016-06-16T11:33:01Z</time>
      </trkpt>
      <trkpt lat="47.68246" lon="0.42877">
        <ele>38.9</ele>
        <time>2016-06-16T11:33:09Z</time>
      </trkpt>
      <trkpt lat="47.68249" lon="0.42864">
        <ele>40.4</ele>
        <time>2016-06-16T11:33:25Z</time>
      </trkpt>
      <trkpt lat="47.68251" lon="0.42849">
        <ele>39.9</ele>
        <time>2016-06-16T11:33:40Z</time>
      </trkpt>
      <trkpt lat="47.68252" lon="0.42834">
        <ele>40.2</ele>
        <time>2016-06-16T11:33:47Z</time>
      </trkpt>
      <trkpt lat="47.68252" lon="0.4282">
        <ele>40.6</ele>
        <time>2016-06-16T11:33:54Z</time>
      </trkpt>
      <trkpt lat="47.68253" lon="0.42805">
        <ele>39.9</ele>
        <time>2016-06-16T11:34:02Z</time>
      </trkpt>
      <trkpt lat="47.68254" lon="0.4279">
        <ele>40</ele>
        <time>2016-06-16T11:34:10Z</time>
      </trkpt>
      <trkpt lat="47.68254" lon="0.42775">
        <ele>39.1</ele>
        <time>2016-06-16T11:34:18Z</time>
      </trkpt>
      <trkpt lat="47.68254" lon="0.42762">
        <ele>39.3</ele>
        <time>2016-06-16T11:34:25Z</time>
      </trkpt>
      <trkpt lat="47.68255" lon="0.42748">
        <ele>39.5</ele>
        <time>2016-06-16T11:34:31Z</time>
      </trkpt>
      <trkpt lat="47.68255" lon="0.42734">
        <ele>39.6</ele>
        <time>2016-06-16T11:34:38Z</time>
      </trkpt>
      <trkpt lat="47.68256" lon="0.4272">
        <ele>39.9</ele>
        <time>2016-06-16T11:34:44Z</time>
      </trkpt>
      <trkpt lat="47.68256" lon="0.42706">
        <ele>40</ele>
        <time>2016-06-16T11:34:51Z</time>
      </trkpt>
      <trkpt lat="47.68256" lon="0.42692">
        <ele>39.3</ele>
        <time>2016-06-16T11:34:58Z</time>
      </trkpt>
      <trkpt lat="47.68258" lon="0.42677">
        <ele>38.9</ele>
        <time>2016-06-16T11:35:05Z</time>
      </trkpt>
      <trkpt lat="47.6826" lon="0.42662">
        <ele>38.6</ele>
        <time>2016-06-16T11:35:12Z</time>
      </trkpt>
      <trkpt lat="47.68261" lon="0.42648">
        <ele>39.1</ele>
        <time>2016-06-16T11:35:19Z</time>
      </trkpt>
      <trkpt lat="47.68263" lon="0.42634">
        <ele>38.8</ele>
        <time>2016-06-16T11:35:26Z</time>
      </trkpt>
      <trkpt lat="47.68265" lon="0.4262">
        <ele>38.1</ele>
        <time>2016-06-16T11:35:33Z</time>
      </trkpt>
      <trkpt lat="47.68268" lon="0.42608">
        <ele>37.6</ele>
        <time>2016-06-16T11:35:41Z</time>
      </trkpt>
      <trkpt lat="47.68275" lon="0.42596">
        <ele>37.6</ele>
        <time>2016-06-16T11:35:48Z</time>
      </trkpt>
      <trkpt lat="47.68279" lon="0.42584">
        <ele>38.1</ele>
        <time>2016-06-16T11:35:55Z</time>
      </trkpt>
      <trkpt lat="47.68282" lon="0.4257">
        <ele>39.2</ele>
        <time>2016-06-16T11:36:02Z</time>
      </trkpt>
      <trkpt lat="47.68283" lon="0.42555">
        <ele>39.7</ele>
        <time>2016-06-16T11:36:10Z</time>
      </trkpt>
      <trkpt lat="47.68281" lon="0.42541">
        <ele>39.6</ele>
        <time>2016-06-16T11:36:24Z</time>
      </trkpt>
      <trkpt lat="47.68285" lon="0.42529">
        <ele>39.5</ele>
        <time>2016-06-16T11:36:46Z</time>
      </trkpt>
      <trkpt lat="47.68288" lon="0.42516">
        <ele>40.1</ele>
        <time>2016-06-16T11:36:54Z</time>
      </trkpt>
      <trkpt lat="47.68292" lon="0.42503">
        <ele>39.3</ele>
        <time>2016-06-16T11:37:02Z</time>
      </trkpt>
      <trkpt lat="47.68295" lon="0.4249">
        <ele>40.2</ele>
        <time>2016-06-16T11:37:10Z</time>
      </trkpt>
      <trkpt lat="47.68299" lon="0.42476">
        <ele>39.8</ele>
        <time>2016-06-16T11:37:18Z</time>
      </trkpt>
      <trkpt lat="47.68301" lon="0.42462">
        <ele>40.2</ele>
        <time>2016-06-16T11:37:34Z</time>
      </trkpt>
      <trkpt lat="47.68304" lon="0.42448">
        <ele>40.9</ele>
        <time>2016-06-16T11:37:42Z</time>
      </trkpt>
      <trkpt lat="47.68306" lon="0.42434">
        <ele>41.1</ele>
        <time>2016-06-16T11:37:49Z</time>
      </trkpt>
      <trkpt lat="47.68309" lon="0.4242">
        <ele>40.8</ele>
        <time>2016-06-16T11:37:56Z</time>
      </trkpt>
      <trkpt lat="47.68311" lon="0.42406">
        <ele>41</ele>
        <time>2016-06-16T11:38:04Z</time>
      </trkpt>
      <trkpt lat="47.68313" lon="0.42393">
        <ele>40.4</ele>
        <time>2016-06-16T11:38:11Z</time>
      </trkpt>
      <trkpt lat="47.68315" lon="0.4238">
        <ele>40.7</ele>
        <time>2016-06-16T11:38:18Z</time>
      </trkpt>
      <trkpt lat="47.68318" lon="0.42366">
        <ele>40.3</ele>
        <time>2016-06-16T11:38:25Z</time>
      </trkpt>
      <trkpt lat="47.68317" lon="0.42352">
        <ele>40.3</ele>
        <time>2016-06-16T11:38:32Z</time>
      </trkpt>
      <trkpt lat="47.68319" lon="0.42338">
        <ele>39.8</ele>
        <time>2016-06-16T11:38:40Z</time>
      </trkpt>
      <trkpt lat="47.6832" lon="0.42324">
        <ele>40.2</ele>
        <time>2016-06-16T11:38:47Z</time>
      </trkpt>
      <trkpt lat="47.68322" lon="0.42311">
        <ele>40.2</ele>
        <time>2016-06-16T11:38:54Z</time>
      </trkpt>
      <trkpt lat="47.68324" lon="0.42298">
        <ele>40.1</ele>
        <time>2016-06-16T11:39:01Z</time>
      </trkpt>
      <trkpt lat="47.68327" lon="0.42285">
        <ele>39.5</ele>
        <time>2016-06-16T11:39:08Z</time>
      </trkpt>
      <trkpt lat="47.6833" lon="0.42272">
        <ele>38.8</ele>
        <time>2016-06-16T11:39:15Z</time>
      </trkpt>
      <trkpt lat="47.68333" lon="0.42258">
        <ele>38.3</ele>
        <time>2016-06-16T11:39:22Z</time>
      </trkpt>
      <trkpt lat="47.68336" lon="0.42244">
        <ele>38.4</ele>
        <time>2016-06-16T11:39:30Z</time>
      </trkpt>
      <trkpt lat="47.68339" lon="0.42231">
        <ele>38.6</ele>
        <time>2016-06-16T11:39:37Z</time>
      </trkpt>
      <trkpt lat="47.68341" lon="0.42218">
        <ele>39</ele>
        <time>2016-06-16T11:39:44Z</time>
      </trkpt>
      <trkpt lat="47.68345" lon="0.42204">
        <ele>39.2</ele>
        <time>2016-06-16T11:39:51Z</time>
      </trkpt>
      <trkpt lat="47.68348" lon="0.42189">
        <ele>38.9</ele>
        <time>2016-06-16T11:39:58Z</time>
      </trkpt>
      <trkpt lat="47.6835" lon="0.42176">
        <ele>38.7</ele>
        <time>2016-06-16T11:40:05Z</time>
      </trkpt>
      <trkpt lat="47.68354" lon="0.42163">
        <ele>39</ele>
        <time>2016-06-16T11:40:12Z</time>
      </trkpt>
      <trkpt lat="47.68357" lon="0.42149">
        <ele>38.8</ele>
        <time>2016-06-16T11:40:18Z</time>
      </trkpt>
      <trkpt lat="47.6836" lon="0.42137">
        <ele>38</ele>
        <time>2016-06-16T11:40:25Z</time>
      </trkpt>
      <trkpt lat="47.68363" lon="0.42122">
        <ele>38.8</ele>
        <time>2016-06-16T11:40:32Z</time>
      </trkpt>
      <trkpt lat="47.68366" lon="0.42107">
        <ele>38.8</ele>
        <time>2016-06-16T11:40:39Z</time>
      </trkpt>
      <trkpt lat="47.68368" lon="0.42094">
        <ele>38.6</ele>
        <time>2016-06-16T11:40:45Z</time>
      </trkpt>
      <trkpt lat="47.68367" lon="0.4208">
        <ele>38.3</ele>
        <time>2016-06-16T11:40:52Z</time>
      </trkpt>
      <trkpt lat="47.68369" lon="0.42065">
        <ele>38.3</ele>
        <time>2016-06-16T11:40:59Z</time>
      </trkpt>
      <trkpt lat="47.6837" lon="0.4205">
        <ele>37.4</ele>
        <time>2016-06-16T11:41:06Z</time>
      </trkpt>
      <trkpt lat="47.68372" lon="0.42035">
        <ele>37.6</ele>
        <time>2016-06-16T11:41:13Z</time>
      </trkpt>
      <trkpt lat="47.68372" lon="0.4202">
        <ele>36.9</ele>
        <time>2016-06-16T11:41:20Z</time>
      </trkpt>
      <trkpt lat="47.68372" lon="0.42005">
        <ele>36.9</ele>
        <time>2016-06-16T11:41:27Z</time>
      </trkpt>
      <trkpt lat="47.68375" lon="0.41992">
        <ele>37.1</ele>
        <time>2016-06-16T11:41:34Z</time>
      </trkpt>
      <trkpt lat="47.68377" lon="0.41977">
        <ele>36.7</ele>
        <time>2016-06-16T11:41:41Z</time>
      </trkpt>
      <trkpt lat="47.68377" lon="0.41962">
        <ele>36</ele>
        <time>2016-06-16T11:41:50Z</time>
      </trkpt>
      <trkpt lat="47.68376" lon="0.41949">
        <ele>36.6</ele>
        <time>2016-06-16T11:41:57Z</time>
      </trkpt>
      <trkpt lat="47.68377" lon="0.41934">
        <ele>37</ele>
        <time>2016-06-16T11:42:04Z</time>
      </trkpt>
      <trkpt lat="47.68376" lon="0.41919">
        <ele>36.5</ele>
        <time>2016-06-16T11:42:11Z</time>
      </trkpt>
      <trkpt lat="47.68375" lon="0.41906">
        <ele>35.9</ele>
        <time>2016-06-16T11:42:17Z</time>
      </trkpt>
      <trkpt lat="47.68373" lon="0.41893">
        <ele>35.3</ele>
        <time>2016-06-16T11:42:23Z</time>
      </trkpt>
      <trkpt lat="47.68372" lon="0.41879">
        <ele>36</ele>
        <time>2016-06-16T11:42:30Z</time>
      </trkpt>
      <trkpt lat="47.68372" lon="0.41866">
        <ele>36.3</ele>
        <time>2016-06-16T11:42:36Z</time>
      </trkpt>
      <trkpt lat="47.68372" lon="0.41851">
        <ele>35.3</ele>
        <time>2016-06-16T11:42:43Z</time>
      </trkpt>
      <trkpt lat="47.68373" lon="0.41836">
        <ele>36</ele>
        <time>2016-06-16T11:42:50Z</time>
      </trkpt>
      <trkpt lat="47.68372" lon="0.41821">
        <ele>36.4</ele>
        <time>2016-06-16T11:42:57Z</time>
      </trkpt>
      <trkpt lat="47.6837" lon="0.41806">
        <ele>35.2</ele>
        <time>2016-06-16T11:43:04Z</time>
      </trkpt>
      <trkpt lat="47.6837" lon="0.41791">
        <ele>36.2</ele>
        <time>2016-06-16T11:43:11Z</time>
      </trkpt>
      <trkpt lat="47.68369" lon="0.41777">
        <ele>36.2</ele>
        <time>2016-06-16T11:43:17Z</time>
      </trkpt>
      <trkpt lat="47.68369" lon="0.41761">
        <ele>37</ele>
        <time>2016-06-16T11:43:24Z</time>
      </trkpt>
      <trkpt lat="47.68369" lon="0.41748">
        <ele>37</ele>
        <time>2016-06-16T11:43:30Z</time>
      </trkpt>
      <trkpt lat="47.68369" lon="0.41733">
        <ele>36.9</ele>
        <time>2016-06-16T11:43:37Z</time>
      </trkpt>
      <trkpt lat="47.6837" lon="0.41719">
        <ele>36.6</ele>
        <time>2016-06-16T11:43:43Z</time>
      </trkpt>
      <trkpt lat="47.6837" lon="0.41705">
        <ele>37.6</ele>
        <time>2016-06-16T11:43:49Z</time>
      </trkpt>
      <trkpt lat="47.68369" lon="0.41691">
        <ele>37.2</ele>
        <time>2016-06-16T11:43:55Z</time>
      </trkpt>
      <trkpt lat="47.68369" lon="0.41677">
        <ele>38</ele>
        <time>2016-06-16T11:44:01Z</time>
      </trkpt>
      <trkpt lat="47.68369" lon="0.41663">
        <ele>37.7</ele>
        <time>2016-06-16T11:44:08Z</time>
      </trkpt>
      <trkpt lat="47.68369" lon="0.41649">
        <ele>37.7</ele>
        <time>2016-06-16T11:44:14Z</time>
      </trkpt>
      <trkpt lat="47.68368" lon="0.41635">
        <ele>37.6</ele>
        <time>2016-06-16T11:44:20Z</time>
      </trkpt>
      <trkpt lat="47.68367" lon="0.41622">
        <ele>37.6</ele>
        <time>2016-06-16T11:44:26Z</time>
      </trkpt>
      <trkpt lat="47.68366" lon="0.41607">
        <ele>37.4</ele>
        <time>2016-06-16T11:44:33Z</time>
      </trkpt>
      <trkpt lat="47.68365" lon="0.41593">
        <ele>37.3</ele>
        <time>2016-06-16T11:44:39Z</time>
      </trkpt>
      <trkpt lat="47.68364" lon="0.4158">
        <ele>38.7</ele>
        <time>2016-06-16T11:44:45Z</time>
      </trkpt>
      <trkpt lat="47.68364" lon="0.41566">
        <ele>38</ele>
        <time>2016-06-16T11:44:51Z</time>
      </trkpt>
      <trkpt lat="47.68363" lon="0.41552">
        <ele>38.7</ele>
        <time>2016-06-16T11:44:57Z</time>
      </trkpt>
      <trkpt lat="47.68362" lon="0.41537">
        <ele>38.7</ele>
        <time>2016-06-16T11:45:04Z</time>
      </trkpt>
      <trkpt lat="47.6836" lon="0.41523">
        <ele>39.6</ele>
        <time>2016-06-16T11:45:11Z</time>
      </trkpt>
      <trkpt lat="47.68359" lon="0.41508">
        <ele>39.3</ele>
        <time>2016-06-16T11:45:18Z</time>
      </trkpt>
      <trkpt lat="47.6836" lon="0.41494">
        <ele>39</ele>
        <time>2016-06-16T11:45:27Z</time>
      </trkpt>
      <trkpt lat="47.68363" lon="0.4148">
        <ele>42.6</ele>
        <time>2016-06-16T11:46:39Z</time>
      </trkpt>
      <trkpt lat="47.6836" lon="0.41468">
        <ele>42.9</ele>
        <time>2016-06-16T11:46:51Z</time>
      </trkpt>
      <trkpt lat="47.68366" lon="0.4146">
        <ele>43.6</ele>
        <time>2016-06-16T11:47:52Z</time>
      </trkpt>
    </trkseg>
  </trk>
</gpx>